     2.10           OBSERVATION DATA    G (GPS)             RINEX VERSION / TYPE
teqc 2005Jan28 UNAVCO Archive Ops 20050505 19:44:17UTC      PGM / RUN BY / DATE
Solaris 2.7|Ultra 2|cc SC5.0|=+-|*Sparc                     COMMENT
BIT 2 OF LLI FLAGS DATA COLLECTED UNDER A/S CONDITION       COMMENT
3257                                                        MARKER NAME
3257                                                        MARKER NUMBER
T. Dixon, Kevin FurlRSMAS/PSU                               OBSERVER / AGENCY
3610A14891 TRIMBLE 4000SSI NP 7.12 / SP 3.04                REC # / TYPE / VERS
0220075755 TRM29659.00                                      ANT # / TYPE
 -2462936.0000 -4396765.0000  3901057.0000                  APPROX POSITION XYZ
        0.5000        0.0000        0.0000                  ANTENNA: DELTA H/E/N
     1     1                                                WAVELENGTH FACT L1/2
     6    L1    L2    C1    P2    P1    D1                  # / TYPES OF OBSERV
    15.0000                                                 INTERVAL
NOTICE: YOUR USE OF THIS FILE IMPLIES YOUR                  COMMENT
ACCEPTANCE OF THE UNAVCO DATA SHARING POLICY                COMMENT
READ THE POLICY AT:                                         COMMENT
http://www.unavco.org/community/policies_forms              COMMENT
/DataPolicy.html                                            COMMENT
AND FOLLOW THE POLICY OR DELETE THIS FILE.                  COMMENT
                                                            COMMENT
RINEX file created by UNAVCO GPS Archive.                   COMMENT
For more information contact archive@unavco.org             COMMENT
Monument ID: 11045                                          COMMENT
UNAVCO 4-char name: 3257                                    COMMENT
4-char name from log or data file: TION                     COMMENT
Monument name: Tioga 2                                      COMMENT
Monument location: 37.9 -119.3 2869                         COMMENT
Original XYZ: -2467230.9947 -4396553.9238 3898453.8265      COMMENT
New XYZ position is based on association with SCEC monument COMMENT
E1F9J9K7+0021.                                              COMMENT
Visit ID: 59524 RawID: 238294                               COMMENT
Filename: TION2750 DAT EPH ION MES                          COMMENT
Antenna height measured: .5                                 COMMENT
Antenna height measured type: V                             COMMENT
Corrected antenna height validated? Y                       COMMENT
If Yes, then logsheet & data file values are identical      COMMENT
End of DB comments                                          COMMENT
SNR is mapped to RINEX snr flag value [1-9]                 COMMENT
L1: 3 -> 1; 8 -> 5; 40 -> 9                                 COMMENT
L2: 1 -> 1; 5 -> 5; 60 -> 9                                 COMMENT
  2001    10     2     0     0   15.0000000     GPS         TIME OF FIRST OBS
                                                            END OF HEADER
 01 10  2  0  0 15.0000000  0  9G 2G13G28G 3G 1G 8G27G31G10
   -363541.45856    116212.78956  22872303.0864   22872316.7544
      -285.4534
  24871425.13258  19383711.02156  21327061.6644   21327070.7854
     -4810.7664
  -1757140.10457  -1313863.07356  21720284.1414   21720293.8244
      -377.8914
  22413876.48955  10057050.27555  24187018.0634   24187034.6604
     -4900.5784
  55474951.45255  42952207.79455  24010632.7424   24010649.4344
     -5961.5474
   2601581.82158   2042235.83857  20788212.6094   20788222.2814
     -1009.2194
  12380717.61458   9666861.66357  20705198.0944   20705207.4144
     -2192.2664
   6120963.78256   3102327.93956  21854921.5004   21854932.8134
     -2975.9844
   5742069.14655   1792040.94855  23640699.5634   23640712.5274
     -2594.3754
 01 10  2  0  0 30.0000000  0  9G 2G13G28G 3G 1G 8G27G31G10
   -359229.26646    119572.98746  22873124.8134   22873138.1524
      -289.3284
  24943639.18848  19439981.67147  21340803.7424   21340812.7464
     -4817.6094
  -1751429.30047  -1309413.06446  21721369.9384   21721379.5164
      -383.3754
  22487435.45645  10114368.91745  24201015.1484   24201030.3634
     -4907.1094
  55564394.96445  43021903.94545  24027654.0704   24027671.6644
     -5964.0944
   2616746.40148   2054052.40447  20791097.6254   20791107.1214
     -1012.5784
  12413630.23948   9692507.86547  20711461.3364   20711470.6094
     -2195.9224
   6165681.63146   3137173.00046  21863431.1954   21863442.4024
     -2986.2344
   5781052.58045   1822417.61046  23648117.1024   23648131.9774
     -2603.2504
 01 10  2  0  0 45.0000000  0  9G 2G13G28G 3G 1G 8G27G31G10
   -354859.98146    122977.68646  22873956.7504   22873969.9384
      -293.2504
  25015955.05648  19496331.66146  21354564.7974   21354573.7664
     -4824.5004
  -1745636.84147  -1304899.42146  21722473.0864   21722482.3594
      -388.9224
  22561091.14745  10171762.86145  24215032.1174   24215045.5394
     -4913.6564
  55653875.78645  43091629.08845  24044681.9534   24044699.0204
     -5966.6724
   2631960.68348   2065907.70147  20793993.1024   20794002.6094
     -1015.9844
  12446596.88248   9718196.15747  20717734.5944   20717743.9614
     -2199.6414
   6210552.39146   3172137.23246  21871969.8914   21871981.1564
     -2996.5474
   5820168.14445   1852897.24845  23655560.4454   23655574.4184
     -2612.1724
 01 10  2  0  1  0.0000000  0  9G 2G13G28G 3G 1G 8G27G31G10
   -350429.56746    126430.00246  22874799.0004   22874811.8714
      -297.4694
  25088376.43348  19552763.86047  21368346.5474   21368355.5164
     -4831.6724
  -1739758.92047  -1300319.18746  21723591.9304   21723601.0984
      -394.7814
  22634847.10545  10229235.05045  24229066.7424   24229081.3364
     -4920.4694
  55743397.48845  43161386.14745  24061717.8284   24061734.6134
     -5969.5314
   2647228.54948   2077804.75347  20796898.2814   20796907.8014
     -1019.7034
  12479621.48448   9743929.61047  20724018.8134   20724028.2034
     -2203.6414
   6255579.99246   3207223.67246  21880538.1804   21880549.5744
     -3007.1414
   5859419.61745   1883482.79945  23663029.8984   23663044.6454
     -2621.3594
 01 10  2  0  1 15.0000000  0  9G 2G13G28G 3G 1G 8G27G31G10
   -345939.98246    129928.43746  22875653.6564   22875667.0664
      -301.0784
  25160901.20348  19609276.62247  21382147.7274   21382156.5204
     -4838.2194
  -1733797.25947  -1295673.70146  21724725.6094   21724734.8954
      -400.0164
  22708701.15145  10286783.59945  24243121.0864   24243138.1294
     -4926.6564
  55832957.89445  43231173.31745  24078760.2814   24078777.8754
     -5971.7504
   2662548.04848   2089742.03847  20799814.0474   20799823.5904
     -1022.8124
  12512702.25048   9769706.83247  20730314.2344   20730323.5664
     -2207.0474
   6300762.47846   3242430.79246  21889136.3444   21889147.7734
     -3017.1094
   5898805.08245   1914172.75445  23670524.7584   23670538.8594
     -2629.9374
 01 10  2  0  1 30.0000000  0  9G 2G13G28G 3G 1G 8G27G31G10
   -341393.59446    133471.12846  22876518.8914   22876532.0904
      -305.0624
  25233526.82248  19665867.97146  21395967.7664   21395976.9574
     -4845.1254
  -1727754.11447  -1290964.72546  21725875.5864   21725884.7664
      -405.6564
  22782650.62045  10344406.54145  24257193.2664   24257207.5084
     -4933.2034
  55922554.40745  43300988.61745  24095810.1024   24095828.6454
     -5974.3754
   2677917.04048   2101717.89047  20802738.0084   20802747.6564
     -1026.3124
  12545836.88748   9795526.02347  20736619.4614   20736628.6294
     -2210.8444
   6346097.32146   3277756.64246  21897763.3594   21897774.6954
     -3027.4534
   5938322.09645   1944965.19845  23678045.0084   23678060.3404
     -2638.9064
 01 10  2  0  1 45.0000000  0  9G 2G13G28G 3G 1G 8G27G31G10
   -336785.98446    137061.53446  22877394.4304   22877407.6174
      -309.2344
  25306257.48248  19722541.16746  21409807.8834   21409817.0164
     -4852.2344
  -1721625.00647  -1286188.75846  21727042.2344   21727051.7774
      -411.5004
  22856699.72145  10402107.12845  24271285.4534   24271299.6844
     -4939.9534
  56012191.20245  43370835.36845  24112867.9694   24112885.2584
     -5977.1414
   2693339.91848   2113735.73047  20805673.2274   20805683.1214
     -1030.0164
  12579029.94948   9821390.74647  20742935.7344   20742944.7734
     -2214.8444
   6391588.88846   3313204.61446  21906420.3834   21906431.6374
     -3038.0164
   5977974.78945   1975863.37745  23685591.0234   23685604.7974
     -2648.0624
 01 10  2  0  2  0.0000000  0  9G 2G13G28G 3G 1G 8G27G31G10
   -332119.62246    140697.68846  22878283.2274   22878296.5084
      -313.0624
  25379090.48147  19779294.11546  21423667.2584   21423676.4964
     -4858.9534
  -1715412.54247  -1281347.83546  21728223.7734   21728233.4104
      -416.9534
  22930845.48545  10459883.02245  24285393.5234   24285409.0784
     -4946.2814
  56101865.45544  43440711.24845  24129930.9614   24129949.9614
     -5979.5314
   2708814.25748   2125793.67547  20808617.4454   20808627.2704
     -1033.3444
  12612278.94148   9847299.05747  20749262.7814   20749272.0314
     -2218.4694
   6437234.56546   3348772.66346  21915106.1644   21915117.8404
     -3048.1874
   6017760.60546   2006865.28246  23693162.2274   23693175.5664
     -2656.8444
 01 10  2  0  2 15.0000000  0  9G 2G13G28G 3G 1G 8G27G31G10
   -327392.96346    144380.84846  22879182.3364   22879195.8284
      -316.8594
  25452027.17248  19836127.86046  21437546.9224   21437556.1844
     -4865.6414
  -1709115.21147  -1276440.78546  21729422.3444   21729431.9804
      -422.3914
  23005089.10445  10517735.10745  24299522.8134   24299538.3914
     -4952.5784
  56191578.48544  43510617.35245  24147003.1884   24147021.8014
     -5981.8914
   2724341.69048   2137892.99347  20811572.2974   20811582.2034
     -1036.6724
  12645585.44848   9873252.17747  20755601.0554   20755610.3404
     -2222.0944
   6483035.83446   3384461.95746  21923822.0554   21923833.3444
     -3058.3444
   6057680.98746   2037972.04346  23700758.1724   23700773.0824
     -2665.5944
 01 10  2  0  2 30.0000000  0  9G 2G13G28G 3G 1G 8G27G31G10
   -322612.05146    148106.28746  22880091.7664   22880104.8484
      -320.5944
  25525061.24148  19893037.47846  21451444.8674   21451454.1054
     -4872.2344
  -1702738.96847  -1271472.25046  21730635.5474   21730645.0554
      -427.7814
  23079424.39544  10575658.63745  24313667.8594   24313682.2894
     -4958.8124
  56281323.90044  43580548.73545  24164082.0164   24164100.7704
     -5984.1414
   2739916.31048   2150029.07247  20814536.2344   20814545.9064
     -1039.9534
  12678943.52648   9899245.48647  20761948.8054   20761958.0554
     -2225.6564
   6528986.53446   3420267.68446  21932565.7114   21932577.3874
     -3068.4374
   6097729.75446   2069178.84546  23708379.4064   23708393.6024
     -2674.2504
 01 10  2  0  2 45.0000000  0  9G 2G13G28G 3G 1G 8G27G31G10
   -317772.86146    151877.13446  22881013.6954   22881026.1214
      -324.7974
  25598196.45647  19950025.91146  21465362.0474   21465371.2384
     -4879.2974
  -1696279.79447  -1266439.10046  21731864.6414   21731874.1374
      -433.6094
  23153855.09643  10633656.58345  24327830.7584   24327843.7344
     -4965.4694
  56371105.44444  43650508.17945  24181166.7114   24181184.5744
     -5986.8594
   2755542.08548   2162205.01247  20817510.2194   20817519.7624
     -1043.6564
  12712357.23848   9925282.14247  20768307.2034   20768316.4534
     -2229.6724
   6575090.65546   3456192.96746  21941339.3674   21941350.9964
     -3078.9534
   6137910.77546   2100488.69546  23716025.6254   23716039.3524
     -2683.3754
 01 10  2  0  3  0.0000000  0  9G 2G13G28G 3G 1G 8G27G31G10
   -312878.44546    155691.00646  22881944.3674   22881957.5204
      -328.3444
  25671429.63547  20007090.67746  21479297.6884   21479306.8094
     -4885.6724
  -1689740.67047  -1261343.64346  21733109.4774   21733119.0554
      -438.8124
  23228377.81143  10691726.10845  24342011.2894   24342026.0474
     -4971.4224
  56460919.74645  43720493.18945  24198258.9064   24198278.7734
     -5988.9064
   2771216.08248   2174418.53147  20820492.9844   20820502.6334
     -1046.7504
  12745823.61748   9951359.83447  20774675.7664   20774684.8754
     -2233.0474
   6621345.02746   3492235.31646  21950141.4144   21950152.8554
     -3088.8444
   6178220.86246   2131899.12846  23723696.8204   23723710.3014
     -2691.8284
 01 10  2  0  3 15.0000000  0  9G 2G13G28G 3G 1G 8G27G31G10
   -307924.66246    159551.14646  22882887.1564   22882900.9304
      -331.9694
  25744764.58248  20064234.74346  21493253.2274   21493262.4064
     -4892.1254
  -1683117.45647  -1256182.66246  21734370.1024   21734379.6334
      -444.0944
  23302996.25643  10749870.34745  24356211.0234   24356228.1134
     -4977.4694
  56550770.71644  43790506.79745  24215356.7974   24215375.0704
     -5991.0164
   2786942.50848   2186672.89547  20823484.6954   20823494.4614
     -1049.9224
  12779346.80448   9977481.78947  20781054.9614   20781064.1764
     -2236.5164
   6667753.71246   3528397.92746  21958972.5004   21958984.2114
     -3098.7974
   6218663.91945   2163413.20246  23731392.0234   23731406.6294
     -2700.3594
 01 10  2  0  3 30.0000000  0  9G 2G13G28G 3G 1G 8G27G31G10
   -302911.21146    163457.77246  22883840.0784   22883852.9494
      -336.2194
  25818201.47847  20121458.24746  21507227.6724   21507236.7934
     -4899.2034
  -1676409.77847  -1250955.86546  21735645.7424   21735655.4964
      -450.0164
  23377710.52943  10808089.26245  24370429.3754   24370444.3324
     -4984.1414
  56640658.56344  43860549.12445  24232461.9144   24232481.0554
     -5993.7664
   2802721.62748   2198968.33447  20826487.7274   20826497.5164
     -1053.7194
  12812927.28548  10003648.39747  20787445.0234   20787454.1334
     -2240.6254
   6714317.03946   3564681.02746  21967833.3674   21967845.0084
     -3109.3914
   6259240.25145   2195031.09745  23739112.9534   23739127.1844
     -2709.5474
 01 10  2  0  3 45.0000000  0  9G 2G13G28G 3G 1G 8G27G31G10
   -297835.37946    167413.00746  22884807.4224   22884820.1644
      -340.4224
  25891742.60647  20178762.97846  21521222.2664   21521231.1294
     -4906.1874
  -1669614.94847  -1245661.15246  21736939.0004   21736948.3094
      -455.8594
  23452522.88043  10866384.51645  24384666.4924   24384682.8094
     -4990.7194
  56730585.51444  43930621.90345  24249574.8364   24249592.3134
     -5996.3914
   2818556.27748   2211307.03247  20829500.8674   20829510.5744
     -1057.4534
  12846567.78348  10029861.77047  20793846.6564   20793855.8484
     -2244.6724
   6761037.45346   3601086.52846  21976724.6024   21976735.7624
     -3119.8914
   6299952.37645   2226754.83345  23746861.7034   23746875.0084
     -2718.6254
 01 10  2  0  4  0.0000000  0  9G 2G13G28G 3G 1G 8G27G31G10
   -292694.92146    171418.60446  22885783.8914   22885796.3634
      -344.9374
  25965390.12248  20236150.60846  21535236.8984   21535246.0314
     -4913.4534
  -1662730.71447  -1240296.78046  21738248.5314   21738258.0514
      -462.0164
  23527435.32043  10924757.87045  24398922.0474   24398937.3914
     -4997.5944
  56820553.68144  44000726.83845  24266694.3984   24266713.1644
     -5999.3284
   2834448.89148   2223690.90047  20832524.9924   20832534.7464
     -1061.5164
  12880270.64848  10056123.73947  20800260.0394   20800269.2774
     -2249.0164
   6807917.11946   3637616.13246  21985644.8754   21985656.4344
     -3130.7034
   6340802.35245   2258585.92545  23754634.9924   23754647.8984
     -2728.0004
 01 10  2  0  4 15.0000000  0  9G 2G13G28G 3G 1G 8G27G31G10
   -287492.06046    175472.82346  22886775.8054   22886788.4654
      -348.9844
  26039141.51747  20293619.18446  21549271.3054   21549280.4964
     -4920.2664
  -1655759.36347  -1234864.51646  21739575.7664   21739585.3794
      -467.7194
  23602445.20443  10983207.09545  24413195.4224   24413209.2664
     -5003.9844
  56910560.48144  44070861.85445  24283822.2424   24283840.5634
     -6001.7814
   2850397.09448   2236118.09347  20835560.0784   20835569.7274
     -1065.1094
  12914033.64348  10082432.55947  20806684.8754   20806694.1254
     -2252.9224
   6854953.70146   3674267.99446  21994595.6644   21994607.3164
     -3141.0474
   6381787.76445   2290522.57345  23762433.1414   23762447.1024
     -2736.9224
 01 10  2  0  4 30.0000000  0  9G 2G13G28G 3G 1G 8G27G31G10
   -282230.27746    179572.97246  22887774.8524   22887788.0984
      -352.9064
  26112993.24847  20351165.94346  21563324.7424   21563334.0044
     -4926.9534
  -1648704.24247  -1229366.98346  21740917.9844   21740927.4924
      -473.2974
  23677548.81543  11041729.31845  24427486.2584   24427502.5634
     -5010.2034
  57000602.09344  44141023.98445  24300956.7114   24300975.2194
     -6004.0944
   2866397.62148   2248586.04947  20838604.8364   20838614.3324
     -1068.5944
  12947853.44948  10108785.65647  20813120.6254   20813129.8284
     -2256.7034
   6902143.59946   3711039.34446  22003575.3594   22003587.0354
     -3151.2664
   6422904.97745   2322561.93845  23770258.4384   23770272.5744
     -2745.7034
 01 10  2  0  4 45.0000000  0  9G 2G13G28G 3G 1G 8G27G31G10
   -276910.17746    183718.54646  22888788.3594   22888801.8054
      -356.7034
  26186944.41148  20408790.18246  21577397.5474   21577406.7734
     -4933.4694
  -1641565.89047  -1223804.59046  21742275.8984   21742285.3954
      -478.7344
  23752745.36442  11100324.06645  24441795.5164   24441810.8134
     -5016.2504
  57090677.81444  44211212.69945  24318098.1024   24318115.9064
     -6006.2664
   2882449.88848   2261094.32347  20841659.4144   20841668.9574
     -1071.9694
  12981729.61148  10135182.66247  20819567.0474   20819576.1804
     -2260.3754
   6949486.18546   3747929.65846  22012584.8914   22012596.6134
     -3161.3444
   6464153.48845   2354703.60046  23778107.8204   23778122.7304
     -2754.3594
 01 10  2  0  5  0.0000000  0  9G 2G13G28G 3G 1G 8G27G31G10
   -271530.06946    187910.88246  22889812.6414   22889825.8284
      -360.9374
  26260996.50047  20466493.05946  21591489.2274   21591498.3364
     -4940.4374
  -1634342.63547  -1218176.04346  21743650.9614   21743660.1764
      -484.6414
  23828036.11143  11158992.11645  24456124.3524   24456144.6174
     -5022.7974
  57180788.95144  44281429.03245  24335245.2504   24335263.9924
     -6008.8594
   2898555.73248   2273644.34447  20844724.4454   20844733.9184
     -1075.7814
  13015663.78748  10161624.87347  20826024.6024   20826033.7934
     -2264.4844
   6996983.00646   3784940.15346  22021622.8444   22021634.1684
     -3171.8594
   6505534.64245   2386948.63245  23785981.4924   23785996.6844
     -2763.4374
 01 10  2  0  5 15.0000000  0  9G 2G13G28G 3G 1G 8G27G31G10
   -266084.24146    192154.42746  22890849.0704   22890861.8014
      -365.0784
  26335154.99347  20524278.84646  21605601.2274   21605610.5594
     -4947.2664
  -1627028.68147  -1212476.82346  21745042.1954   21745051.3634
      -490.4374
  23903426.43543  11217737.81245  24470471.2034   24470490.0164
     -5029.1874
  57270940.98544  44351677.24045  24352401.0164   24352419.2894
     -6011.3284
   2914720.90048   2286240.59547  20847799.8754   20847809.7234
     -1079.5004
  13049661.88948  10188116.88947  20832494.0234   20832503.2384
     -2268.5004
   7044639.68146   3822075.21746  22030691.2504   22030702.8914
     -3182.2664
   6547054.00445   2419301.36845  23793882.9694   23793897.6914
     -2772.3914
 01 10  2  0  5 30.0000000  0  9G 2G13G28G 3G 1G 8G27G31G10
   -260580.98146    196442.71446  22891895.8134   22891908.7544
      -368.9534
  26409411.36647  20582140.91346  21619731.7504   21619741.0824
     -4953.8284
  -1619632.37047  -1206713.43346  21746450.0394   21746459.2894
      -495.9844
  23978907.66543  11276554.39545  24484834.1564   24484849.8404
     -5035.2814
  57361125.23344  44421950.50045  24369562.5944   24369581.2544
     -6013.5004
   2930937.05348   2298876.57447  20850886.4144   20850896.4144
     -1082.9374
  13083715.56848  10214652.21747  20838974.3984   20838983.6604
     -2272.2664
   7092447.71846   3859328.21446  22039789.5394   22039800.7464
     -3192.4064
   6588703.04045   2451755.14445  23801808.5234   23801821.8634
     -2781.0944
 01 10  2  0  5 45.0000000  0  9G 2G13G28G 3G 1G 8G27G31G10
   -255015.80046    200779.25846  22892955.3204   22892968.7424
      -372.9844
  26483769.79147  20640082.48946  21633881.5234   21633890.6564
     -4960.5314
  -1612149.17147  -1200882.33346  21747874.1954   21747883.4804
      -501.6724
  24054484.04243  11335445.04345  24499215.2424   24499230.4574
     -5041.4694
  57451345.96444  44492252.25945  24386731.4064   24386750.3364
     -6015.8124
   2947208.87948   2311555.92647  20853982.9144   20853992.7154
     -1086.5474
  13117829.43648  10241234.44347  20845465.8984   20845475.0664
     -2276.1724
   7140411.59546   3896702.65846  22048916.7344   22048927.7894
     -3202.6874
   6630486.31045   2484313.51745  23809759.9304   23809772.8134
     -2789.9374
 01 10  2  0  6  0.0000000  0  9G 2G13G28G 3G 1G 8G27G31G10
   -249390.33646    205162.78746  22894024.7194   22894037.7424
      -377.0164
  26558228.47847  20698102.20646  21648050.6174   21648060.0314
     -4967.2344
  -1604580.60247  -1194984.70746  21749314.7274   21749324.0234
      -507.3914
  24130153.60343  11394408.30745  24513615.7344   24513634.1254
     -5047.7194
  57541601.18744  44562580.81045  24403906.3754   24403922.7854
     -6018.1254
   2963534.74648   2324277.39647  20857089.1334   20857099.0744
     -1090.1724
  13152001.91648  10267862.34447  20851968.7894   20851978.0634
     -2280.0944
   7188529.51446   3934197.13446  22058073.3444   22058084.3164
     -3212.9844
   6672401.91045   2516974.99245  23817736.0474   23817749.7384
     -2798.7664
 01 10  2  0  6 15.0000000  0  9G 2G13G28G 3G 1G 8G27G31G10
   -243706.44446    209591.82446  22895106.8524   22895120.0514
      -381.0164
  26632785.44947  20756198.49346  21662238.3984   21662247.7304
     -4973.8754
  -1596928.64147  -1189022.10646  21750770.6024   21750779.7344
      -513.0474
  24205914.14043  11453442.48945  24528032.7274   24528048.7504
     -5053.8444
  57631888.88443  44632934.74045  24421087.1484   24421107.5784
     -6020.3754
   2979912.99148   2337039.67747  20860205.7974   20860215.5984
     -1093.7504
  13186231.25148  10294534.54547  20858482.2664   20858491.7854
     -2283.9844
   7236799.62346   3971810.20646  22067258.2894   22067269.5784
     -3223.2194
   6714447.91845   2549738.09245  23825736.8754   23825751.1884
     -2807.5474
 01 10  2  0  6 30.0000000  0  9G 2G13G28G 3G 1G 8G27G31G10
   -237964.02046    214066.49146  22896201.2664   22896214.5234
      -384.9224
  26707440.52247  20814371.23546  21676444.9774   21676454.0164
     -4980.4064
  -1589193.08547  -1182994.36546  21752242.3054   21752251.4614
      -518.6254
  24281765.52843  11512547.44945  24542465.3594   24542481.4774
     -5059.9374
  57722208.97543  44703313.86545  24438274.2584   24438292.9064
     -6022.5624
   2996343.70948   2349842.84447  20863332.4614   20863342.2504
     -1097.2664
  13220517.60948  10321251.18647  20865006.7194   20865016.2274
     -2287.7974
   7285221.91546   4009541.84446  22076473.1564   22076484.5864
     -3233.3754
   6756624.15845   2582602.68845  23833762.8364   23833776.3634
     -2816.2194
 01 10  2  0  6 45.0000000  0  9G 2G13G28G 3G 1G 8G27G31G10
   -232163.06046    218586.75146  22897302.5554   22897315.9064
      -388.8594
  26782193.32447  20872620.11846  21690669.7814   21690678.7274
     -4986.9694
  -1581373.94647  -1176901.49746  21753730.9064   21753739.9454
      -524.2504
  24357707.48743  11571722.90545  24556917.3444   24556932.3834
     -5065.9844
  57812561.08443  44773717.96545  24455469.0164   24455485.6954
     -6024.7194
   3012826.94648   2362686.93547  20866469.7584   20866479.3134
     -1100.8284
  13254861.12948  10348012.35847  20871542.4844   20871551.8874
     -2291.6564
   7333796.31446   4047392.01946  22085716.4064   22085728.0124
     -3243.5474
   6798930.46545   2615568.64045  23841813.9614   23841829.0944
     -2824.9534
 01 10  2  0  7  0.0000000  0  9G 2G13G28G 3G 1G 8G27G31G10
   -226298.84946    223156.31346  22898418.7344   22898432.1564
      -392.7194
  26857048.54147  20930948.80946  21704914.4064   21704923.6914
     -4993.4064
  -1573466.37747  -1170739.71946  21755235.0004   21755243.9224
      -529.7664
  24433744.39942  11630972.41645  24571386.1094   24571402.7194
     -5071.9374
  57902949.74143  44844150.52145  24472669.6094   24472687.7424
     -6026.7664
   3029367.65348   2375575.79947  20869617.1804   20869626.6054
     -1104.2664
  13289266.62948  10374821.83147  20878089.3054   20878098.6254
     -2295.4064
   7382527.35946   4085364.25846  22094989.8914   22095000.8754
     -3253.5944
   6841371.47445   2648639.54145  23849889.6724   23849904.3594
     -2833.5314
 01 10  2  0  7 15.0000000  0  9G 2G13G28G 3G 1G 8G27G31G10
   -220374.47346    227772.74546  22899546.1564   22899558.9694
      -397.0314
  26932002.73647  20989354.62546  21719177.8914   21719187.2114
     -5000.3124
  -1565473.52647  -1164511.49446  21756755.9614   21756764.9414
      -535.7664
  24509872.80142  11690293.19345  24585871.3524   24585888.9224
     -5078.3124
  57993371.44543  44914608.81445  24489877.3284   24489895.0044
     -6029.2664
   3045962.70048   2388507.01747  20872774.5784   20872784.2384
     -1108.2034
  13323731.00748  10401677.18347  20884648.0864   20884657.1954
     -2299.6564
   7431411.79946   4123456.02146  22104291.8284   22104302.8484
     -3264.1414
   6883943.91445   2681812.84645  23857991.1254   23858005.6724
     -2842.6094
 01 10  2  0  7 30.0000000  0  9G 2G13G28G 3G 1G 8G27G31G10
   -214391.77646    232434.62446  22900685.5784   22900698.4264
      -400.8754
  27007053.88047  21047835.98346  21733459.6174   21733468.9024
     -5006.7034
  -1557397.21547  -1158218.23446  21758292.8204   21758301.9064
      -541.2814
  24586090.51742  11749683.57545  24600376.0474   24600391.5664
     -5084.2344
  58083824.15543  44985091.29445  24507088.6564   24507105.3714
     -6031.2814
   3062610.16648   2401479.07147  20875942.6954   20875952.1914
     -1111.6564
  13358252.54748  10428577.07647  20891217.2114   20891226.2974
     -2303.4224
   7480447.71446   4161665.81846  22113623.7424   22113634.6914
     -3274.1724
   6926645.85745   2715087.05545  23866117.1414   23866131.8874
     -2851.1874
 01 10  2  0  7 45.0000000  0  9G 2G13G28G 3G 1G 8G27G31G10
   -208349.28446    237143.10146  22901835.1724   22901848.6294
      -405.0314
  27082203.22647  21106393.86646  21747760.0394   21747769.4654
     -5013.4374
  -1549236.02147  -1151858.82146  21759846.3674   21759855.8054
      -547.1254
  24662398.60543  11809144.36445  24614898.0394   24614914.7894
     -5090.4224
  58174309.02943  45055598.78945  24524308.2194   24524327.3014
     -6033.5944
   3079311.74948   2414493.29847  20879120.6484   20879130.0164
     -1115.4374
  13392832.81548  10455522.73647  20897797.5004   20897806.6684
     -2307.5164
   7529636.44846   4199994.69346  22122983.6254   22122994.7384
     -3284.5474
   6969478.60945   2748463.15045  23874268.3204   23874282.8444
     -2860.0784
 01 10  2  0  8  0.0000000  0  9G 2G13G28G 3G 1G 8G27G31G10
   -202244.56646    241900.06946  22902997.4774   22903010.3954
      -408.5624
  27157452.80047  21165029.84946  21762079.3524   21762088.7424
     -5019.5004
  -1540987.54847  -1145431.40946  21761416.0944   21761425.3674
      -552.3444
  24738799.26043  11868677.30645  24629435.8834   24629449.3984
     -5095.9694
  58264828.18743  45126133.09445  24541532.8594   24541552.1524
     -6035.2664
   3096069.96948   2427551.66047  20882310.0394   20882319.5354
     -1118.6254
  13427474.24748  10482516.05147  20904389.3984   20904398.5084
     -2310.9844
   7578980.26746   4238444.42446  22132373.5474   22132385.0234
     -3294.2814
   7012444.34845   2781942.92345  23882443.8284   23882459.6994
     -2868.3284
 01 10  2  0  8 15.0010000  0  9G 2G13G28G 3G 1G 8G27G31G10
   -196085.02646    246699.74446  22904168.3334   22904180.8764
      -412.5164
  27232799.90747  21223741.83846  21776417.5364   21776427.1384
     -5025.9694
  -1532658.81047  -1138941.44246  21763000.9274   21763010.2354
      -557.9534
  24815289.58142  11928280.17345  24643990.7864   24644005.8134
     -5101.9224
  58355379.72843  45196692.53145  24558765.1854   24558783.2474
     -6037.3444
   3112878.22548   2440649.01547  20885508.6774   20885518.3024
     -1122.2034
  13462171.51748  10509552.88447  20910991.9034   20911001.0954
     -2314.8754
   7628474.70546   4277011.50546  22141792.2244   22141803.2904
     -3304.4064
   7055538.07945   2815522.40345  23890644.8564   23890659.6734
     -2876.9844
 01 10  2  0  8 30.0010000  0  9G 2G13G28G 3G 1G 8G27G31G10
   -189864.06246    251547.28946  22905351.7004   22905364.1264
      -416.7814
  27308241.47947  21282527.42546  21790773.9034   21790783.5754
     -5032.7504
  -1524243.54647  -1132384.06446  21764601.8414   21764611.0794
      -563.9224
  24891866.42642  11987950.37845  24658563.5364   24658580.2744
     -5108.1564
  58445958.67243  45267273.45045  24576000.6224   24576019.5994
     -6039.7034
   3129741.76848   2453789.45147  20888717.0604   20888726.6614
     -1126.1254
  13496927.46148  10536635.43047  20917606.2244   20917615.5444
     -2319.1094
   7678120.45146   4315696.51446  22151238.9424   22151250.4074
     -3314.8754
   7098761.24845   2849202.76445  23898869.1144   23898884.1064
     -2885.9694
 01 10  2  0  8 45.0010000  0  9G 2G13G28G 3G 1G 8G27G31G10
   -183582.87746    256441.75746  22906545.9744   22906558.2354
      -420.4534
  27383780.63447  21341389.04846  21805148.2314   21805157.7634
     -5038.9064
  -1515742.83447  -1125760.09846  21766219.4504   21766228.5834
      -569.2814
  24968532.93742  12047690.57145  24673153.2714   24673167.5364
     -5113.7974
  58536569.19143  45337878.78745  24593244.6614   24593263.4384
     -6041.4374
   3146660.15748   2466972.61847  20891937.0444   20891946.7634
     -1129.4374
  13531742.91548  10563764.35147  20924231.2554   20924240.4464
     -2322.7344
   7727918.97846   4354500.54846  22160715.1384   22160726.6494
     -3324.7034
   7142115.00245   2882984.87045  23907119.6694   23907134.2634
     -2894.3284
 01 10  2  0  9  0.0010000  0  9G 2G13G28G 3G 1G 8G27G31G10
   -177244.36046    261380.90446  22907754.5994   22907767.1884
      -424.2664
  27459414.34347  21400324.36046  21819540.9354   21819550.5714
     -5045.1874
  -1507159.49347  -1119071.74746  21767852.7784   21767862.0634
      -574.7664
  25045285.83342  12107497.94945  24687758.6774   24687772.8374
     -5119.5164
  58627208.04345  45408506.32045  24610492.9424   24610510.5604
     -6043.3284
   3163630.69748   2480196.42747  20895166.1144   20895175.7394
     -1132.8914
  13566615.05548  10590937.44247  20930867.4504   20930876.7004
     -2326.4844
   7777867.31346   4393421.32746  22170220.5754   22170231.9114
     -3334.6724
   7185596.24445   2916866.33045  23915393.8024   23915407.9274
     -2902.7814
 01 10  2  0  9 15.0010000  0  9G 2G13G28G 3G 1G 8G27G31G10
   -170849.07446    266364.29146  22908970.7164   22908983.7164
      -428.3594
  27535141.84847  21459332.74846  21833951.4354   21833961.0364
     -5051.7344
  -1498494.10547  -1112319.47246  21769501.6924   21769510.8604
      -580.5474
  25122124.24143  12167371.97145  24702381.7314   24702396.9584
     -5125.5314
  58717874.45543  45479155.40545  24627743.8414   24627765.4584
     -6045.4534
   3180652.73248   2493460.35247  20898405.6854   20898415.1694
     -1136.6564
  13601543.43148  10618154.34747  20937513.5994   20937522.8844
     -2330.5474
   7827964.79046   4432458.32346  22179753.4744   22179764.7864
     -3344.9224
   7229204.26245   2950846.54845  23923692.0134   23923706.6884
     -2911.5474
 01 10  2  0  9 30.0010000  0  9G 2G13G28G 3G 1G 8G27G31G10
   -164392.58746    271395.36146  22910199.8564   22910213.0094
      -432.4534
  27610967.23447  21518417.41646  21848380.8174   21848390.4664
     -5058.2664
  -1489742.11947  -1105499.70046  21771167.1614   21771176.4704
      -586.3284
  25199052.31143  12227315.97445  24717020.6144   24717036.6494
     -5131.5164
  58808572.67043  45549829.10845  24645004.8724   24645023.6614
     -6047.5784
   3197730.93548   2506768.05047  20901655.3494   20901664.7634
     -1140.4064
  13636532.53648  10645418.58447  20944171.7634   20944181.1064
     -2334.6094
   7878215.63946   4471614.82546  22189315.9584   22189327.4934
     -3355.1414
   7272943.29845   2984928.89245  23932015.7084   23932031.1694
     -2920.2814
 01 10  2  0  9 45.0010000  0  9G 2G13G28G 3G 1G 8G27G31G10
   -157874.94046    276474.08146  22911440.2714   22911452.6144
      -436.5944
  27686890.21147  21577578.12846  21862828.5134   21862838.0794
     -5064.8284
  -1480903.64347  -1098612.54346  21772848.9894   21772858.2634
      -592.1564
  25276069.68343  12287329.47845  24731675.3024   24731692.8964
     -5137.4694
  58899302.29245  45620527.31345  24662270.2634   24662288.8294
     -6049.7194
   3214865.19348   2520119.43047  20904915.8414   20904925.4314
     -1144.2034
  13671582.40148  10672730.16047  20950841.9114   20950851.2674
     -2338.7194
   7928619.71746   4510890.72546  22198907.5444   22198919.3254
     -3365.4224
   7316813.09545   3019113.10845  23940363.9744   23940378.6264
     -2929.0474
 01 10  2  0 10  0.0010000  0  9G 2G13G28G 3G 1G 8G27G31G10
   -151292.81546    281603.06246  22912691.6534   22912704.3604
      -441.1724
  27762914.14047  21636817.50346  21877295.3254   21877305.0094
     -5071.8284
  -1471975.38347  -1091655.42446  21774548.0214   21774557.3064
      -598.4374
  25353179.43043  12347414.96445  24746349.9814   24746362.2784
     -5143.9374
  58990066.30045  45691252.36645  24679542.0214   24679561.9234
     -6052.2974
   3232059.04148   2533517.24547  20908187.6854   20908197.3104
     -1148.4534
  13706696.36348  10700091.68547  20957523.8024   20957533.0754
     -2343.2814
   7979180.21446   4550288.50946  22208528.9504   22208540.4504
     -3376.1414
   7360816.80845   3053401.65345  23948737.7554   23948751.9974
     -2938.2664
 01 10  2  0 10 15.0010000  0  9G 2G13G28G 3G 1G 8G27G31G10
   -144645.42046    286782.88846  22913957.2244   22913970.1654
      -445.3124
  27839039.37747  21696135.81946  21891781.3884   21891790.9784
     -5078.3594
  -1462956.53447  -1084627.72246  21776263.8724   21776273.0874
      -604.2504
  25430381.91143  12407572.74645  24761040.9584   24761055.5174
     -5149.8754
  59080865.34543  45762004.69245  24696819.2554   24696837.6694
     -6054.4224
   3249313.22548   2546962.07847  20911470.7634   20911480.3534
     -1152.2664
  13741875.33248  10727503.86747  20964218.1774   20964227.4504
     -2347.4064
   8029897.81046   4589808.71946  22218179.8494   22218191.6424
     -3386.3754
   7404955.04045   3087795.03945  23957136.2164   23957150.3534
     -2947.0004
 01 10  2  0 10 30.0010000  0  9G 2G13G28G 3G 1G 8G27G31G10
   -137934.41746    292012.29346  22915233.6144   22915246.5324
      -449.5624
  27915264.00847  21755531.58246  21906286.4274   21906296.1694
     -5085.0004
  -1453848.72347  -1077530.69446  21777997.7554   21778007.0524
      -610.1874
  25507675.19543  12467801.30145  24775749.0914   24775762.8994
     -5155.9534
  59171697.51443  45832782.85845  24714104.7864   24714126.5214
     -6056.5944
   3266626.26248   2560452.76247  20914765.7244   20914775.5484
     -1156.2034
  13777117.76748  10754965.49747  20970924.4974   20970933.8414
     -2351.6564
   8080770.74046   4629449.95446  22227860.4354   22227871.8174
     -3396.7504
   7449226.06246   3122291.92946  23965561.4504   23965575.7864
     -2955.8754
 01 10  2  0 10 45.0010000  0  9G 2G13G28G 3G 1G 8G27G31G10
   -131162.89846    297288.84346  22916521.8564   22916534.3884
      -453.4224
  27991584.75347  21815002.24246  21920810.2314   21920819.8684
     -5091.2344
  -1444654.99247  -1070366.71246  21779747.2944   21779756.3454
      -615.7664
  25585055.95943  12528098.06845  24790472.7714   24790487.1304
     -5161.5624
  59262559.38742  45903584.17644  24731396.5914   24731415.8724
     -6058.4064
   3283995.10248   2573986.93847  20918070.8174   20918080.4194
     -1159.7814
  13812420.64048  10782474.23447  20977642.1064   20977651.3454
     -2355.5314
   8131795.75546   4669209.70446  22237570.7004   22237582.2354
     -3406.7194
   7493626.58846   3156889.69945  23974010.3334   23974023.8844
     -2964.3284
 01 10  2  0 11  0.0010000  0  9G 2G13G28G 3G 1G 8G27G31G10
   -124329.98546    302613.22846  22917822.3024   22917834.9624
      -457.6564
  28068002.28947  21874548.32346  21935351.9034   21935361.4464
     -5097.8284
  -1435374.42247  -1063135.07146  21781511.9814   21781520.9034
      -621.6874
  25662524.59743  12588463.17745  24805215.0364   24805230.9074
     -5167.5784
  59353451.60041  45974408.94743  24748691.7004   24748714.7124
     -6060.5784
   3301420.65648   2587565.30247  20921386.8024   20921396.4624
     -1163.6874
  13847784.95548  10810030.83647  20984372.1224   20984381.3604
     -2359.7504
   8182973.58846   4709088.51846  22247309.3414   22247320.8174
     -3417.0474
   7538157.29845   3191588.92045  23982484.3804   23982498.1884
     -2973.1414
 01 10  2  0 11 15.0010000  0  9G 2G13G28G 3G 1G 8G27G31G10
   -117434.11446    307986.68946  22919135.2714   22919148.2474
      -461.7194
  28144517.87947  21934170.80446  21949912.5284   21949921.9664
     -5104.1874
  -1426005.41147  -1055834.50746  21783295.5214   21783304.5714
      -627.4374
  25740082.45743  12648897.84345  24819973.8104   24819988.9314
     -5173.4064
                                  24765996.0834
     -6062.7814
   3318904.67148   2601189.22247  20924714.2314   20924723.9384
     -1167.4374
  13883212.30648  10837636.55947  20991113.4274   20991122.6654
     -2363.8124
   8234305.57146   4749087.46846  22257077.4034   22257088.8684
     -3427.1564
   7582819.52345   3226390.59745  23990983.3104   23990998.3254
     -2981.7504
 01 10  2  0 11 30.0010000  0  8G 2G13G28G 3G 8G27G31G10
   -110479.01246    313406.29946  22920459.3104   22920471.7824
      -465.6254
  28221127.55947  21993866.60846  21964490.8724   21964500.4384
     -5110.4064
  -1416551.75947  -1048467.99146  21785094.8644   21785103.8564
      -633.0474
  25817725.43845  12709398.87645  24834749.9354   24834765.4074
     -5179.0164
   3336443.52848   2614855.87347  20928051.0214   20928060.6464
     -1171.0784
  13918699.13948  10865288.63247  20997866.5674   20997875.8294
     -2367.7504
   8285787.94846   4789203.61046  22266874.1854   22266885.6384
     -3437.1414
   7627609.44845   3261291.82945  23999506.3174   23999521.1694
     -2990.2194
 01 10  2  0 11 45.0010000  0  8G 2G13G28G 3G 8G27G31G10
   -103463.62746    318872.88146  22921792.7474   22921805.5134
      -469.6254
  28297832.14047  22053636.36346  21979086.9744   21979096.5054
     -5116.7194
  -1407012.38047  -1041034.67846  21786909.1774   21786918.4154
      -638.7344
  25895454.33245  12769966.85945  24849540.7634   24849556.9624
     -5184.6874
   3354038.40548   2628566.17847  20931399.4504   20931409.2164
     -1174.7814
  13954246.59748  10892987.94847  21004630.9504   21004640.2594
     -2371.7814
   8337421.69146   4829437.69246  22276699.4894   22276711.1064
     -3447.2194
   7672527.94945   3296293.20745  24008054.2864   24008069.7124
     -2998.7814
 01 10  2  0 12  0.0010000  0  8G 2G13G28G 3G 8G27G31G10
    -96386.57846    324387.51246  22923140.4424   22923152.9504
      -473.8594
  28374632.80547  22113480.97746  21993701.4744   21993711.0994
     -5123.2504
  -1397385.86347  -1033533.46546  21788741.8564   21788750.9784
      -644.6874
  25973270.10644  12830602.52445  24864348.2714   24864365.7824
     -5190.5944
   3371690.58448   2642321.13247  20934758.4424   20934767.9384
     -1178.7194
  13989856.12548  10920735.62947  21011407.2634   21011416.6184
     -2376.0474
   8389207.89846   4869790.57646  22286554.4274   22286566.2204
     -3457.5004
   7717576.21345   3331395.69145  24016626.1694   24016642.3214
     -3007.5314
 01 10  2  0 12 15.0010000  0  8G 2G13G28G 3G 8G27G31G10
    -89247.44946    329950.51946  22924498.2714   22924510.8494
      -477.8444
  28451529.85647  22173400.70846  22008334.8964   22008344.3564
     -5129.5004
  -1387671.66347  -1025963.92346  21790590.5834   21790599.8454
      -650.3754
  26051173.04844  12891306.09545  24879173.3104   24879190.2714
     -5196.2664
   3389400.72748   2656121.25547  20938128.6924   20938138.0604
     -1182.4374
  14025528.26048  10948532.09647  21018195.4584   21018204.8134
     -2380.0624
   8441146.98546   4910262.58246  22296438.2944   22296449.6424
     -3467.5164
   7762754.53845   3366599.56545  24025224.1224   24025239.6654
     -3016.0474
 01 10  2  0 12 30.0010000  0  8G 2G13G28G 3G 8G27G31G10
    -82048.83046    335559.89446  22925869.5994   22925882.6464
      -482.0164
  28528520.25547  22233393.16846  22022985.5444   22022995.1924
     -5135.9224
  -1377872.41147  -1018328.11146  21792455.2084   21792464.4704
      -656.2504
  26129160.17045  12952075.27645  24894013.5914   24894029.9424
     -5202.0474
   3407166.19248   2669964.48747  20941509.3334   20941518.7714
     -1186.3444
  14061260.46948  10976375.36947  21024995.2554   21025004.5634
     -2384.2814
   8493236.07946   4950851.48846  22306351.0994   22306362.4934
     -3477.7344
   7808060.01945   3401902.51345  24033845.1694   24033859.5994
     -3024.7344
 01 10  2  0 12 45.0010000  0  8G 2G13G28G 3G 8G27G31G10
    -74788.87446    341217.03746  22927248.7244   22927261.6064
      -486.0474
  28605605.69447  22293459.69446  22037654.2554   22037663.8214
     -5142.2194
  -1367986.32547  -1010624.64046  21794336.6694   21794345.8844
      -661.9844
  26207232.91244  13012911.20445  24908869.9584   24908886.4154
     -5207.7344
   3424989.04948   2683852.44047  20944900.3024   20944909.8334
     -1190.1254
  14097054.69048  11004266.96747  21031806.8104   21031816.0484
     -2388.3754
   8545476.92746   4991558.64346  22316291.5364   22316302.4854
     -3487.8124
   7853494.41845   3437305.91145  24042491.8334   24042507.3294
     -3033.2814
 01 10  2  0 13  0.0010000  0  8G 2G13G28G 3G 8G27G31G10
    -67467.11846    346922.33346  22928643.6304   22928656.2784
      -490.1874
  28682786.39447  22353600.44646  22052341.6924   22052351.3764
     -5148.5474
  -1358012.87547  -1002853.08846  21796234.5524   21796243.5794
      -667.7974
  26285391.53543  13073814.02045  24923742.3334   24923758.0524
     -5213.4064
   3442869.80448   2697785.51047  20948303.4814   20948313.0954
     -1193.9694
  14132911.49248  11032207.32847  21038629.7554   21038639.0174
     -2392.5314
   8597869.96146   5032384.37246  22326261.3414   22326272.9704
     -3497.9374
   7899058.02545   3472809.97945  24051161.7784   24051176.2204
     -3041.8754
 01 10  2  0 13 15.0010000  0  8G 2G13G28G 3G 8G27G31G10
    -60085.51846    352674.28746  22930046.2394   22930058.8534
      -494.1254
  28760060.13847  22413813.70146  22067046.0994   22067055.6774
     -5154.7344
  -1347954.01347   -995014.98146  21798148.5054   21798157.8134
      -673.4844
  26363633.66443  13134781.90845  24938631.9744   24938647.8454
     -5218.9534
   3460806.62548   2711762.26747  20951716.6694   20951726.0834
     -1197.7034
  14168829.03448  11060195.02147  21045464.8564   21045474.1884
     -2396.5784
   8650413.06046   5073327.04046  22336260.1464   22336271.6224
     -3507.9224
   7944748.77645   3508413.14745  24059856.2394   24059871.1264
     -3050.3444
 01 10  2  0 13 30.0010000  0  8G 2G13G28G 3G 8G27G31G10
    -52642.72046    358473.92546  22931463.6064   22931476.3494
      -498.3754
  28837428.08647  22474100.35746  22081769.1224   22081778.4894
     -5161.1564
  -1337808.29847   -987109.20146  21800078.3724   21800087.6104
      -679.4224
  26441960.32143  13195815.69345  24953537.0834   24953552.9074
     -5224.7344
   3478801.01048   2725783.87947  20955141.2084   20955150.6574
     -1201.6874
  14204808.69248  11088231.10947  21052311.2634   21052320.7124
     -2400.8754
   8703107.46746   5114387.61446  22346287.6614   22346299.6774
     -3518.1564
   7990567.71445   3544116.13145  24068574.9034   24068591.0324
     -3059.0314
 01 10  2  0 13 45.0010000  0  8G 2G13G28G 3G 8G27G31G10
    -45137.69346    364322.04146  22932891.5284   22932903.9784
      -502.3914
  28914891.01647  22534461.02946  22096509.4664   22096519.1494
     -5167.3444
  -1327574.69047   -979134.93046  21802026.5444   21802035.7004
      -685.1564
  26520372.33543  13256915.96045  24968458.8724   24968474.9664
     -5230.2974
   3496853.98348   2739851.14447  20958576.5834   20958585.9854
     -1205.4694
  14240851.67348  11116316.55147  21059170.1694   21059179.5364
     -2404.9694
   8755954.02346   5155566.72646  22356343.9744   22356355.3804
     -3528.1414
   8036515.71745   3579919.73745  24077319.0914   24077333.8024
     -3067.5004
 01 10  2  0 14  0.0010000  0  8G 2G13G28G 3G 8G27G31G10
    -37574.58846    370215.42246  22934331.8804   22934344.2594
      -505.9374
  28992444.58047  22594892.32146  22111267.6384   22111277.3924
     -5173.0314
  -1317257.32347   -971095.40046  21803989.5914   21803998.7124
      -690.3914
  26598865.31843  13318079.32045  24983395.8414   24983413.1304
     -5235.3284
   3514961.66348   2753961.03347  20962022.2244   20962031.7314
     -1208.7814
  14276953.98748  11144448.21347  21066040.2164   21066049.3494
     -2408.5784
   8808948.47946   5196861.10246  22366428.5754   22366440.3564
     -3537.6724
   8082588.55945   3615820.61045  24086085.8724   24086100.2314
     -3075.4694
 01 10  2  0 14 15.0010000  0  8G 2G13G28G 3G 8G27G31G10
    -29952.96346    376154.40446  22935782.3414   22935794.5564
      -510.0784
  29070088.92947  22655394.35546  22126043.2314   22126052.9974
     -5179.3124
  -1306855.90347   -962990.36646  21805968.8334   21805977.8494
      -696.2504
  26677439.18643  13379305.76945  24998347.5364   24998361.6384
     -5240.9534
   3533124.25448   2768113.71547  20965478.4354   20965488.1064
     -1212.7034
  14313116.04248  11172626.42847  21072921.4354   21072930.6494
     -2412.7974
   8862090.94746   5238270.80546  22376541.5674   22376552.8684
     -3547.7814
   8128786.31945   3651818.81745  24094877.3964   24094892.1424
     -3084.0004
 01 10  2  0 14 30.0010000  0  8G 2G13G28G 3G 8G27G31G10
    -22272.77046    382139.01746  22937243.2944   22937255.7204
      -514.1874
  29147823.83247  22715966.94946  22140835.6144   22140845.4274
     -5185.5474
  -1296370.26847   -954819.71246  21807963.9504   21807972.9664
      -702.0624
  26756093.70243  13440594.98145  25013314.8494   25013329.9234
     -5246.5314
   3551342.07248   2782309.43347  20968945.1304   20968954.5564
     -1216.5784
  14349338.01648  11200851.34647  21079814.3804   21079823.7824
     -2417.0164
   8915381.48746   5279795.90446  22386682.2864   22386693.3534
     -3557.8594
   8175108.89645   3687914.28245  24103692.7554   24103707.1264
     -3092.5474
 01 10  2  0 14 45.0010000  0  8G 2G13G28G 3G 8G27G31G10
    -14531.30546    388171.38346  22938716.3254   22938728.5524
      -518.0784
  29225651.88147  22776612.13046  22155645.8024   22155655.9314
     -5191.5624
  -1285797.65847   -946581.28446  21809975.6224   21809984.7314
      -707.6724
  26834831.23643  13501948.85545  25028299.2714   25028314.9544
     -5251.8594
   3569618.01148   2796550.43747  20972423.0604   20972432.6494
     -1220.2664
  14385622.77448  11229125.17147  21086719.1384   21086728.5754
     -2421.0004
   8968822.69146   5321438.39046  22396852.0054   22396863.1884
     -3567.6874
   8221558.86845   3724109.04745  24112532.0134   24112546.0564
     -3100.8444
 01 10  2  0 15  0.0010000  0  8G 2G13G28G 3G 8G27G31G10
     -6727.97647    394251.95646  22940202.4114   22940214.6494
      -522.3914
  29303573.36247  22837330.11046  22170473.6224   22170483.3994
     -5197.9844
  -1275137.53247   -938274.66447  21812004.2314   21812013.4114
      -713.7034
  26913652.13743  13563367.73145  25043297.4744   25043314.6344
     -5257.5944
   3587952.76948   2810837.27047  20975911.6854   20975921.1104
     -1224.3754
  14421970.96548  11257448.43447  21093635.9744   21093645.4354
     -2425.4374
   9022414.92546   5363198.57846  22407049.7004   22407060.4384
     -3577.9534
   8268136.63345   3760403.36445  24121395.1774   24121410.4034
     -3109.5474
 01 10  2  0 15 15.0010000  0  8G 2G13G28G 3G 8G27G31G10
      1136.38646    400380.07846  22941696.9034   22941709.4934
      -526.4534
  29381587.26047  22898120.10346  22185319.3644   22185329.0714
     -5204.1254
  -1264390.64547   -929900.44146  21814049.5834   21814058.5994
      -719.4844
  26992555.32043  13624850.75345  25058312.4194   25058329.2634
     -5263.0784
   3606345.47748   2825169.26247  20979412.3564   20979421.9354
     -1228.2504
  14458381.83148  11285820.53347  21100564.7864   21100574.2354
     -2429.6094
   9076157.17846   5405075.63846  22417276.9114   22417288.2004
     -3587.9374
   8314841.32045   3796796.56845  24130283.0214   24130298.0014
     -3118.0004
 01 10  2  0 15 30.0010000  0  8G 2G13G28G 3G 8G27G31G10
      9061.05846    406555.19646  22943205.4584   22943218.0604
      -530.3594
  29459692.60547  22958981.35646  22200182.2634   22200192.1694
     -5210.1094
  -1253557.72647   -921459.17146  21816111.1304   21816120.4504
      -725.1094
  27071539.66643  13686397.00545  25073342.3494   25073360.6574
     -5268.3754
   3624795.56948   2839545.97847  20982922.6774   20982932.3134
     -1231.9694
  14494854.80348  11314241.02747  21107505.2004   21107514.4744
     -2433.6564
   9130048.56146   5447068.91846  22427531.8414   22427543.1424
     -3597.7664
   8361671.86645   3833287.85745  24139194.8564   24139208.8064
     -3126.2814
 01 10  2  0 15 45.0010000  0  8G 2G13G28G 3G 8G27G31G10
     17042.27346    412774.37846  22944724.3254   22944736.5524
      -533.6254
  29537885.28447  23019910.65146  22215061.9664   22215071.8254
     -5215.4064
  -1242642.47847   -912953.75747  21818188.5364   21818197.9624
      -730.0944
  27150601.15543  13748003.36645  25088387.1534   25088403.9744
     -5273.0004
   3643299.46948   2853964.61247  20986444.0284   20986453.5134
     -1235.0314
  14531386.20448  11342707.04747  21114457.0994   21114466.5134
     -2437.0314
   9184085.22946   5489175.40846  22437814.6924   22437825.8764
     -3606.9374
   8408624.26845   3869874.09845  24148128.8964   24148142.3764
     -3133.8754
 01 10  2  0 16  0.0010000  0  8G 2G13G28G 3G 8G27G31G10
     25080.50046    419037.98446  22946254.2084   22946266.3174
      -538.1094
  29616165.60147  23080908.24546  22229958.2944   22229968.4814
     -5221.9224
  -1231644.47747   -904383.85547  21820280.5524   21820289.8844
      -736.2814
  27229739.84843  13809669.92645  25103445.9274   25103461.3644
     -5278.8124
   3661857.59148   2868425.50347  20989975.3254   20989984.5994
     -1239.3594
  14567976.52948  11371218.98847  21121419.7394   21121429.0954
     -2441.6414
   9238267.41546   5531395.28146  22448125.1924   22448136.6224
     -3617.3124
   8455698.78645   3906555.49245  24157087.2314   24157101.7314
     -3142.7194
 01 10  2  0 16 15.0010000  0  8G 2G13G28G 3G 8G27G31G10
     33182.71946    425351.45346  22947794.7634   22947806.7904
      -542.0944
  29694540.23747  23141979.32446  22244872.4894   22244882.1734
     -5227.9374
  -1220556.63147   -895743.95547  21822390.9504   21822400.2824
      -742.0004
  27308962.48943  13871401.85045  25118523.0214   25118536.5834
     -5284.1094
   3680477.13248   2882934.24947  20993518.6614   20993528.0054
     -1243.1724
  14604632.90348  11399782.39447  21128395.4504   21128404.7474
     -2445.7814
   9292601.95846   5573733.87846  22458464.4584   22458475.7824
     -3627.2034
   8502902.34145   3943337.45445  24166070.1614   24166083.4194
     -3151.0164
 01 10  2  0 16 30.0010000  0  8G 2G13G28G 3G 8G27G31G10
     41347.15446    431713.40846  22949348.4584   22949360.6614
      -546.5164
  29773007.32847  23203122.45946  22259803.8494   22259813.4854
     -5234.3594
  -1209380.85847   -887035.52747  21824517.4114   21824526.6034
      -748.1414
  27388266.95543  13933197.54945  25133613.7784   25133629.4854
     -5289.8284
   3699156.32048   2897489.47847  20997073.1464   20997082.7004
     -1247.4064
  14641353.73548  11428396.02147  21135383.1774   21135392.6034
     -2450.3594
   9347087.01546   5616189.74646  22468832.9424   22468844.7474
     -3637.5004
   8550232.98845   3980218.37845  24175076.8104   24175092.2474
     -3159.7664
 01 10  2  0 16 45.0010000  0  8G 2G13G28G 3G 8G27G31G10
     49575.06946    438124.82946  22950914.9744   22950927.3884
      -550.5314
  29851567.71947  23264338.29246  22274754.0914   22274763.9744
     -5240.3444
  -1198115.71847   -878257.47147  21826660.7944   21826669.9854
      -753.8594
  27467654.18243  13995057.69645  25148720.1924   25148735.8994
     -5295.1094
   3717896.60948   2912092.31547  21000639.0364   21000648.3804
     -1251.2814
  14678140.31048  11457060.88747  21142383.2244   21142392.6494
     -2454.5164
   9401723.61546   5658763.71746  22479230.3414   22479242.1814
     -3647.3594
   8597691.68444   4017199.16045  24184107.8104   24184121.8994
     -3168.0624
 01 10  2  0 17  0.0010000  0  8G 2G13G28G 3G 8G27G31G10
     57863.71846    444583.56846  22952492.2554   22952505.1034
      -554.5004
  29930218.52047  23325624.56546  22289720.5994   22289730.6464
     -5246.2974
  -1186763.99548   -869411.94347  21828822.2944   21828831.3334
      -759.5784
  27547121.20643  14056980.00345  25163842.6304   25163858.7124
     -5300.3754
   3736695.42448   2926740.76347  21004216.4274   21004225.9704
     -1255.1094
  14714990.02548  11485774.94747  21149395.8334   21149405.2004
     -2458.6724
   9456508.89146   5701453.53946  22489655.7244   22489667.0714
     -3657.2194
   8645275.53944   4054277.43545  24193162.3024   24193177.0134
     -3176.3444
 01 10  2  0 17 15.0010000  0  8G 2G13G28G 3G 8G27G31G10
     66212.18546    451088.91646  22954080.3494   22954093.1144
      -558.7034
  30008958.50947  23386980.33846  22304704.3414   22304714.5174
     -5252.4534
  -1175326.63248   -860499.67347  21830998.1464   21831006.9034
      -765.4844
  27626666.67543  14118963.50345  25178980.9814   25178998.3414
     -5305.7974
   3755551.88548   2941434.13247  21007804.5834   21007814.1034
     -1259.1564
  14751902.05048  11514537.56347  21156419.7864   21156429.1534
     -2463.0164
   9511441.82546   5744258.41046  22500108.8494   22500120.3844
     -3667.2504
   8692983.34844   4091452.30645  24202241.3964   24202256.4934
     -3184.7814
 01 10  2  0 17 30.0010000  0  8G 2G13G28G 3G 8G27G31G10
     74623.41747    457643.18046  22955682.2084   22955694.6814
      -562.7344
  30087790.49447  23448407.80246  22319705.5284   22319715.9854
     -5258.4374
  -1163800.64347   -851518.35547  21833191.2944   21833200.0404
      -771.2504
  27706293.27643  14181010.20545  25194131.7634   25194147.7514
     -5311.0004
   3774469.07748   2956174.81347  21011404.6774   21011414.0674
     -1263.0624
  14788879.49548  11543351.14747  21163456.2164   21163465.6534
     -2467.2344
   9566525.19046   5787180.50446  22510590.9504   22510602.3684
     -3677.1254
   8740817.98643   4128725.99645  24211343.3884   24211359.1424
     -3193.0944
 01 10  2  0 17 45.0010000  0  8G 2G13G28G 3G 8G27G31G10
     83095.42247    464244.79746  22957294.2004   22957306.5214
      -566.7974
  30166712.26447  23509905.21846  22334724.2714   22334734.4464
     -5264.3914
  -1152187.93448   -842469.45447  21835401.4744   21835410.1264
      -777.0314
  27785998.72842  14243118.34345  25209298.9114   25209317.5604
     -5316.2664
   3793444.99348   2970961.26247  21015015.5834   21015025.2084
     -1266.9844
  14825920.44848  11572214.23147  21170504.8804   21170514.3064
     -2471.4694
   9621756.77946   5830218.09346  22521101.2554   22521112.3924
     -3687.0004
   8788777.26143   4166096.85345  24220469.8174   24220482.2204
     -3201.3754
 01 10  2  0 18  0.0010000  0  8G 2G13G28G 3G 8G27G31G10
     91627.12946    470892.92746  22958916.3024   22958928.4934
      -570.8914
  30245722.33247  23571471.43846  22349759.8334   22349769.8564
     -5270.4224
  -1140489.66047   -833353.89247  21837627.2164   21837635.8564
      -782.8754
  27865781.58842  14305286.74145  25224481.4354   25224499.1694
     -5321.5624
   3812478.72848   2985792.75447  21018637.4664   21018647.0214
     -1270.9844
  14863023.87648  11601125.98847  21177565.4664   21177574.7744
     -2475.7814
   9677135.40046   5873370.26346  22531638.8644   22531649.8604
     -3696.9374
   8836859.90643   4203563.71445  24229619.6534   24229627.8024
     -3209.7504
 01 10  2  0 18 15.0010000  0  8G 2G13G28G 3G 8G27G31G10
    100222.66346    477590.79846  22960551.9504   22960564.3064
      -574.7974
  30324824.65447  23633109.55146  22364812.2784   22364822.3844
     -5276.1724
  -1128701.60847   -824168.37447  21839869.9894   21839878.8644
      -788.4844
  27945645.73542  14367518.63245  25239678.2084   25239697.5364
     -5326.5784
   3831574.59848   3000672.66647  21022271.6774   21022281.0094
     -1274.7664
  14900194.04948  11630089.76347  21184638.9034   21184648.2004
     -2479.8754
   9732665.10846   5916640.16646  22542205.9034   22542217.0634
     -3706.6414
   8885069.84143   4241129.89845  24238794.4744   24238810.7554
     -3217.8754
 01 10  2  0 18 30.0010000  0  8G 2G13G28G 3G 8G27G31G10
    108876.93746    484334.43946  22962200.0524   22962212.2554
      -578.9694
  30404013.94147  23694815.43446  22379881.5054   22379891.4354
     -5282.2344
  -1116828.84147   -814916.84447  21842129.2554   21842138.2474
      -794.3914
  28025585.72642  14429809.59145  25254891.3174   25254905.8414
     -5331.8754
   3850727.49048   3015597.01347  21025915.9744   21025925.5284
     -1278.7974
  14937425.97148  11659101.64547  21191723.8494   21191733.0284
     -2484.2344
   9788340.59646   5960023.65046  22552801.0524   22552812.1424
     -3716.5944
   8933401.71542   4278791.09844  24247989.9664   24248005.3104
     -3226.2504
 01 10  2  0 18 45.0020000  0  8G 2G13G28G 3G 8G27G31G10
    117590.92646    491124.60746  22963857.9004   22963870.2914
      -582.8124
  30483295.64347  23756593.31346  22394967.9164   22394978.0334
     -5287.9534
  -1104870.30447   -805598.48447  21844405.3544   21844414.2754
      -799.9534
  28105607.02442  14492163.83145  25270119.6354   25270137.7564
     -5336.8754
   3869939.24448   3030567.22947  21029571.8304   21029581.4554
     -1282.5784
  14974722.63848  11688163.97347  21198821.1824   21198830.5374
     -2488.2974
   9844165.73546   6003523.75746  22563423.6274   22563435.1504
     -3726.2344
   8981859.04342   4316549.98544  24257212.6044   24257224.3614
     -3234.2974
 01 10  2  0 19  0.0020000  0  8G 2G13G28G 3G 8G27G31G10
    126363.11647    497960.13646  22965528.0104   22965540.0494
      -586.7974
  30562658.54647  23818434.47846  22410070.5104   22410080.5574
     -5293.7664
  -1092827.88647   -796214.75047  21846696.5494   21846705.4244
      -805.6874
  28185698.22542  14554572.49345  25285360.2294   25285372.6544
     -5341.9374
   3889207.14748   3045581.19347  21033238.3614   21033247.7644
     -1286.4694
  15012078.77048  11717272.65147  21205929.7994   21205939.2014
     -2492.5164
   9900132.51846   6047134.23146  22574074.2834   22574085.8894
     -3736.0004
   9030434.65842   4354401.07645  24266456.4554   24266467.7444
     -3242.4844
 01 10  2  0 19 15.0020000  0  8G 2G13G28G 3G 8G27G31G10
    135199.01047    504845.30446  22967209.4864   22967221.4204
      -591.1724
  30642112.86447  23880346.87046  22425190.1194   22425200.0374
     -5299.9374
  -1080695.84447   -786761.18947  21849005.6504   21849014.4084
      -811.7664
  28265869.34842  14617043.50945  25300615.9084   25300630.7954
     -5347.3444
   3908537.35848   3060643.71447  21036916.9864   21036926.4944
     -1290.7344
  15049502.00048  11746433.60947  21213051.0724   21213060.2994
     -2497.0944
   9956249.47646   6090861.71846  22584752.9084   22584764.2794
     -3746.1094
   9079136.54741   4392350.43944  24275725.2054   24275737.9364
     -3251.0164
 01 10  2  0 19 30.0020000  0  8G 2G13G28G 3G 8G27G31G10
    144097.70247    511779.39146  22968902.7364   22968915.0104
      -595.3124
  30721657.07247  23942329.30046  22440326.7754   22440336.8224
     -5305.9064
  -1068474.97747   -777238.40547  21851330.6504   21851339.5254
      -817.6414
  28346119.03042  14679575.80945  25315886.9554   25315902.5104
     -5352.5474
   3927929.15848   3075754.22247  21040607.0724   21040616.4984
     -1294.8124
  15086991.52248  11775646.21947  21220185.3694   21220194.6434
     -2501.4694
  10012515.53746   6134705.39946  22595460.1504   22595471.3464
     -3756.0004
   9127963.61541   4430397.49344  24285015.6504   24285031.1704
     -3259.2814
 01 10  2  0 19 45.0020000  0  8G 2G13G28G 3G 8G27G31G10
    153057.77846    518761.32546  22970606.7364   22970618.5884
      -599.3754
  30801289.64547  24004380.60446  22455480.4864   22455490.5104
     -5311.7664
  -1056166.77347   -767647.56347  21853672.9004   21853682.0574
      -823.4374
  28426445.63542  14742168.02445  25331173.0494   25331183.7294
     -5357.6564
   3947381.42648   3090911.84947  21044308.6504   21044317.9594
     -1298.8124
  15124545.94648  11804909.40647  21227331.9164   21227341.0494
     -2505.7814
  10068929.16746   6178664.06346  22606194.7364   22606206.8224
     -3765.7974
   9176914.38241   4468541.01444  24294330.1434   24294355.5804
     -3267.5004
 01 10  2  0 20  0.0020000  0  8G 2G13G28G 3G 8G27G31G10
    162078.20846    525790.28546  22972323.4084   22972335.1784
      -603.2194
  30881009.34247  24066499.78546  22470650.5964   22470660.5844
     -5317.3914
  -1043772.21348   -757989.44147  21856032.0964   21856041.2174
      -829.0314
  28506847.77041  14804819.00344  25346472.4794   25346488.8894
     -5362.4844
   3966892.89348   3106115.60347  21048021.5804   21048030.9594
     -1302.5944
  15162164.36048  11834222.45247  21234490.1894   21234499.5104
     -2509.8754
  10125489.09046   6222736.71546  22616958.3614   22616970.0964
     -3775.3754
   9225987.53841   4506779.71944  24303667.9944   24303680.0454
     -3275.4374
 01 10  2  0 20 15.0020000  0  8G 2G13G28G 3G 8G27G31G10
    171155.12747    532863.26546  22974051.5414   22974063.3574
      -607.4374
  30960812.14947  24128683.72946  22485836.4794   22485846.6784
     -5323.3594
  -1031295.05247   -748266.95047  21858405.8774   21858414.6704
      -834.9694
  28587321.29841  14867525.71043  25361785.0884   25361805.2954
     -5367.6724
   3986460.07448   3121362.77247  21051745.0254   21051754.3814
     -1306.7504
  15199843.02948  11863582.45547  21241660.3774   21241669.6864
     -2514.3444
  10182191.25146   6266920.20446  22627747.9084   22627759.3384
     -3785.3124
      6562.07151                  24313029.6974
     -3283.8124
 01 10  2  0 20 30.0020000  0  8G 2G13G28G 3G 8G27G31G10
    180295.92847    539986.01246  22975790.3144   22975802.6584
      -611.2974
  31040705.12247  24190937.93346  22501040.0884   22501050.3224
     -5328.9844
  -1018728.08247   -738474.47847  21860796.6974   21860805.3504
      -840.5784
  28667873.32141  14930293.48444  25377114.8464   25377138.7134
     -5372.5314
   4006090.22948   3136659.01147  21055480.3934   21055489.7014
     -1310.5784
  15237589.48548  11892995.27947  21248843.0334   21248852.3074
     -2518.4844
  10239042.85146   6311220.14846  22638567.0104   22638578.2294
     -3794.8754
     16448.98551                  24322413.8934
     -3292.6564
 01 10  2  0 20 45.0020000  0  8G 2G13G28G 3G 8G27G31G10
    189492.52747    547152.24746  22977540.2754   22977552.3734
      -615.3594
  31120679.87847  24253255.86246  22516258.5334   22516268.9554
     -5334.7664
  -1006079.21047   -728618.18047  21863203.9554   21863212.4674
      -846.3754
  28748495.57841  14993116.12943  25392456.6354   25392474.3694
     -5377.5784
   4025775.64448   3151998.31247  21059226.3854   21059235.9284
     -1314.5944
  15275395.77248  11922454.72747  21256037.5494   21256046.8344
     -2522.8124
  10296035.75446   6355630.19246  22649412.7364   22649423.5334
     -3804.6254
     26376.10751                  24331819.4164
     -3299.8754
 01 10  2  0 21  0.0020000  0  8G 2G13G28G 3G 8G27G31G10
    198753.40646    554368.56046  22979301.2754   22979313.6194
      -619.4224
  31200744.62047  24315643.91246  22531494.4004   22531504.4714
     -5340.5164
   -993340.01348   -718691.50447  21865629.1974   21865637.8144
      -852.1724
  28829196.12141                  25407813.2444
     -5382.5164
   4045524.87848   3167387.34947  21062984.4324   21062994.1044
     -1318.6254
  15313270.52148  11951967.52047  21263244.8854   21263254.0534
     -2527.1414
  10353178.33646   6400156.87146  22660286.8074   22660297.7324

     -3814.3754                   24341253.9084
     -3308.9844
 01 10  2  0 21 15.0020000  0  7G 2G13G28G 3G 8G27G31
    208071.01746    561629.07646  22981074.6434   22981086.6464
      -623.3444
  31280891.52547  24378095.98246  22546745.9004   22546756.3114
     -5346.1564
   -980518.09647   -708700.37847  21868068.7054   21868077.2874
      -857.8444
                                  25423184.7914
     -5387.9534
   4065330.34448   3182820.19447  21066753.2604   21066762.5574
     -1322.5314
  15351206.16948  11981527.75547  21270463.9324   21270473.1234
     -2531.3594
  10410462.64746   6444793.98546  22671187.1434   22671198.3734
     -3823.9534
 01 10  2  0 21 30.0020000  0  6G 2G13G28G 8G27G31
    217447.92346    568935.80746  22982859.0574   22982871.0254
      -627.2344
  31361123.20547  24440614.11246  22562013.5024   22562023.8424
     -5351.7344
   -967610.71147   -698642.64347  21870524.3854   21870533.1784
      -863.4844
   4085194.96048   3198299.13447  21070533.3144   21070542.8344
     -1326.4224
  15389205.58548  12011137.69147  21277694.7604   21277703.9754
     -2535.5624
  10467891.21546   6489543.50046  22682115.5494   22682126.6744
     -3833.5314
 01 10  2  0 21 45.0020000  0  6G 2G13G28G 8G27G31
    226886.77947    576290.81046  22984655.9554   22984668.0184
      -631.2344
  31441441.96847  24503200.10046  22577298.1504   22577308.4904
     -5357.3754
   -954615.24147   -688516.27547  21872997.0414   21873005.9754
      -869.1874
   4105121.43948   3213826.27547  21074325.3304   21074334.7094
     -1330.3914
  15427271.49848  12040799.44347  21284938.3464   21284947.5254
     -2539.8444
  10525466.50246   6534407.35546  22693071.2054   22693082.8344
     -3843.1414
 01 10  2  0 22  0.0020000  0  6G 2G13G28G 8G27G31
    236385.21747    583692.23346  22986463.5574   22986475.4434
      -635.1254
  31521845.12447  24565851.84446  22592597.9244   22592608.1584
     -5362.9224
   -941534.11247   -678323.15847  21875486.3774   21875495.2754
      -874.8284
   4125107.35448   3229399.72547  21078128.7914   21078138.1704
     -1334.2814
  15465401.60048  12070511.21247  21292194.5104   21292203.7014
     -2544.0474
  10583185.86646   6579383.46846  22704055.5104   22704066.8344
     -3852.6564
 01 10  2  0 22 15.0020000  0  6G 2G13G28G 8G27G31
    245942.75446    591139.70446  22988280.2524   22988291.8934
      -639.0624
  31602332.00847  24628568.82846  22607914.1504   22607924.6194
     -5368.5164
   -928367.74447   -668063.62447  21877992.0104   21878001.0024
      -880.5474
   4145152.59548   3245019.40747  21081942.8464   21081952.3774
     -1338.2344
  15503595.50948  12100272.69647  21299462.6504   21299471.8894
     -2548.3284
  10641048.64546   6624471.35246  22715065.9244   22715077.4594
     -3862.2344
 01 10  2  0 22 30.0020000  0  6G 2G13G28G 8G27G31
    255557.12147    598631.48246  22990111.6434   22990123.4944
      -642.9224
  31682900.06247  24691349.07646  22623245.6824   22623256.2214
     -5373.9694
   -915118.32847   -657739.37147  21880513.2054   21880522.2094
      -886.1094
   4165254.70348   3260683.40547  21085768.1744   21085777.7294
     -1342.1094
  15541851.07548  12130082.23147  21306742.2214   21306751.4364
     -2552.5004
  10699052.47546   6669669.12746  22726103.8854   22726115.5964
     -3871.6874
 01 10  2  0 22 45.0020000  0  6G 2G13G28G 8G27G31
    265231.18847    606169.76046  22991952.1974   22991964.0724
      -647.0004
  31763551.94047  24754194.63946  22638593.8544   22638604.1234
     -5379.6414
   -901783.06247   -647348.21847  21883050.5884   21883059.7684
      -891.9374
   4185416.94348   3276394.26247  21089605.0024   21089614.5804
     -1346.2194
  15580171.33248  12159942.17447  21314034.5104   21314043.5494
     -2556.9064
  10757200.06446   6714978.92946  22737168.5104   22737180.0804
     -3881.3594
 01 10  2  0 23  0.0020000  0  6G 2G13G28G 8G27G31
    274959.25847    613750.12346  22993803.7754   22993815.6154
      -650.2664
  31844281.63447  24817100.83046  22653956.2524   22653966.5924
     -5384.4694
   -888367.70947   -636894.66447  21885603.1974   21885612.1894
      -896.9374
   4205633.57848   3292147.50147  21093452.1584   21093461.4794
     -1349.5004
  15618550.58748  12189848.08547  21321337.4164   21321346.5494
     -2560.5004
  10815485.58146   6760396.18846  22748260.1434   22748272.1824
     -3890.2194
 01 10  2  0 23 15.0020000  0  6G 2G13G28G 8G27G31
    284742.45147    621373.43146  22995665.5104   22995677.6434
      -654.4224
  31925090.01147  24880068.33246  22669333.4474   22669343.9044
     -5390.2034
   -874871.14247   -626377.82547  21888171.9714   21888180.8224
      -902.8444
   4225905.86148   3307944.10347  21097310.0804   21097319.2834
     -1353.7034
  15656990.11848  12219800.97047  21328652.5884   21328661.8964
     -2565.0164
  10873909.95046   6805921.66046  22759377.5884   22759389.5804
     -3899.9374
 01 10  2  0 23 30.0020000  0  6G 2G13G28G 8G27G31
    294586.35247    629044.05146  22997538.1504   22997550.4944
      -658.2344
  32005982.46047  24943101.34646  22684726.4864   22684736.9204
     -5395.5784
   -861287.72447   -615793.31747  21890756.4864   21890765.6194
      -908.4064
   4246239.53448   3323788.53447  21101179.2994   21101188.5024
     -1357.5784
  15695495.66848  12249805.29347  21335979.7294   21335988.9904
     -2569.1874
  10932478.57946   6851559.53046  22770523.2834   22770534.8074
     -3909.3284
 01 10  2  0 23 45.0020000  0  6G 2G13G28G 8G27G31
    304488.84746    636760.32846  22999421.9004   22999433.8934
      -662.2344
  32086956.52147  25006197.96146  22700135.9164   22700146.5254
     -5401.1094
   -847619.48947   -605142.71347  21893357.8074   21893366.9754
      -914.1564
   4266632.56048   3339679.22447  21105059.5574   21105068.8774
     -1361.6414
  15734065.18948  12279859.46647  21343319.4474   21343328.7564
     -2573.5474
  10991189.11246   6897308.00346  22781695.5644   22781706.8544
     -3918.8754
 01 10  2  0 24  0.0020000  0  6G 2G13G28G 8G27G31
    314452.94347    644524.61246  23001318.4474   23001330.2294
      -666.1874
  32168015.13547  25069360.44546  22715560.5184   22715570.7644
     -5406.5784
   -833863.49847   -594423.73047  21895975.5184   21895984.4634
      -919.8444
   4287088.11248   3355618.63147  21108952.5254   21108962.0214
     -1365.6414
  15772701.75748  12309965.88547  21350671.5574   21350680.7954
     -2577.8754
  11050044.29946   6943169.16946  22792895.1744   22792906.9204
     -3928.3594
 01 10  2  0 24 15.0020000  0  6G 2G13G28G 8G27G31
    324478.57546    652336.83246  23003225.8464   23003237.9554
      -670.0784
  32249157.77947  25132588.41446  22731001.2684   22731011.8074
     -5411.9694
   -820019.85047   -583636.43747  21898609.4004   21898618.3114
      -925.4844
   4307606.17148   3371606.74547  21112856.7994   21112866.4824
     -1369.6094
  15811405.44048  12340124.59647  21358036.6974   21358045.9004
     -2582.1414
  11109043.92446   6989142.89146  22804122.4244   22804133.9124
     -3937.7814
 01 10  2  0 24 30.0020000  0  6G 2G13G28G 8G27G31
    334562.67547    660194.62546  23005144.9394   23005157.1314
      -674.3914
  32330381.20747  25195879.34146  22746457.6354   22746467.6934
     -5417.7504
   -806091.53547   -572783.17447  21901260.1504   21901268.7914
      -931.5474
   4328183.80848   3387641.28947  21116772.8694   21116782.4004
     -1373.9844
  15850173.25448  12370333.28647  21365414.0804   21365423.1544
     -2586.8284
  11168184.55846   7035226.50146  22815376.6894   22815387.7094
     -3947.5784
 01 10  2  0 24 45.0020000  0  6G 2G13G28G 8G27G31
    344706.66547    668099.06646  23007075.8384   23007088.0294
      -678.4224
  32411686.65147  25259234.16846  22761929.5184   22761939.8574
     -5423.2664
   -792077.10547   -561862.81147  21903927.0964   21903935.7714
      -937.3284
   4348822.60348   3403723.48147  21120700.0024   21120709.3934
     -1378.1254
  15889006.82348  12400593.20747  21372803.7684   21372812.9244
     -2591.2664
  11227467.66946   7081421.11246  22826657.4474   22826668.8654
     -3957.1254
 01 10  2  0 25  0.0020000  0  6G 2G13G28G 8G27G31
    354908.51647    676048.61046  23009018.0804   23009029.9434
      -682.3444
  32493071.75547  25322651.07046  22777416.8774   22777427.2174
     -5428.5944
   -777978.63747   -550876.95847  21906609.3614   21906618.0374
      -942.9694
   4369520.72948   3419851.90647  21124638.7214   21124648.0764
     -1382.1254
  15927904.27848  12430902.90747  21380205.7604   21380214.8344
     -2595.5624
  11286891.07646   7127725.06046  22837965.5104   22837977.0924
     -3966.5164
 01 10  2  0 25 15.0020000  0  6G 2G13G28G 8G27G31
    365170.60147    684045.07346  23010969.5964   23010981.1664
      -686.1874
  32574538.59247  25386131.65846  22792919.5644   22792929.9864
     -5433.9064
   -763793.71748   -539823.74347  21909309.4004   21909318.1584
      -948.5944
   4390280.60348   3436028.44847  21128589.5574   21128598.7604
     -1386.0944
  15966868.04348  12461264.28047  21387620.3224   21387629.5144
     -2599.8444
  11346456.93146   7174139.99346  22849300.8774   22849311.8734
     -3975.8444
 01 10  2  0 25 30.0020000  0  6G 2G13G28G 8G27G31
    375491.09847    692087.06646  23012933.6824   23012945.8034
      -690.1564
  32656085.36847  25449674.52646  22808438.1114   22808449.2254
     -5439.2814
   -749524.15347   -528704.56647  21912024.3544   21912032.9364
      -954.2974
   4411100.68348   3452251.90047  21132551.2914   21132560.4364
     -1390.1724
  16005896.52848  12491676.08247  21395047.3854   21395056.6934
     -2604.2344
  11406163.21646   7220664.38046  22860662.2294   22860673.1894
     -3985.2664
 01 10  2  0 25 45.0020000  0  6G 2G13G28G 8G27G31
    385874.85846    700178.35146  23014908.4554   23014920.9634
      -694.4064
  32737716.58647  25513283.21246  22823971.6044   22823982.3184
     -5444.9534
   -735165.00147   -517515.58747  21914756.9864   21914765.5334
      -960.3124
   4431985.85848   3468526.07447  21136525.4244   21136534.6864
     -1394.5624
  16044994.61148  12522142.11947  21402487.1894   21402496.5804
     -2608.9224
  11466014.58246   7267301.80146  22872052.0644   22872062.9554
     -3994.9844
 01 10  2  0 26  0.0020000  0  6G 2G13G28G 8G27G31
    396321.11947    708318.34246  23016897.4864   23016909.9824
      -698.5624
  32819431.24647  25576956.91046  22839521.3224   22839532.2014
     -5450.4844
   -720717.08248   -506257.43347  21917506.1114   21917514.6464
      -966.2194
   4452935.35848   3484850.37247  21140511.9944   21140521.2684
     -1398.8444
  16084161.70248  12552661.92747  21409940.6114   21409949.8854
     -2613.5004
  11526010.06246   7314051.52546  22883467.9164   22883479.5924
     -4004.5474
 01 10  2  0 26 15.0020000  0  6G 2G13G28G 8G27G31
    406824.18147    716502.58846  23018895.3224   23018907.5254
      -701.9844
  32901223.35947  25640690.95146  22855085.7604   22855096.1464
     -5455.2814
   -706186.15948   -494934.60547  21920271.4944   21920280.0184
      -971.4064
   4473943.84848   3501220.63747  21144509.7604   21144519.2684
     -1402.4374
  16123392.18648  12583231.13347  21417405.9794   21417415.1824
     -2617.3754
  11586143.71846   7360908.90046  22894911.4244   22894922.7254
     -4013.4064
 01 10  2  0 26 30.0020000  0  6G 2G13G28G 8G27G31
    417383.50547    724730.67346  23020906.4864   23020918.1274
      -705.7974
  32983092.22747  25704484.81046  22870665.1434   22870675.8464
     -5460.4534
   -691572.65648   -483547.42647  21923052.4944   21923060.9824
      -976.9534
   4495010.69148   3517636.37547  21148518.5644   21148527.9554
     -1406.3754
  16162685.55348  12613849.33647  21424883.1434   21424892.4164
     -2621.6254
  11646414.75446   7407873.33446  22906381.0644   22906392.8934
     -4022.6094
 01 10  2  0 26 45.0020000  0  6G 2G13G28G 8G27G31
    428000.94547    733004.04446  23022925.9944   23022937.6464
      -709.7974
  33065039.26647  25768339.57546  22886258.7684   22886269.7174
     -5465.7664
   -676874.71648   -472094.45947  21925849.4164   21925857.9044
      -982.7194
   4516138.07048   3534099.27547  21152538.8144   21152548.0764
     -1410.5314
  16202043.84848  12644518.13047  21432372.8774   21432382.0454
     -2626.0944
  11706824.93346   7454946.20046  22917876.7754   22917888.1824
     -4032.0164
 01 10  2  0 27  0.0020000  0  6G 2G13G28G 8G27G31
    438676.31847    741322.57346  23024958.2214   23024969.6154
      -713.5784
  33147063.93547  25832254.83846  22901868.0494   22901878.9634
     -5470.8444
   -662092.60748   -460575.89447  21928662.6664   21928671.2364
      -988.2194
   4537325.69748   3550609.12847  21156571.4164   21156580.8424
     -1414.4844
  16241467.01048  12675237.47347  21439874.6824   21439884.0374
     -2630.3284
  11767373.84946   7502127.16146  22929398.4164   22929410.1394
     -4041.1564
 01 10  2  0 27 15.0020000  0  6G 2G13G28G 8G27G31
    449410.26347    749686.72746  23026999.7994   23027011.2524
      -717.5944
  33229166.78547  25896231.02246  22917491.2604   22917501.8574
     -5476.1724
   -647225.69448   -448991.25847  21931491.3694   21931499.7754
      -993.9844
   4558574.59948   3567166.72347  21160614.7214   21160623.9244
     -1418.6564
  16280955.83148  12706007.97747  21447388.9554   21447398.3114
     -2634.8124
  11828061.92346   7549416.56946  22940947.0184   22940958.7294
     -4050.5474
 01 10  2  0 27 30.0020000  0  6G 2G13G28G 8G27G31
    460204.22247    758097.65046  23029054.1584   23029065.9634
      -721.6414
  33311349.20547  25960269.20546  22933130.5254   22933141.3344
     -5481.5004
   -632272.47748   -437339.36647  21934336.9634   21934345.4394
      -999.7974
   4579886.12148   3583773.10547  21164670.0024   21164679.2644
     -1422.9064
  16320511.84848  12736830.84247  21454916.7134   21454925.8934
     -2639.3594
  11888890.36646   7596815.33746  22952522.9394   22952535.0844
     -4059.9534
 01 10  2  0 27 45.0020000  0  6G 2G13G28G 8G27G31
    471055.62247    766553.32946  23031118.3304   23031130.0414
      -725.0624
  33393608.17647  26024367.04546  22948784.0804   22948794.7604
     -5486.2034
   -617235.54148   -425622.23847  21937198.0024   21937206.5374
     -1004.9844
   4601257.96648   3600426.50247  21168736.7294   21168746.2714
     -1426.5314
  16360132.60748  12767704.15047  21462456.0574   21462465.2014
     -2643.2814
  11949856.41646   7644321.34546  22964123.6894   22964135.9754
     -4068.7194
 01 10  2  0 28  0.0020000  0  6G 2G13G28G 8G27G31
    481958.60647    775049.20246  23033192.9474   23033204.3654
      -728.9064
  33475937.59447  26088519.76746  22964450.6434   22964460.9944
     -5491.2814
   -602120.60647   -413844.32747  21940074.1584   21940082.7874
     -1010.5784
   4622684.48348   3617122.50747  21172814.4164   21172823.9004
     -1430.5784
  16399812.35648  12798623.42947  21470006.8464   21470016.0024
     -2647.6094
  12010954.01346   7691929.85446  22975750.3544   22975761.6894
     -4077.8754
 01 10  2  0 28 15.0020000  0  6G 2G13G28G 8G27G31
    492921.35647    783591.64346  23035279.8774   23035291.5064
      -732.8284
  33558345.33747  26152733.52946  22980132.6664   22980143.3574
     -5496.4374
   -586919.60147   -401999.35847  21942966.7054   21942975.3574
     -1016.2504
   4644173.80748   3633867.44747  21176903.6584   21176912.9204
     -1434.7034
  16439559.36848  12829595.12347  21477570.2754   21477579.5844
     -2652.0314
  12072191.08546   7739647.05446  22987403.3384   22987414.5334
     -4087.1094
 01 10  2  0 28 30.0020000  0  6G 2G13G28G 8G27G31
    503945.73447    792182.10946  23037378.2914   23037389.7914
      -737.0314
  33640833.17647  26217009.70146  22995829.4394   22995840.5414
     -5501.8444
   -571630.64348   -390085.85247  21945876.3304   21945884.7484
     -1022.2034
   4665728.03448   3650662.95247  21181005.0334   21181014.3184
     -1439.1254
  16479375.72248  12860620.84647  21485147.2684   21485156.6114
     -2656.7504
  12133569.37346   7787474.28246  22999082.7754   22999094.1234
     -4096.5944
 01 10  2  0 28 45.0020000  0  6G 2G13G28G 8G27G31
    515028.95047    800818.42146  23039486.1504   23039497.7324
      -740.6874
  33723397.91947  26281345.79046  23011540.8774   23011551.2754
     -5506.7194
   -556256.61048   -378106.05547  21948802.0024   21948810.5144
     -1027.6094
   4687344.38948   3667506.87847  21185118.6044   21185127.7484
     -1443.0004
  16519258.69848  12891698.48547  21492736.6354   21492746.1074
     -2660.9374
  12195085.77446   7835409.13546  23010788.9474   23010800.6824
     -4105.5314
 01 10  2  0 29  0.0020000  0  6G 2G13G28G 8G27G31
    526168.29847    809498.47346  23041606.0494   23041617.7254
      -744.6724
  33806036.66847  26345739.55846  23027266.8224   23027277.7714
     -5511.8914
   -540800.15948   -366062.04547  21951742.8694   21951751.2874
     -1033.3444
   4709020.42348   3684397.31047  21189243.4164   21189252.5964
     -1447.2344
  16559205.72448  12922826.03447  21500338.4084   21500347.6934
     -2665.4534
  12256737.54846   7883449.47546  23022521.3694   23022532.9164
     -4114.7974
 01 10  2  0 29 15.0020000  0  6G 2G13G28G 8G27G31
    537366.56546    818224.42646  23043735.6434   23043747.1894
      -748.6094
  33888752.03147  26410193.01446  23043006.3544   23043017.1394
     -5517.0004
   -525258.58548   -353951.69647  21954700.9474   21954709.5294
     -1039.0474
   4730758.89448   3701336.38647  21193379.7684   21193389.0884
     -1451.4224
  16599219.61348  12954005.68247  21507952.8934   21507961.9434
     -2669.9224
  12318527.07346   7931597.15646  23034279.0644   23034290.8224
     -4124.0004
 01 10  2  0 29 30.0030000  0  6G 2G13G28G 8G27G31
    548623.83547    826996.37546  23045878.4914   23045890.0264
      -752.5474
  33971548.53247  26474709.70046  23058762.8904   23058773.7574
     -5522.0944
   -509631.24948   -341774.51647  21957674.6164   21957683.2694
     -1044.7504
   4752560.90648   3718324.97947  21197528.7654   21197538.0734
     -1455.6254
  16639302.62248  12985239.19347  21515580.2964   21515589.4054
     -2674.4224
  12380457.76346   7979854.83146  23046064.7654   23046077.0504
     -4133.1874
 01 10  2  0 29 45.0030000  0  6G 2G13G28G 8G27G31
    559937.55547    835812.29046  23048031.3584   23048043.0584
      -756.1414
  34054413.91047  26539280.05646  23074531.4134   23074542.1874
     -5526.8284
   -493921.34448   -329533.00847  21960664.1244   21960672.7654
     -1050.1094
   4774422.54948   3735360.04147  21201688.8274   21201698.2414
     -1459.4844
  16679448.51048  13016521.69847  21523220.0464   21523229.3784
     -2678.5784
  12442520.17646   8028215.14246  23057874.4054   23057886.3864
     -4142.0164
 01 10  2  0 30  0.0030000  0  6G 2G13G28G 8G27G31
    571311.84947    844675.41446  23050196.4684   23050207.8394
      -760.1724
  34137356.74547  26603910.77246  23090315.4134   23090326.0814
     -5531.9534
   -478124.54348   -317223.77947  21963669.7414   21963678.1474
     -1055.8754
   4796348.92248   3752445.53847  21205861.1324   21205870.4404
     -1463.7814
  16719663.45848  13047858.01647  21530872.5774   21530881.7224
     -2683.1724
  12504721.57046   8076683.76046  23069711.4684   23069722.8274
     -4151.2504
 01 10  2  0 30 15.0030000  0  6G 2G13G28G 8G27G31
    582744.91247    853584.34046  23052371.9524   23052383.5114
      -764.0314
  34220374.90247  26668600.17546  23106112.7964   23106123.6404
     -5536.9224
   -462242.60548   -304848.21647  21966692.2184   21966700.8474
     -1061.5004
   4818338.24148   3769580.08747  21210045.3514   21210054.7414
     -1467.9224
  16759945.66048  13079246.74747  21538537.9914   21538547.1474
     -2687.5944
  12567059.78146   8125258.99346  23081573.7574   23081585.4444
     -4160.3124
 01 10  2  0 30 30.0030000  0  6G 2G13G28G 8G27G31
    594233.07147    862536.20546  23054558.0544   23054569.6014
      -767.9064
  34303464.63647  26733345.35546  23121924.7334   23121935.5544
     -5541.8914
   -446279.24948   -292409.21147  21969729.6634   21969738.3394
     -1067.1254
   4840387.00948   3786760.95547  21214241.3124   21214250.6674
     -1472.0944
  16800291.58948  13110685.12647  21546215.3274   21546224.4954
     -2692.0474
  12629531.00746   8173937.86046  23093461.8904   23093473.8234
     -4169.3754
 01 10  2  0 30 45.0030000  0  6G 2G13G28G 8G27G31
    605780.08447    871533.92146  23056755.0694   23056766.5584
      -771.7504
  34386629.35247  26798148.95846  23137750.4134   23137761.0934
     -5546.7974
   -430230.81548   -279903.91447  21972783.5304   21972792.0424
     -1072.7194
   4862499.07248   3803991.14747  21218449.3124   21218458.5034
     -1476.2344
  16840705.08848  13142176.16547  21553905.7104   21553915.2414
     -2696.4844
  12692138.74746   8222723.12146  23105375.7264   23105387.0504
     -4178.3914
 01 10  2  0 31  0.0030000  0  6G 2G13G28G 8G27G31
    617384.77847    880576.57446  23058963.7104   23058975.3624
      -775.2974
  34469867.76846  26863009.98746  23153590.1244   23153600.9684
     -5551.3914
   -414098.25448   -267333.06047  21975853.5934   21975862.0694
     -1078.0164
   4884673.49948   3821269.93847  21222668.8974   21222678.0194
     -1480.0944
  16881185.23348  13173719.13247  21561608.9134   21561618.2804
     -2700.6254
  12754881.67746   8271613.71246  23117314.8194   23117326.5774
     -4187.0944
 01 10  2  0 31 15.0030000  0  6G 2G13G28G 8G27G31
    629045.48947    889662.89046  23061182.6554   23061194.2264
      -779.4064
  34553177.67946  26927926.73746  23169442.8514   23169453.6594
     -5556.5474
   -397883.45448   -254698.12647  21978938.8514   21978947.3274
     -1083.8914
   4906908.62848   3838596.02547  21226900.0074   21226909.2804
     -1484.5314
  16921730.37248  13205312.74947  21569324.5624   21569333.7764
     -2705.3444
  12817757.87546   8320608.14846  23129279.7724   23129291.5424
     -4196.3594
 01 10  2  0 31 30.0030000  0  6G 2G13G28G 8G27G31
    640765.33047    898795.26546  23063413.5934   23063425.3624
      -783.4064
  34636562.09846  26992901.54446  23185310.7264   23185321.5224
     -5561.5474
   -381583.07048   -241996.50247  21982040.9294   21982049.5114
     -1089.6564
   4929207.71848   3855971.95247  21231143.6944   21231152.9214
     -1488.8594
  16962343.85248  13236959.61147  21577053.0464   21577062.3314
     -2709.9534
  12880770.32646   8369708.74546  23141271.6164   23141282.8824
     -4205.4694
 01 10  2  0 31 45.0030000  0  6G 2G13G28G 8G27G31
    652544.99347    907974.26346  23065654.4374   23065666.1364
      -787.2504
  34720021.45946  27057934.74646  23201192.5304   23201203.5504
     -5566.3914
   -365196.40148   -229227.64247  21985159.0464   21985167.6874
     -1095.2504
   4951571.77448   3873398.50247  21235399.1554   21235408.4524
     -1493.0474
  17003026.55748  13268660.42147  21584794.7884   21584804.2264
     -2714.4374
  12943919.54346   8418915.93546  23153288.0464   23153299.1944
     -4214.4374
 01 10  2  0 32  0.0030000  0  6G 2G13G28G 8G27G31
    664381.76547    917197.75146  23067906.5304   23067917.7964
      -790.9064
  34803552.82246  27123024.03946  23217088.1404   23217099.4294
     -5571.0474
   -348726.29948   -216393.76347  21988293.6014   21988301.9374
     -1100.6874
   4973998.09048   3890873.56547  21239666.8584   21239676.3784
     -1497.0624
  17043775.80948  13300413.08047  21592549.1324   21592558.4874
     -2718.7194
  13007202.43746   8468227.29046  23165330.0154   23165341.8194
     -4223.2034
 01 10  2  0 32 15.0030000  0  6G 2G13G28G 8G27G31
    676272.23847    926463.10346  23070169.2494   23070180.3974
      -794.5624
  34887152.56846  27188166.63246  23232996.9994   23233008.1364
     -5575.6724
   -332176.07548   -203497.45147  21991442.9134   21991451.2614
     -1106.1094
   4996483.45648   3908394.64747  21243945.6244   21243954.9334
     -1501.0784
  17084588.30348  13332215.03247  21600315.4914   21600324.9524
     -2723.0314
  13070615.40146   8517639.98146  23177397.0854   23177408.6204
     -4231.9374
 01 10  2  0 32 30.0030000  0  6G 2G13G28G 8G27G31
    688219.96347    935773.05946  23072443.1794   23072454.2924
      -798.3284
  34970823.85747  27253364.96346  23248919.6714   23248930.9014
     -5580.3754
   -315542.12848   -190535.91547  21994607.8044   21994616.1754
     -1111.6254
   5019031.55448   3925964.60547  21248236.7494   21248246.0464
     -1505.2034
  17125467.82948  13364069.20647  21608094.6554   21608104.0584
     -2727.4374
  13134161.79746   8567156.65546  23189489.5774   23189500.7844
     -4240.7664
 01 10  2  0 32 45.0030000  0  6G 2G13G28G 8G27G31
    700226.40747    945128.77046  23074727.8044   23074739.1754
      -802.3594
  35054568.01746  27318620.07946  23264855.4994   23264866.0854
     -5585.3444
   -298823.08648   -177508.06347  21997789.1634   21997797.4764
     -1117.4224
   5041643.93048   3943584.65647  21252539.3904   21252548.8394
     -1509.6094
  17166415.89148  13395976.78847  21615886.9994   21615896.4134
     -2732.1254
  13197842.87346   8616778.26746  23201607.9604   23201619.6364
     -4249.8754
 01 10  2  0 33  0.0030000  0  6G 2G13G28G 8G27G31
    712287.28647    954526.90346  23077022.9214   23077034.3274
      -806.0004
  35138380.49846  27383928.44146  23280804.2414   23280815.3084
     -5589.8914
   -282023.31648   -164417.31147  22000986.3044   22000994.6874
     -1122.7974
   5064316.52848   3961251.62947  21256853.5544   21256862.9334
     -1513.6254
  17207428.30648  13427934.51047  21623691.2024   21623700.3354
     -2736.4374
  13261654.03746   8666501.25446  23213751.2104   23213761.9254
     -4258.5314
 01 10  2  0 33 15.0030000  0  6G 2G13G28G 8G27G31
    724406.21047    963970.26446  23079328.4134   23079339.5854
      -809.9374
  35222264.62346  27449292.61346  23296766.8664   23296777.8044
     -5594.7344
   -265139.19648   -151260.82547  22004199.3514   22004207.8974
     -1128.5004
   5087053.08048   3978968.43447  21261180.3124   21261189.6444
     -1517.9694
  17248508.86048  13459945.33047  21631508.3274   21631517.6014
     -2741.0624
  13325598.84946   8716328.37146  23225919.6874   23225930.2964
     -4267.5164
 01 10  2  0 33 30.0030000  0  6G 2G13G28G 8G27G31
    736585.27947    973460.49246  23081646.5774   23081658.0424
      -813.8284
  35306222.37646  27514714.16446  23312743.6324   23312754.5814
     -5599.5164
   -248168.43448   -138036.83347  22007429.0074   22007437.3664
     -1134.1564
   5109855.81348   3996736.81147  21265519.5624   21265528.8234
     -1522.2814
  17289659.87148  13492011.04947  21639339.3044   21639348.7294
     -2745.6414
  13389679.21346   8766261.12746  23238113.5624   23238124.5934
     -4276.4224
 01 10  2  0 33 45.0030000  0  6G 2G13G28G 8G27G31
    748819.46147    982993.66546  23083974.6084   23083986.3084
      -817.4064
  35390248.25146  27580188.79846  23328732.4914   23328743.6164
     -5603.9694
   -231116.20348   -124749.35347  22010673.6714   22010682.0774
     -1139.5004
   5132719.90948   4014553.00147  21269870.3124   21269879.4794
     -1526.2974
  17330876.42048  13524127.84347  21647182.5774   21647192.0384
     -2749.9224
  13453889.84346   8816295.37646  23250331.8044   23250343.6794
     -4285.0164
 01 10  2  0 34  0.0030000  0  6G 2G13G28G 8G27G31
    761109.48447    992570.35246  23086312.8744   23086324.4214
      -821.1414
  35474342.87146  27645717.00246  23344735.7574   23344747.1984
     -5608.5314
   -213981.82048   -111397.85447  22013934.0224   22013942.3004
     -1144.9694
   5155646.18448   4032417.64647  21274233.2264   21274242.4404
     -1530.4374
  17372159.30348  13556296.32647  21655038.4604   21655047.9094
     -2754.3444
  13518231.10046   8866431.39346  23262575.9834   23262587.5424
     -4293.7034
 01 10  2  0 34 15.0030000  0  6G 2G13G28G 8G27G31
    773453.07647   1002188.78346  23088661.7574   23088673.2924
      -824.8284
  35558503.71046  27711296.79546  23360751.0934   23360761.9134
     -5613.0784
   -196767.48748    -97984.06847  22017209.9764   22017218.2884
     -1150.4374
   5178632.43548   4050329.02147  21278607.3824   21278616.6444
     -1534.5624
  17413506.33648  13588514.79147  21662906.3514   21662915.8354
     -2758.7664
  13582700.49646   8916667.30146  23274843.6554   23274854.9564
     -4302.3754
 01 10  2  0 34 30.0030000  0  6G 2G13G28G 8G27G31
    785852.12247   1011850.42246  23091020.4444   23091031.7924
      -828.6254
  35642732.37746  27776929.45346  23376780.4914   23376791.4994
     -5617.6724
   -179471.33948    -84506.51747  22020501.7494   22020510.0034
     -1155.9844
   5201680.79948   4068288.80147  21282993.0544   21283002.4094
     -1538.7974
  17454919.56348  13620784.84147  21670787.0774   21670796.5154
     -2763.2664
  13647299.76746   8967004.39246  23287136.5464   23287147.9524
     -4311.1094
 01 10  2  0 34 45.0030000  0  6G 2G13G28G 8G27G31
    798307.97047   1021556.32846  23093391.2884   23093402.5304
      -832.3284
  35727030.09046  27842615.91446  23392820.6474   23392831.3394
     -5622.1874
   -162091.85448    -70964.03747  22023808.2654   22023816.4254
     -1161.4534
   5224792.76848   4086298.14347  21287391.2494   21287400.5814
     -1542.9694
  17496400.57548  13653107.70547  21678680.6714   21678689.9444
     -2767.7194
  13712030.10546   9017443.61546  23299454.4914   23299465.2184
     -4319.7664
 01 10  2  0 35  0.0030000  0  6G 2G13G28G 8G27G31
    810820.68647   1031306.53846  23095771.5304   23095782.9374
      -836.1724
  35811396.52246  27908355.91746  23408875.1084   23408885.6714
     -5626.8124
   -144629.10748    -57356.68047  22027131.6014   22027139.8664
     -1167.0624
   5247968.60348   4104357.24347  21291801.6474   21291810.8274
     -1547.2974
  17537949.51448  13685483.50347  21686587.2964   21686596.5814
     -2772.2974
  13776891.26546   9067984.76746  23311797.2884   23311808.3544
     -4328.5314
 01 10  2  0 35 15.0030000  0  6G 2G13G28G 8G27G31
    823393.92047   1041103.90946  23098164.6944   23098176.0774
      -840.2344
  35895835.16146  27974152.18046  23424943.1554   23424953.8944
     -5631.6564
   -127079.48548    -43681.62847  22030471.3584   22030479.6834
     -1172.8754
   5271212.04448   4122469.02647  21296224.6084   21296233.7064
     -1551.8284
  17579570.12848  13717915.14847  21694507.4834   21694516.6514
     -2777.1094
  13841886.62446   9118630.50346  23324165.2884   23324176.8474
     -4337.5004
 01 10  2  0 35 30.0030000  0  6G 2G13G28G 8G27G31
    836023.45047   1050945.14946  23100569.4684   23100580.8514
      -843.5624
  35980341.46946  28040001.18146  23441024.8044   23441035.3544
     -5635.7344
   -109447.17648    -29942.13447  22033826.6714   22033834.8544
     -1177.9694
   5294518.98848   4140630.29147  21300659.6944   21300668.8044
     -1555.6414
  17621258.29648  13750399.43347  21702440.3124   21702449.4794
     -2781.1724
  13907011.76946   9169377.35246  23336558.3584   23336569.8124
     -4345.7194
 01 10  2  0 35 45.0030000  0  6G 2G13G28G 8G27G31
    848704.31347   1060826.38946  23102980.7964   23102992.0034
      -847.2974
  36064910.22246  28105898.83746  23457117.1944   23457128.2494
     -5640.1874
    -91737.01048    -16141.97847  22037196.3974   22037204.4404
     -1183.4694
   5317884.69048   4158837.33947  21305105.9054   21305114.9914
     -1559.8754
  17663009.21548  13782932.61647  21710385.2654   21710394.4214
     -2785.6874
  13972261.58746   9220221.35946  23348975.1244   23348985.9214
     -4354.3444
 01 10  2  0 36  0.0030000  0  6G 2G13G28G 8G27G31
    861441.35947   1070751.40946  23105405.6164   23105417.1404
      -851.1254
  36149545.90546  28171848.64946  23473222.8514   23473233.8004
     -5644.7194
    -73944.27848     -2277.48747  22040582.3824   22040590.4254
     -1189.0474
   5341314.08748   4177094.02347  21309564.0464   21309573.3544
     -1564.2194
  17704827.83948  13815518.55647  21718343.2104   21718352.2264
     -2790.2814
  14037640.57646   9271166.02146  23361416.0774   23361427.2144
     -4363.0164
 01 10  2  0 36 15.0030000  0  6G 2G13G28G 8G27G31
    874235.60647   1080721.01046  23107840.6404   23107852.2804
      -854.8594
  36234249.46146  28237851.34546  23489341.6014   23489352.4794
     -5649.1414
    -56067.90548     11652.18947  22043984.5074   22043992.8194
     -1194.5314
   5364808.40248   4195401.30147  21314035.1554   21314044.5464
     -1568.4534
  17746715.39748  13848158.21447  21726313.9604   21726323.0584
     -2794.7974
  14103149.61846   9322212.02746  23373881.9604   23373893.1204
     -4371.5784
 01 10  2  0 36 30.0030000  0  6G 2G13G28G 8G27G31
    887086.78447   1090734.96546  23110286.6554   23110298.2964
      -858.6094
  36319020.37346  28303906.52446  23505473.3194   23505484.6444
     -5653.5944
    -38108.16248     25646.82547  22047401.8354   22047410.2294
     -1200.0624
   5388367.48848   4213759.04347  21318518.6244   21318527.8624
     -1572.7194
  17788671.67948  13880851.42347  21734298.1324   21734307.4054
     -2799.3284
  14168788.22046   9373359.00546  23386372.6554   23386383.7694
     -4380.1874
 01 10  2  0 36 45.0030000  0  6G 2G13G28G 8G27G31
    899993.55847   1100792.24346  23112742.2334   23112753.7694
      -862.4374
  36403857.01946  28370012.92546  23521616.4604   23521627.6674
     -5658.0784
    -20066.47748     39705.30447  22050834.6164   22050843.0114
     -1205.6254
   5411990.10648   4232166.29547  21323013.5464   21323022.7144
     -1577.0784
  17830695.48348  13913597.24147  21742294.9604   21742304.0694
     -2803.9694
  14234554.81646   9424605.68846  23398887.3974   23398898.7574
     -4388.8284
 01 10  2  0 37  0.0030000  0  6G 2G13G28G 8G27G31
    912956.57747   1110893.34146  23115208.8744   23115220.1754
      -866.0474
  36488759.65646  28436170.73846  23537773.1944   23537784.4724
     -5662.3444
     -1942.17248     53828.16247  22054283.9764   22054292.0544
     -1211.0004
   5435677.14548   4250623.74147  21327521.2574   21327530.3194
     -1581.2504
  17872787.60048  13946396.29147  21750304.9134   21750313.9644
     -2808.3914
  14300449.87146   9475952.47446  23411426.8434   23411438.4724
     -4397.2504
 01 10  2  0 37 15.0030000  0  6G 2G13G28G 8G27G31
    925976.23847   1121038.58446  23117685.4294   23117696.5894
      -869.8444
  36573728.55046  28502380.19846  23553941.9684   23553953.8664
     -5666.7974
     16265.22748     68015.77847  22057748.5774   22057756.7264
     -1216.5784
   5459429.06648   4269131.75347  21332041.0544   21332050.1164
     -1585.6254
  17914948.55448  13979248.98347  21758327.8904   21758337.1404
     -2813.0164
  14366473.42746   9527399.37746  23423990.5154   23424002.1904
     -4405.8444
 01 10  2  0 37 30.0030000  0  6G 2G13G28G 8G27G31
    939052.57747   1131227.99146  23120174.5154   23120185.7574
      -873.4694
  36658763.52046  28568641.12846  23570124.4834   23570136.0654
     -5671.0164
     34555.72048     82268.13547  22061228.8664   22061236.8624
     -1221.9534
   5483246.22748   4287690.58847  21336573.0774   21336582.1634
     -1589.8124
  17957178.58448  14012155.49947  21766363.8124   21766373.0854
     -2817.4694
  14432625.28846   9578946.26946  23436579.6554   23436591.0974
     -4414.2194
 01 10  2  0 37 45.0030000  0  6G 2G13G28G 8G27G31
    952184.32847   1141460.57146  23122673.2574   23122684.2534
      -877.3284
  36743862.98646  28634952.32246  23586318.2654   23586329.5074
     -5675.4534
     52928.02648     96584.24847  22064725.2104   22064733.5584
     -1227.5624
   5507127.44648   4306299.35247  21341117.4684   21341126.6714
     -1594.2344
  17999476.57948  14045114.97947  21774413.0224   21774422.3084
     -2822.1564
  14498903.96746   9630591.98846  23449191.8904   23449203.0974
     -4422.8284
 01 10  2  0 38  0.0030000  0  6G 2G13G28G 8G27G31
    965374.34547   1151738.54946  23125182.7024   23125194.2264
      -881.1564
  36829029.56246  28701315.80946  23602525.1474   23602536.4954
     -5679.8914
     71384.94747    110966.29047  22068237.3044   22068245.5224
     -1233.1724
   5531075.70448   4324960.34647  21345674.8664   21345683.9294
     -1598.6724
  18041845.40948  14078129.65047  21782475.3974   21782484.7064
     -2826.8444
  14565312.16346   9682338.62446  23461828.4994   23461840.3394
     -4431.4064
 01 10  2  0 38 15.0030000  0  6G 2G13G28G 8G27G31
    978618.92047   1162059.05146  23127703.3354   23127714.7294
      -884.6874
  36914259.19046  28767728.43246  23618743.6014   23618755.0544
     -5683.9694
     89922.84848    125411.42947  22071764.9134   22071773.1904
     -1238.4534
   5555087.38148   4343670.76347  21350244.0304   21350253.1874
     -1602.7814
  18084281.53948  14111196.76547  21790550.6554   21790560.0694
     -2831.2194
  14631845.84646   9734183.03546  23474489.6874   23474501.6324
     -4439.6564
 01 10  2  0 38 30.0030000  0  6G 2G13G28G 8G27G31
    991912.32447   1172417.59246  23130232.2654   23130243.6124
      -887.9224
  36999546.20146  28834185.77146  23634973.7414   23634985.0654
     -5687.7974
    108536.00848    139915.21747  22075306.8974   22075315.2694
     -1243.4694
   5579157.05648   4362426.37747  21354824.6324   21354833.5774
     -1606.6724
  18126779.46248  14144312.02947  21798637.4684   21798646.9294
     -2835.3444
  14698499.18946   9786120.69546  23487173.6324   23487185.4724
     -4447.6254
 01 10  2  0 38 45.0030000  0  6G 2G13G28G 8G27G31
   1005260.61047   1182818.90646  23132773.0304   23132784.2844
      -891.7814
  37084896.14246  28900692.14846  23651215.1474   23651226.2614
     -5692.1414
    127230.45448    154482.34047  22078864.1944   22078872.3664
     -1249.0624
   5603290.81948   4381231.92347  21359417.0694   21359426.1444
     -1611.1254
  18169345.32348  14177480.23347  21806737.8584   21806747.2844
     -2840.0474
  14765277.91846   9838156.05646  23499881.0624   23499892.4094
     -4456.1414
 01 10  2  0 39  0.0030000  0  6G 2G13G28G 8G27G31
   1018660.93947   1193260.76546  23135322.8514   23135334.1634
      -895.1564
  37170305.81446  28967245.06546  23667468.0154   23667479.2334
     -5696.0314
    146003.29248    169110.55247  22082436.5934   22082444.7654
     -1254.2034
   5627485.93148   4400085.27747  21364021.3194   21364030.3124
     -1615.1414
  18211976.38248  14210699.24147  21814850.3744   21814859.8124
     -2844.3124
  14832178.85946   9890286.66246  23512611.6244   23512622.8784
     -4464.2034
 01 10  2  0 39 15.0030000  0  6G 2G13G28G 8G27G31
   1032117.30147   1203746.29846  23137883.9214   23137894.9874
      -899.0944
  37255779.16446  29033847.59946  23683732.9764   23683744.1014
     -5700.4844
    164858.52448    183802.96047  22086024.7724   22086032.7924
     -1259.8914
   5651746.62648   4418989.73347  21368637.3044   21368646.3434
     -1619.6874
  18254676.74248  14243972.25047  21822975.8584   21822985.2264
     -2849.1414
  14899205.75046   9942515.38546  23525366.8904   23525378.7184
     -4472.7814
 01 10  2  0 39 30.0030000  0  6G 2G13G28G 8G27G31
   1045628.65547   1214274.67546  23140453.9054   23140464.9724
      -902.4844
  37341314.78946  29100498.63946  23700009.4604   23700020.9014
     -5704.3594
    183795.06448    198558.72947  22089627.9134   22089635.9794
     -1265.0314
   5676071.98748   4437944.57847  21373266.8124   21373275.8744
     -1623.7504
  18297445.51648  14277298.56547  21831114.5384   21831123.8824
     -2853.4374
  14966357.37046   9994841.30946  23538145.3274   23538156.7574
     -4480.8284
 01 10  2  0 39 45.0030000  0  6G 2G13G28G 8G27G31
   1059194.04447   1224845.16046  23143035.9054   23143046.7494
      -906.1564
  37426911.61246  29167197.38846  23716298.7494   23716310.3544
     -5708.4694
    202812.04548    213377.18547  22093247.0154   22093255.3044
     -1270.4694
   5700461.21648   4456949.18747  21377907.7264   21377916.6364
     -1628.0784
  18340281.91048  14310677.57347  21839265.8514   21839275.1474
     -2858.0164
  15033632.62446  10047263.58846  23550946.9054   23550958.0894
     -4489.1254
 01 10  2  0 40  0.0030000  0  6G 2G13G28G 8G27G31
   1072807.15747   1235452.82646  23145626.2964   23145637.1514
      -909.1874
  37512563.03346  29233938.66746  23732596.6714   23732608.3004
     -5711.9694
    221903.26248    228253.48047  22096879.8744   22096888.2104
     -1275.2814
   5724908.24948   4475998.83647  21382559.9764   21382568.9214
     -1631.7814
  18383179.82848  14344104.52347  21847429.2104   21847438.4484
     -2861.9694
  15101024.86746  10099777.01946  23563771.7334   23563783.3864
     -4496.7664
 01 10  2  0 40 15.0030000  0  6G 2G13G28G 8G27G31
   1086475.11747   1246103.22846  23148227.2884   23148238.3434
      -913.1564
  37598275.79046  29300727.76346  23748908.0464   23748919.8974
     -5716.3594
    241075.68648    243193.05847  22100528.3514   22100536.6754
     -1281.0004
   5749420.27948   4495099.14047  21387224.2024   21387233.2534
     -1636.4374
  18426146.36648  14377584.94747  21855605.3354   21855614.5624
     -2866.8594
  15168540.90946  10152386.90246  23576619.2024   23576631.2534
     -4505.3284
 01 10  2  0 40 30.0040000  0  6G 2G13G28G 8G27G31
   1100200.18447   1256798.12846  23150838.4574   23150849.4654
      -916.6564
  37684056.72146  29367569.97946  23765231.8714   23765243.8634
     -5720.2814
    260331.93447    258197.95447  22104192.2544   22104200.5904
     -1286.2664
   5774000.45148   4514252.54047  21391901.5354   21391910.5394
     -1640.6254
  18469185.90748  14411122.25147  21863795.4734   21863804.7234
     -2871.2974
  15236186.49746  10205097.73546  23589491.8164   23589503.8674
     -4513.4224
 01 10  2  0 40 45.0040000  0  6G 2G13G28G 8G27G31
   1113979.49047   1267535.29846  23153461.3874   23153472.5704
      -920.4844
  37769893.15646  29434455.42646  23781567.0594   23781578.6994
     -5724.4694
    279668.45148    273265.39647  22107872.2624   22107880.4344
     -1291.8284
   5798644.71648   4533455.88247  21396591.3484   21396600.4104
     -1645.1724
  18512291.88048  14444711.32847  21871998.2154   21872007.5594
     -2876.0624
  15303951.34146  10257901.49046  23602386.8554   23602399.2694
     -4521.7974
 01 10  2  0 41  0.0040000  0  6G 2G13G28G 8G27G31
   1127813.77947   1278315.30846  23156093.4414   23156104.7894
      -924.1874
  37855790.28846  29501388.18746  23797911.8324   23797924.0354
     -5728.5784
    299086.25648    288396.18647  22111567.1684   22111575.3634
     -1297.3124
   5823354.66348   4552710.39847  21401293.7074   21401302.8284
     -1649.5944
  18555467.07748  14478354.34447  21880214.4734   21880223.6994
     -2880.7344
  15371839.49646  10310801.33446  23615305.8554   23615317.7544
     -4530.0624
 01 10  2  0 41 15.0040000  0  6G 2G13G28G 8G27G31
   1141703.75047   1289138.71546  23158736.7234   23158747.8834
      -927.8124
  37941748.69146  29568368.66846  23814269.9734   23814282.0234
     -5732.5474
    318586.12848    303590.92347  22115278.3404   22115286.5474
     -1302.6874
   5848131.10948   4572016.74147  21406008.1454   21406017.2304
     -1653.9374
  18598712.35648  14512051.96747  21888443.7464   21888452.9264
     -2885.3124
  15439851.38146  10363797.60046  23628248.9884   23628259.9844
     -4538.2034
 01 10  2  0 41 30.0040000  0  6G 2G13G28G 8G27G31
   1155646.42647   1300003.18146  23161389.8324   23161400.8524
      -931.2814
  38027765.21946  29635394.44646  23830637.6684   23830649.3324
     -5736.3914
    338165.04448    318847.25147  22119003.7074   22119011.7274
     -1307.9064
   5872971.11248   4591372.60647  21410735.5124   21410744.6804
     -1658.1564
  18642024.87548  14545801.98547  21896685.7854   21896695.0004
     -2889.7664
  15507983.93146  10416887.89846  23641213.2624   23641225.2194
     -4546.2034
 01 10  2  0 41 45.0040000  0  6G 2G13G28G 8G27G31
   1169647.45347   1310913.12046  23164054.6214   23164065.5234
      -935.4224
  38113845.11646  29702469.61046  23847018.3554   23847029.9734
     -5740.8444
    357828.63148    334169.55447  22122745.5594   22122753.6134
     -1313.8124
   5897880.62948   4610782.63947  21415475.3714   21415484.4104
     -1663.0314
  18685410.39348  14579608.88947  21904941.9574   21904951.2304
     -2894.8914
  15576242.34846  10470076.23946  23654202.5664   23654214.6524
     -4554.8444
 01 10  2  0 42  0.0040000  0  6G 2G13G28G 8G27G31
   1183704.01247   1321866.33646  23166729.5274   23166740.3364
      -938.8914
  38199985.32546  29769591.77546  23863410.2854   23863422.0194
     -5744.6094
    377574.17248    349555.71747  22126502.7074   22126510.8324
     -1319.0314
   5922856.90048   4630244.69047  21420228.1134   21420237.1644
     -1667.2504
  18728866.29448  14613470.63247  21913211.1054   21913220.4734
     -2899.3444
  15644623.66646  10523360.37646  23667215.5124   23667226.8944
     -4562.7814
 01 10  2  0 42 15.0040000  0  6G 2G13G28G 8G27G31
   1197814.10547   1332861.25246  23169413.7234   23169424.5084
      -942.4534
  38286183.65146  29836759.21646  23879814.0664   23879825.6604
     -5748.4844
    397399.47248    365004.02647  22130275.6684   22130283.9574
     -1324.3444
   5947898.12348   4649757.33947  21424993.4264   21425002.4184
     -1671.5944
  18772390.63648  14647385.70947  21921493.3794   21921502.9224
     -2903.9064
  15713125.61746  10576738.50546  23680250.0744   23680261.8204
     -4570.8124
 01 10  2  0 42 30.0040000  0  6G 2G13G28G 8G27G31
   1211980.17647   1343899.79746  23172109.9884   23172120.8444
      -945.9694
  38372442.26746  29903973.63246  23896227.3244   23896239.0354
     -5752.2974
    417307.12048    380516.51347  22134063.9414   22134072.1604
     -1329.6414
   5973006.95948   4669322.68547  21429771.2624   21429780.3014
     -1675.8754
  18815986.08448  14681356.19647  21929789.3484   21929798.7854
     -2908.4374
  15781750.47246  10630212.38546  23693309.7774   23693321.1724
     -4578.7974
 01 10  2  0 42 45.0040000  0  6G 2G13G28G 8G27G31
   1226198.85247   1354979.33746  23174815.9654   23174827.0194
      -949.7814
  38458757.56546  29971232.24646  23912653.2934   23912665.5084
     -5756.3444
    437293.80648    396090.58447  22137866.7934   22137874.9184
     -1335.1874
   5998180.36848   4688938.34247  21434561.7234   21434570.8094
     -1680.4844
  18859649.34848  14715379.52047  21938098.2074   21938107.4804
     -2913.2664
  15850494.60546  10683779.22646  23706391.5984   23706403.1334
     -4587.0164
 01 10  2  0 43  0.0040000  0  6G 2G13G28G 8G27G31
   1240471.07947   1366100.60046  23177531.4964   23177542.3754
      -953.1414
  38545130.08046  30038535.42246  23929089.3094   23929100.8324
     -5759.9534
    457360.34148    411726.88147  22141685.7234   22141693.9774
     -1340.2974
   6023419.21048   4708604.99047  21439364.4964   21439373.6294
     -1684.6564
  18903381.52748  14749456.54547  21946420.3404   21946429.4374
     -2917.6564
  15919358.61646  10737439.48446  23719495.1844   23719507.0824
     -4594.7974
 01 10  2  0 43 15.0040000  0  6G 2G13G28G 8G27G31
   1254796.03447   1377262.93746  23180257.2074   23180268.1684
      -956.8914
  38631558.89346  30105882.46446  23945535.7074   23945547.1954
     -5763.9374
    477505.92748    427424.76947  22145519.5664   22145527.6684
     -1345.8124
   6048722.86448   4728322.14247  21444179.7074   21444188.7114
     -1689.2034
  18947181.89948  14783586.70947  21954755.1134   21954764.2234
     -2922.4374
  15988341.50046  10791192.35646  23732622.4574   23732633.9104
     -4602.9534
 01 10  2  0 43 30.0040000  0  6G 2G13G28G 8G27G31
   1269176.93647   1388468.87546  23182993.7304   23183004.7274
      -960.4534
  38718046.86246  30173275.60746  23961994.4884   23962006.0704
     -5767.6874
    497733.82848    443186.80547  22149368.2694   22149376.3484
     -1351.1254
   6074094.72948   4748092.44147  21449007.5594   21449016.5044
     -1693.6254
  18991053.81448  14817772.62247  21963103.4884   21963112.7854
     -2927.0314
  16057446.24446  10845040.19546  23745772.9104   23745784.4694
     -4610.9064
 01 10  2  0 43 45.0040000  0  6G 2G13G28G 8G27G31
   1283612.94247   1399717.76346  23185741.1684   23185752.3284
      -964.3754
  38804592.93146  30240714.01446  23978464.1524   23978476.0624
     -5771.8124
    518043.07048    459012.21147  22153232.6444   22153240.7934
     -1356.7974
   6099534.14548   4767915.38047  21453848.4884   21453857.4454
     -1698.3594
  19034996.56448  14852013.73047  21971465.7934   21971474.9494
     -2932.0314
  16126671.71746  10898982.11846  23758945.9414   23758957.7694
     -4619.1874
 01 10  2  0 44  0.0040000  0  6G 2G13G28G 8G27G31
   1298101.98147   1411007.96146  23188497.9654   23188509.0904
      -967.8124
  38891194.78246  30308195.88746  23994942.9024   23994954.8944
     -5775.4224
    538431.62248    474899.43147  22157113.0434   22157121.2504
     -1361.9844
   6125039.26248   4787789.51247  21458702.0824   21458711.1684
     -1702.6254
  19079008.23648  14886308.54647  21979840.7384   21979849.9884
     -2936.5164
  16196015.52346  10953016.23546  23772141.7304   23772153.2424
     -4626.9694
 01 10  2  0 44 15.0040000  0  6G 2G13G28G 8G27G31
   1312649.52347   1422343.75046  23191266.5434   23191277.8444
      -971.6254
  38977857.72646  30375725.36746  24011434.2464   24011446.0984
     -5779.4064
    558904.94947    490852.70647  22161008.4414   22161016.6484
     -1367.5314
   6150615.64948   4807719.18247  21463569.2624   21463578.2894
     -1707.3124
  19123094.51648  14920661.50247  21988230.2384   21988239.4654
     -2941.4064
  16265482.93846  11007146.68046  23785361.1844   23785372.8714
     -4635.1094
 01 10  2  0 44 30.0040000  0  6G 2G13G28G 8G27G31
   1327253.08447   1433723.19046  23194044.3554   23194055.6564
      -975.4064
  39064578.94546  30443300.26646  24027936.8794   24027949.0004
     -5783.3444
    579460.61448    506870.13147  22164920.4804   22164928.4064
     -1373.0944
   6176261.03448   4827702.61947  21468449.1134   21468458.1294
     -1711.9844
  19167252.99848  14955070.70447  21996633.2544   21996642.5164
     -2946.2814
  16335071.22046  11061371.27546  23798603.5124   23798615.3054
     -4643.2194
 01 10  2  0 44 45.0040000  0  6G 2G13G28G 8G27G31
   1341910.79847   1445144.82746  23196834.9494   23196846.4144
      -978.9534
  39151356.29946  30510918.92046  24044450.5514   24044462.4844
     -5786.9844
    600096.74148    522950.26147  22168847.4734   22168855.4574
     -1378.3914
   6201973.60548   4847738.40447  21473342.1134   21473351.2114
     -1716.3754
  19211481.97448  14989534.85147  22005049.8944   22005059.1564
     -2950.9064
  16404778.19946  11115688.39046  23811868.4654   23811880.0594
     -4651.0474
 01 10  2  0 45  0.0040000  0  6G 2G13G28G 8G27G31
   1356616.81147   1456604.09346  23199633.1604   23199644.5084
      -982.5314
  39238183.71746  30578576.58546  24060973.3014   24060985.4804
     -5790.6724
    620807.50948    539088.55247  22172788.3014   22172796.1564
     -1383.7344
   6227747.74948   4867822.16647  21478246.8484   21478255.8634
     -1720.8594
  19255775.71248  15024049.45747  22013478.6444   22013487.8014
     -2955.6094
  16474597.80446  11170093.26546  23825154.2074   23825165.5314
     -4658.9224
 01 10  2  0 45 15.0040000  0  6G 2G13G28G 8G27G31
   1371383.24347   1468110.44346  23202443.2154   23202454.5274
      -986.2504
  39325073.03246  30646282.45746  24077508.7544   24077519.9494
     -5794.4844
    641605.00348    555294.42547  22176746.0194   22176753.9344
     -1389.2034
   6253595.63248   4887963.38747  21483165.3944   21483174.2934
     -1725.4694
  19300146.49248  15058624.09147  22021921.8164   22021930.9024
     -2960.4374
  16544541.93946  11224595.17746  23838463.7624   23838475.2504
     -4666.8914
 01 10  2  0 45 30.0040000  0  6G 2G13G28G 8G27G31
   1386203.21547   1479658.51646  23205262.8794   23205274.0044
      -989.7974
  39412017.06446  30714030.98146  24094053.1294   24094064.9344
     -5798.1094
    662482.36248    571562.52847  22180719.1214   22180726.9884
     -1394.5164
   6279510.76148   4908157.01347  21488096.8714   21488105.6994
     -1729.9374
  19344587.58948  15093253.52147  22030378.8244   22030387.9924
     -2965.1094
  16614603.44746  11279188.53746  23851795.9964   23851808.2814
     -4674.6874
 01 10  2  0 45 45.0040000  0  7G 2G13G28G 7G 8G27G31
   1401072.81447   1491245.25646  23208092.2694   23208103.3014
      -992.9534
  39499011.76846  30781818.98746  24110607.8484   24110620.2034
     -5801.3124
    683435.53247    587889.70447  22184705.8794   22184713.8984
     -1399.3914
     -2248.07452                  25697673.5354
      1124.1884
   6305489.38248   4928400.10847  21493040.7774   21493049.5704
     -1734.0164
  19389095.19448  15127934.77747  22038848.7624   22038857.8484
     -2969.3754
  16684778.22446  11333870.14946  23865150.1134   23865162.1294
     -4682.0624
 01 10  2  0 46  0.0040000  0  7G 2G13G28G 7G 8G27G31
   1415994.32847   1502872.45246  23210932.1604   23210943.3444
      -996.9374
  39586059.19246  30849648.05046  24127172.3794   24127184.2774
     -5805.3444
    704466.81647    604277.74447  22188708.0984   22188716.3054
     -1405.1254
    -19109.79542                  25694464.3014
      1123.6724
   6331533.71648   4948694.40447  21497996.7464   21498005.5274
     -1738.9374
  19433671.74548  15162669.75047  22047330.8714   22047339.9804
     -2974.5164
  16755068.21646  11388641.56746  23878525.4574   23878537.8244
     -4690.2814
 01 10  2  0 46 15.0040000  0  7G 2G13G28G 7G 8G27G31
   1430975.41047   1514546.05846  23213782.3404   23213793.3124
     -1000.5474
  39673166.62246  30917523.89646  24143748.0044   24143760.1024
     -5808.9844
    725583.82147    620732.59047  22192726.0124   22192734.1604
     -1410.4844
    -35963.78843                  25691256.8404
      1123.5004
   6357651.77148   4969046.15547  21502966.7154   21502975.7074
     -1743.4694
  19478324.98948  15197464.49247  22055828.0434   22055837.2114
     -2979.2664
  16825480.74546  11443508.45446  23891925.1994   23891937.4734
     -4698.0624
 01 10  2  0 46 30.0040000  0  7G 2G13G28G 7G 8G27G31
   1446014.32447   1526264.73646  23216645.0744   23216655.7424
     -1004.3594
  39760331.83546  30985444.75546  24160335.2074   24160347.1174
     -5812.7504
    746784.86948    637252.91347  22196761.1524   22196769.3244
     -1416.0314
    -52811.67743                  25688050.5194
      1123.1564
   6383841.83948   4989454.01447  21507950.5824   21507959.6094
     -1748.2344
  19523053.32148  15232317.73947  22064339.7774   22064349.1444
     -2984.2194
  16896013.81646  11498469.27646  23905347.1844   23905359.1174
     -4706.0474
 01 10  2  0 46 45.0040000  0  7G 2G13G28G 7G 8G27G31
   1461108.48847   1538026.45846  23219516.1604   23219526.7114
     -1008.2034
  39847552.25646  31053408.63546  24176932.3014   24176944.9264
     -5816.6254
    768067.46648    653836.78347  22200810.5664   22200818.6334
     -1421.6564
    -69655.57743                  25684845.1604
      1122.7034
   6410101.67948   5009916.24147  21512947.3164   21512956.2624
     -1753.0624
  19567854.31348  15267227.60247  22072865.3554   22072874.5474
     -2989.2504
  16966664.73246  11553521.93046  23918791.3404   23918803.2854
     -4714.0624
 01 10  2  0 47  0.0040000  0  7G 2G13G28G 7G 8G27G31
   1476257.86047   1549831.20246  23222399.5514   23222410.1604
     -1011.6094
  39934827.70846  31121415.40246  24193540.5904   24193552.4774
     -5820.0004
    789431.40348    670484.03747  22204876.5434   22204884.3524
     -1426.7974
    -86495.15043      -874.13755  25681639.5904   25681656.9844
      1122.6884
   6436431.17348   5030432.75047  21517957.8404   21517966.7384
     -1757.4534
  19612728.13848  15302194.22247  22081404.4264   22081413.6174
     -2993.8284
  17037433.20046  11608666.17046  23932257.5904   23932269.3944
     -4721.6254
 01 10  2  0 47 15.0040000  0  7G 2G13G28G 7G 8G27G31
   1491459.82047   1561676.92046  23225292.0744   23225302.7194
     -1015.2504
  40022155.21046  31189462.73546  24210159.2384   24210171.8054
     -5823.5944
    810874.05648    687192.62447  22208956.8794   22208964.5354
     -1432.1724
   -103332.75744    -13994.20045  25678436.2544   25678454.9264
      1122.3914
   6462828.04048   5051001.73847  21522980.9414   21522989.8984
     -1762.0784
  19657672.21548  15337215.58047  22089956.8404   22089966.1484
     -2998.6564
  17108316.34146  11663899.78346  23945746.7854   23945758.1094
     -4729.4064
 01 10  2  0 47 30.0040000  0  7G 2G13G28G 7G 8G27G31
   1506715.12847   1573564.22346  23228195.8634   23228206.8124
     -1018.9534
  40109535.31546  31257551.05346  24226787.5984   24226799.8244
     -5827.2504
    832396.34248    703963.26447  22213052.1844   22213060.0514
     -1437.6414
   -120167.24443    -27111.79945  25675232.5434   25675251.4374
      1122.0314
   6489293.20248   5071623.95647  21528016.9184   21528026.1334
     -1766.7814
  19702687.49148  15372292.42547  22098523.0984   22098532.5594
     -3003.5624
  17179314.62646  11719223.10646  23959257.0594   23959268.5474
     -4737.2194
 01 10  2  0 47 45.0040000  0  7G 2G13G28G 7G 8G27G31
   1522026.31247   1585495.04946  23231108.8944   23231119.9614
     -1022.5474
  40196970.30246  31325682.13146  24243425.6914   24243437.4144
     -5830.7344
    854000.76248    720797.90447  22217163.1214   22217171.1524
     -1442.9534
   -136995.65743    -40224.70145  25672030.1994   25672048.8244
      1121.7664
   6515829.36048   5092301.50347  21533066.4884   21533075.6914
     -1771.3754
  19747776.70548  15407426.88047  22107103.1844   22107112.5514
     -3008.3284
  17250430.40846  11774637.98246  23972790.2934   23972801.7694
     -4744.8754
 01 10  2  0 48  0.0040000  0  7G 2G13G28G 7G 8G27G31
   1537390.56447   1597467.24246  23234032.6294   23234043.6024
     -1026.2034
  40284456.98246  31393853.50146  24260074.0594   24260085.7344
     -5834.2974
    875684.39147    737694.26847  22221289.2854   22221297.3284
     -1448.3594
   -153820.59343    -53334.83745  25668829.0044   25668847.5704
      1121.3754
   6542433.90948   5113032.33047  21538129.6054   21538138.6214
     -1776.0624
  19792937.11548  15442616.81247  22115697.0354   22115706.3444
     -3013.2194
  17321660.53846  11830141.97646  23986344.7074   23986356.0904
     -4752.6254
 01 10  2  0 48 15.0040000  0  7G 2G13G28G 7G 8G27G31
   1552808.17547   1609480.99546  23236966.4344   23236977.4414
     -1029.8124
  40371995.29846  31462065.09246  24276731.1134   24276743.4224
     -5837.8124
    897447.50948    754652.56647  22225430.8714   22225438.9964
     -1453.7034
   -170641.37743    -66441.73345  25665627.6444   25665645.9064
      1121.0474
   6569107.29848   5133816.80247  21543205.0514   21543214.0904
     -1780.7194
  19838169.11748  15477862.52847  22124304.2304   22124313.4454
     -3018.0474
  17393005.01646  11885735.05946  23999920.9964   23999932.9064
     -4760.2974
 01 10  2  0 48 30.0040000  0  7G 2G13G28G 7G 8G27G31
   1568281.79047   1621538.39246  23239911.6994   23239922.6374
     -1033.3594
  40459587.86246  31530318.94546  24293400.3404   24293412.7194
     -5841.2034
    919292.68648    771674.80947  22229588.3484   22229596.5664
     -1459.0004
   -187455.01743    -79543.13845  25662427.8164   25662446.4654
      1120.7504
   6595852.16648   5154656.96747  21548294.5434   21548303.5234
     -1785.2974
  19883475.53948  15513166.23547  22132925.9344   22132935.1254
     -3022.8124
  17464466.23446  11941419.10546  24013519.3874   24013531.7544
     -4767.8754
 01 10  2  0 48 45.0040000  0  7G 2G13G28G 7G 8G27G31
   1583809.27347   1633637.76746  23242866.2234   23242877.1724
     -1036.8594
  40547232.25946  31598613.22646  24310077.6604   24310090.1444
     -5844.5624
    941217.89848    788759.42447  22233760.3094   22233768.2814
     -1464.2344
   -204263.25944    -92640.29345  25659229.0044   25659247.3834
      1120.4694
   6622666.80548   5175551.50547  21553397.0904   21553406.1874
     -1789.8444
  19928854.33848  15548526.33647  22141561.2464   22141570.5434
     -3027.5474
  17536041.77446  11997192.22646  24027139.6844   24027152.1564
     -4775.3914
 01 10  2  0 49  0.0040000  0  7G 2G13G28G 7G 8G27G31
   1599389.63847   1645778.34746  23245829.7774   23245840.5624
     -1040.5004
  40634927.21346  31666946.87646  24326765.6294   24326778.0194
     -5848.0624
    963222.14048    805905.60847  22237947.6374   22237955.5274
     -1469.6254
   -221066.87244   -105733.85245  25656031.5904   25656051.0704
      1120.0474
   6649550.28848   5196499.69147  21558513.1054   21558522.2034
     -1794.5624
  19974304.67348  15583942.18147  22150209.8794   22150219.2694
     -3032.4694
  17607730.33546  12053053.42546  24040781.5434   24040793.7934
     -4783.0474
 01 10  2  0 49 15.0040000  0  7G 2G13G28G 7G 8G27G31
   1615023.61547   1657960.70046  23248805.0744   23248815.9304
     -1044.1414
  40722673.03246  31735320.18246  24343463.0594   24343475.3914
     -5851.5004
    985306.02147    823113.85447  22242149.4734   22242157.4454
     -1475.0004
   -237864.78244   -118822.91145  25652835.3794   25652854.3324
      1119.5634
   6676503.44148   5217502.16147  21563642.2234   21563651.2154
     -1799.3124
  20019827.43348  15619414.46247  22158872.8484   22158882.2854
     -3037.3594
  17679532.32246  12109003.02246  24054446.1294   24054457.8984
     -4790.6564
 01 10  2  0 49 30.0040000  0  7G 2G13G28G 7G 8G27G31
   1630709.79347   1670183.73846  23251790.1914   23251800.8944
     -1047.5784
  40810468.40946  31803732.07446  24360171.7234   24360184.0314
     -5854.7504
   1007468.25648    840383.15547  22246367.4104   22246375.4534
     -1480.1874
   -254658.03644   -131908.38545  25649639.1764   25649657.7664
      1119.2974
   6703525.16548   5238558.05747  21568784.0274   21568792.9144
     -1803.8124
  20065421.47148  15654942.27847  22167549.0274   22167558.2894
     -3042.0624
  17751446.20346  12165039.80246  24068130.4344   24068142.9064
     -4798.0944
 01 10  2  0 49 45.0040000  0  7G 2G13G28G 7G 8G27G31
   1646445.94447   1682445.71046  23254784.9574   23254795.6604
     -1050.7344
  40898310.65946  31872180.49346  24376886.5744   24376898.9884
     -5857.7034
   1029706.57848    857711.74547  22250599.0354   22250607.0664
     -1485.0784
   -271448.45844   -144991.63745  25646443.3554   25646460.5394
      1119.2664
   6730613.34548   5259665.73547  21573938.7464   21573947.6094
     -1808.0944
  20111084.64448  15690523.97247  22176238.5664   22176247.6644
     -3046.5164
  17823469.49346  12221161.81646  24081836.2934   24081847.5474
     -4805.2034
 01 10  2  0 50  0.0040000  0  7G 2G13G28G 7G 8G27G31
   1662233.24247   1694747.54446  23257788.8014   23257799.1874
     -1054.0624
  40986200.71246  31940666.17846  24393611.6214   24393623.3204
     -5860.7974
   1052022.16948    875100.54847  22254845.5274   22254853.4774
     -1490.1564
   -288234.47144   -158071.51645  25643248.6994   25643265.9414
      1119.0474
   6757769.40248   5280826.31047  21579106.2384   21579115.1024
     -1812.5474
  20156818.29548  15726160.58047  22184941.3244   22184950.4694
     -3051.1254
  17895603.13246  12277369.83646  24095563.0124   24095574.3244
     -4812.4534
 01 10  2  0 50 15.0040000  0  7G 2G13G28G 7G 8G27G31
   1678070.65547   1707088.42446  23260803.2854   23260813.6844
     -1057.3444
  41074137.25846  32009188.07646  24410345.1844   24410356.9534
     -5863.8124
   1074413.96247    892548.72347  22259106.3244   22259114.2734
     -1495.1724
   -305016.86444   -171148.55845  25640055.0434   25640072.1914
      1118.9064
   6784992.40248   5302039.04047  21584286.6374   21584295.5474
     -1816.9374
  20202621.40648  15761851.31147  22193656.9574   22193666.1374
     -3055.7034
  17967845.85246  12333662.84246  24109310.3634   24109322.1094
     -4819.6724
 01 10  2  0 50 30.0040000  0  7G 2G13G28G 7G 8G27G31
   1693960.79147   1719470.38446  23263827.0124   23263837.6334
     -1061.4374
  41162122.64446  32077748.04446  24427087.1294   24427099.1684
     -5867.6724
   1096884.66448    910058.38547  22263382.2774   22263390.0984
     -1501.0164
   -321792.71244   -184220.44345  25636863.7154   25636880.9454
      1117.8284
   6812285.10348   5323306.09647  21589480.2154   21589489.2194
     -1822.1874
  20248496.84548  15797598.40547  22202387.2154   22202396.5234
     -3061.1254
  18040199.93646  12390042.64346  24123078.6604   24123090.4534
     -4827.6564
 01 10  2  0 50 45.0040000  0  7G 2G13G28G 7G 8G27G31
   1709911.52147   1731899.57046  23266862.3164   23266873.0314
     -1064.9534
  41250164.58146  32146352.07446  24443841.3244   24443854.0554
     -5870.8914
   1119442.00948    927635.56547  22267675.0904   22267682.9574
     -1506.2664
   -338553.68544   -197280.71745  25633673.7694   25633691.8444
      1117.3754
   6839655.67148   5344633.82347  21594688.8244   21594697.8404
     -1826.8444
  20294452.48448  15833407.99147  22211131.9804   22211141.2894
     -3065.9374
  18112673.01546  12446515.14446  24136869.8324   24136880.8984
     -4835.0474
 01 10  2  0 51  0.0040000  0  7G 2G13G28G 7G 8G27G31
   1725913.54547   1744368.70647  23269907.5434   23269918.0824
     -1068.2814
  41338253.45646  32214992.67446  24460604.6374   24460617.5664
     -5873.9224
   1142076.71247    945273.02047  22271981.8484   22271989.6094
     -1511.3284
   -355308.82644   -210336.51945  25630485.6604   25630504.2274
      1117.0634
   6867094.72148   5366014.90347  21599910.1914   21599919.1024
     -1831.3594
  20340479.21948  15869272.97547  22219890.8554   22219900.1174
     -3070.5944
  18185255.50546  12503072.91246  24150681.5434   24150692.5984
     -4842.2504
 01 10  2  0 51 15.0050000  0  7G 2G13G28G 7G 8G27G31
   1741968.11247   1756878.79446  23272961.6814   23272971.9384
     -1072.0164
  41426394.96346  32283674.29146  24477377.6654   24477390.5244
     -5877.3444
   1164790.35148    962971.98447  22276304.5954   22276312.6854
     -1516.8124
   -372058.82044   -223388.32345  25627297.5634   25627316.1304
      1116.2974
   6894604.71348   5387451.26647  21605145.5094   21605154.4074
     -1836.2504
  20386580.42648  15905195.99247  22228663.4854   22228672.6064
     -3075.6874
  18257952.10646  12559719.59346  24164516.1494   24164527.5094
     -4849.8444
 01 10  2  0 51 30.0050000  0  7G 2G13G28G 7G 8G27G31
   1758073.92847   1769428.82046  23276026.5324   23276036.6494
     -1075.5164
  41514578.03746  32352388.30046  24494158.3924   24494170.8174
     -5880.5004
   1187580.79147    980730.79247  22280640.9704   22280649.1064
     -1522.0314
   -388800.06244   -236433.22645  25624111.2204   25624129.7284
      1115.7664
   6922182.85148   5408940.73747  21610393.2744   21610402.2434
     -1840.9224
  20432751.00848  15941173.06347  22237449.4154   22237458.3374
     -3080.5004
  18330753.78046  12616448.15346  24178369.4704   24178380.6884
     -4857.1564
 01 10  2  0 51 45.0050000  0  7G 2G13G28G 7G 8G27G31
   1774235.04047   1782021.94246  23279101.8454   23279112.0914
     -1079.2194
  41602811.32546  32421141.43046  24510949.6964   24510962.8844
     -5883.8444
   1210452.56048    998552.97247  22284994.1034   22285002.1104
     -1527.4694
   -405530.44743   -249469.69645  25620927.0094   25620947.0054
      1115.0474
   6949834.29148   5430487.32847  21615655.0794   21615664.0834
     -1845.8444
  20478997.10548  15977208.97147  22246249.7674   22246258.7474
     -3085.5624
  18403668.01046  12673264.41846  24192244.1184   24192255.4784
     -4864.6724
 01 10  2  0 52  0.0050000  0  7G 2G13G28G 7G 8G27G31
   1790449.15847   1794656.36347  23282187.1424   23282197.8104
     -1082.8124
  41691092.26046  32489931.70846  24527748.6654   24527761.1144
     -5887.0784
   1233403.38247   1016436.75147  22289361.0014   22289368.8214
     -1532.7974
   -422251.95943   -262499.24445  25617743.4704   25617762.6344
      1114.3754
   6977556.70148   5452089.21347  21620930.4074   21620939.4704
     -1850.6254
  20525316.56948  16013302.06247  22255064.2204   22255073.1424
     -3090.5164
  18476692.30745  12730166.44846  24206139.8064   24206152.2084
     -4872.0624
 01 10  2  0 52 15.0050000  0  7G 2G13G28G 7G 8G27G31
   1806717.56447   1807333.08047  23285282.5484   23285293.4274
     -1086.2814
  41779421.82646  32558759.85046  24544557.2204   24544570.5244
     -5890.1564
   1256434.49448   1034383.09347  22293743.9624   22293751.7124
     -1537.9844
   -438962.88344   -275520.58245  25614564.5954   25614583.4544
      1113.8134
   7005351.47848   5473747.48947  21626219.6814   21626228.6854
     -1855.3124
  20571710.80548  16049453.40647  22263892.8994   22263901.8924
     -3095.3594
  18549827.61346  12787154.96146  24220057.7124   24220069.9154
     -4879.2974
 01 10  2  0 52 30.0050000  0  7G 2G13G28G 7G 8G27G31
   1823039.18447   1820051.27547  23288389.4544   23288400.3924
     -1089.8284
  41867798.64846  32627624.82446  24561374.6424   24561387.3604
     -5893.2974
   1279544.78448   1052391.13747  22298141.5014   22298149.4034
     -1543.2664
   -455664.06744   -288534.35745  25611386.8064   25611406.2864
      1113.1564
   7033217.87448   5495461.57347  21631522.3294   21631531.3454
     -1860.1094
  20618178.85848  16085662.26947  22272735.0714   22272744.1454
     -3100.2814
  18623072.53545  12844228.91446  24233995.7674   24234007.9354
     -4886.6094
 01 10  2  0 52 45.0050000  0  7G 2G13G28G 7G 8G27G31
   1839414.56547   1832811.34947  23291505.8454   23291516.4894
     -1093.2664
  41956223.10446  32696526.89646  24578200.5634   24578213.8104
     -5896.3444
   1302734.70647   1070461.23147  22302553.8454   22302561.7004
     -1548.4224
   -472354.60644   -301539.76045  25608211.3294   25608229.5204
      1112.5474
   7061156.73748   5517232.12147  21636838.9384   21636847.7784
     -1864.7664
  20664721.46148  16121929.22947  22281592.1964   22281601.4354
     -3105.1094
  18696427.45045  12901388.55846  24247953.9384   24247966.2244
     -4893.7664
 01 10  2  0 53  0.0050000  0  7G 2G13G28G 7G 8G27G31
   1855842.01447   1845611.99847  23294630.9314   23294641.5174
     -1097.1254
  42044693.32746  32765464.65546  24595037.2744   24595049.7244
     -5899.7504
   1326002.56048   1088592.04747  22306981.7904   22306989.6104
     -1554.0164
   -489035.74243   -314537.89745  25605035.2514   25605053.9814
      1111.5004
   7089166.42948   5539057.86747  21642168.9314   21642177.7944
     -1869.9064
  20711337.09048  16158253.08847  22290462.6574   22290471.9074
     -3110.3754
  18769890.46445  12958632.44946  24261933.1494   24261944.8954
     -4901.3594
 01 10  2  0 53 15.0050000  0  7G 2G13G28G 7G 8G27G31
   1872323.56547   1858454.80147  23297767.0714   23297777.6574
     -1100.4694
  42133210.98846  32834439.37546  24611881.4704   24611893.0404
     -5902.6724
   1349350.41947   1106785.20747  22311424.5484   22311432.4974
     -1559.1094
   -505705.20244   -327526.90045  25601864.0174   25601881.5994
      1110.9844
   7117249.11348   5560940.48547  21647512.8604   21647521.7944
     -1874.5314
  20758027.83048  16194635.47947  22299347.6184   22299356.8214
     -3115.1414
  18843463.22745  13015961.84046  24275934.5794   24275946.2204
     -4908.4064
 01 10  2  0 53 30.0050000  0  7G 2G13G28G 7G 8G27G31
   1888859.30647   1871339.84247  23300915.0094   23300925.6064
     -1104.2034
  42221775.93046  32903450.93746  24628733.8454   24628746.4234
     -5905.9064
   1372778.45247   1125040.83647  22315882.8994   22315890.8254
     -1564.5474
   -522362.43944   -340506.43945  25598693.5874   25598712.6574
      1110.0474
   7145405.01148   5582880.16147  21652871.0244   21652879.9934
     -1879.5164
  20804794.01448  16231076.65447  22308247.1184   22308256.0634
     -3120.2664
  18917145.65845  13073376.71346  24289955.7204   24289968.1574
     -4915.8124
 01 10  2  0 53 45.0050000  0  7G 2G13G28G 7G 8G27G31
   1905450.82047   1884268.33147  23304071.0874   23304081.5674
     -1107.8594
  42310389.48146  32972500.36646  24645597.2124   24645609.6734
     -5909.0944
   1396288.14447   1143360.09547  22320356.2434   22320364.2284
     -1569.9374
   -539005.53744   -353474.95945  25595526.7204   25595544.0794
      1109.1414
   7173635.98848   5604878.33447  21658243.2824   21658252.0874
     -1884.4844
  20851637.35148  16267577.94347  22317161.0244   22317169.9234
     -3125.3754
  18990938.97546  13130877.97146  24303998.5094   24304010.5364
     -4923.1564
 01 10  2  0 54  0.0050000  0  7G 2G13G28G 7G 8G27G31
   1922095.03947   1897237.88947  23307238.4154   23307248.8024
     -1111.2664
  42399048.45946  33041585.22246  24662467.3844   24662479.4934
     -5912.0004
   1419876.51347   1161740.66147  22324845.7514   22324853.6774
     -1575.0784
   -555637.20444   -366434.51545  25592361.9384   25592381.5364
      1108.5004
   7201939.17048   5626932.77347  21663629.0014   21663637.8644
     -1889.2034
  20898554.94548  16304137.10647  22326089.1734   22326098.2944
     -3130.2194
  19064839.95845  13188463.13846  24318060.9854   24318072.8724
     -4930.2194
 01 10  2  0 54 15.0050000  0  7G 2G13G28G 7G 8G27G31
   1938789.76847   1910246.81347  23310415.5714   23310425.9584
     -1115.0314
  42487750.16046  33110703.32946  24679348.5094   24679361.0754
     -5915.2504
   1443541.29347   1180180.77047  22329348.3294   22329356.1034
     -1580.5624
   -572259.34444   -379386.68245  25589198.8924   25589217.0834
      1107.4534
   7230312.57948   5649041.93947  21669028.0484   21669036.9114
     -1894.2814
  20945544.66648  16340752.46947  22335031.0404   22335040.1854
     -3135.4374
  19138846.06845  13246130.20346  24332143.8764   24332155.3414
     -4937.6094
 01 10  2  0 54 30.0050000  0  7G 2G13G28G 7G 8G27G31
   1955540.03847   1923299.00947  23313603.1964   23313613.5244
     -1118.5784
  42576499.30846  33179858.42346  24696236.0244   24696248.4624
     -5918.2504
   1467287.49347   1198684.32447  22333867.2594   22333874.9974
     -1585.8444
   -588866.65744   -392327.28245  25586038.4784   25586057.2434
      1106.5784
   7258761.20648   5671209.71847  21674441.7284   21674450.5324
     -1899.1414
  20992611.63048  16377428.01847  22343987.5794   22343996.7244
     -3140.4224
  19212961.98946  13303882.83346  24346247.8064   24346259.8334
     -4944.7504
 01 10  2  0 54 45.0050000  0  7G 2G13G28G 7G 8G27G31
   1972346.22647   1936394.78047  23316800.9384   23316811.3134
     -1122.3124
  42665296.20746  33249050.73546  24713133.1574   24713146.7084
     -5921.4224
   1491115.41147   1217251.55447  22338401.4784   22338409.2394
     -1591.2814
   -605458.37143   -405255.74245  25582879.9934   25582898.3724
      1105.5314
   7287285.67648   5693436.59047  21679869.5954   21679878.6344
     -1904.2034
  21039756.40648  16414164.20647  22352959.0174   22352968.3024
     -3145.6254
  19287187.82246  13361721.12646  24360373.4784   24360385.1774
     -4952.0784
 01 10  2  0 55  0.0050000  0  7G 2G13G28G 7G 8G27G31
   1989205.85047   1949532.19247  23320008.8994   23320019.3454
     -1125.8124
  42754138.15846  33318278.13946  24730039.4544   24730052.6534
     -5924.3594
   1515022.58847   1235880.54247  22342950.9784   22342958.8684
     -1596.5004
   -622036.51243   -418173.64745  25579724.4854   25579743.0874
      1104.6414
   7315883.84548   5715720.88247  21685311.7594   21685320.8334
     -1909.0314
  21086976.71448  16450959.24847  22361944.5174   22361953.6144
     -3150.5944
  19361520.80946  13419642.93246  24374517.9934   24374530.3134
     -4959.1564
 01 10  2  0 55 15.0050000  0  7G 2G13G28G 7G 8G27G31
   2006118.53347   1962710.94447  23323228.2514   23323238.9194
     -1129.2344
  42843024.62046  33387540.24146  24746954.8684   24746967.6924
     -5927.1874
   1539008.66747   1254571.00847  22347515.3604   22347523.1694
     -1601.6564
   -638601.23943   -431081.05145  25576572.4784   25576592.0404
      1103.8914
   7344555.42948   5738062.39047  21690767.7434   21690776.6774
     -1913.8444
  21134272.30848  16487812.94947  22370944.3844   22370953.5524
     -3155.5004
  19435960.32845  13477647.73246  24388683.0794   24388694.4744
     -4966.1254
 01 10  2  0 55 30.0050000  0  7G 2G13G28G 7G 8G27G31
   2023081.95447   1975929.24247  23326455.4314   23326466.3684
     -1132.8124
  42931952.89346  33456834.91845  24763876.8534   24763890.6264
     -5930.1564
   1563071.38247   1273321.20147  22352094.4314   22352102.3104
     -1606.9534
   -655154.42244   -443979.50645  25573424.8134   25573444.2704
      1102.9224
   7373298.32148   5760459.46247  21696237.5714   21696246.3174
     -1918.7974
  21181640.92948  16524723.56347  22379958.6654   22379967.9274
     -3160.5624
  19510503.80445  13535733.56446  24402867.8844   24402879.5834
     -4973.2504
 01 10  2  0 55 45.0050000  0  7G 2G13G28G 7G 8G27G31
   2040100.96547   1989190.84247  23329693.8064   23329704.5444
     -1136.3284
  43020927.51546  33526165.71045  24780809.2284   24780822.5444
     -5933.0624
   1587215.42647   1292134.76347  22356688.7744   22356696.5484
     -1612.1874
   -671690.83244   -456864.81145  25570276.9784   25570296.6344
      1101.9844
   7402117.44948   5782915.93547  21701721.5244   21701730.2704
     -1923.7034
  21229087.61248  16561694.99847  22388987.3844   22388996.7044
     -3165.5944
  19585155.96445  13593904.05046  24417073.8534   24417085.6924
     -4980.3124
 01 10  2  0 56  0.0050000  0  7G 2G13G28G 7G 8G27G31
   2057171.94647   2002492.94747  23332942.6264   23332953.2944
     -1139.5314
  43109944.69546  33595529.66245  24797748.0634   24797761.5204
     -5935.6414
   1611437.20248   1311008.88847  22361298.2594   22361305.8804
     -1617.1094
   -688213.93444   -469739.86445  25567132.3294   25567151.8334
      1101.3754
   7431009.40448   5805429.16147  21707219.4854   21707228.3604
     -1928.2974
  21276608.81448  16598724.50547  22398030.4784   22398039.7514
     -3170.2974
  19659912.85845  13652156.18846  24431299.7984   24431311.0994
     -4987.0004
 01 10  2  0 56 15.0050000  0  7G 2G13G28G 7G 8G27G31
   2074294.05547   2015834.89647  23336200.9544   23336211.4354
     -1143.2974
  43199003.20146  33664925.80546  24814695.4384   24814707.4894
     -5938.7034
   1635735.83947   1329942.91247  22365922.0794   22365929.8414
     -1622.5784
   -704724.11244   -482604.80545  25563990.8994   25564008.2124
      1100.1254
   7459973.50448   5827998.60047  21712731.1964   21712740.1884
     -1933.4694
  21324203.90048  16635811.58347  22407087.3994   22407096.7434
     -3175.5944
  19734773.17645  13710488.88946  24445545.3064   24445557.5914
     -4994.2504
 01 10  2  0 56 30.0050000  0  7G 2G13G28G 7G 8G27G31
   2091471.38947   2029219.87247  23339469.6494   23339480.0134
     -1146.8594
  43288106.94246  33734357.19545  24831650.6034   24831663.8024
     -5941.6254
   1660115.38547   1348939.98047  22370561.0874   22370568.7784
     -1627.8594
   -721216.90645   -495456.15445  25560852.6494   25560870.8294
      1099.0944
   7489013.98048   5850627.55047  21718257.6344   21718266.5674
     -1938.4534
  21371877.07647  16672959.50747  22416159.1104   22416168.5014
     -3180.6724
  19809740.80445  13768905.21746  24459811.5714   24459823.0134
     -5001.2664
 01 10  2  0 56 45.0050000  0  7G 2G13G28G 7G 8G27G31
   2108698.20247   2042643.40447  23342747.6424   23342757.8764
     -1150.1874
  43377249.95746  33803819.20245  24848614.0404   24848626.8884
     -5944.2664
   1684570.12847   1367995.64647  22375214.9854   22375222.6654
     -1632.9224
   -737697.73645   -508298.22845  25557716.3924   25557733.4584
      1098.2344
   7518125.50348   5873311.85847  21723797.1494   21723806.0134
     -1943.2344
  21419622.74648  16710163.92147  22425244.8994   22425254.1034
     -3185.5624
  19884809.79845  13827400.53646  24474096.1494   24474108.0604
     -5008.0784
 01 10  2  0 57  0.0050000  0  7G 2G13G28G 7G 8G27G31
   2125980.01847   2056109.79247  23346036.3214   23346046.5094
     -1153.9374
  43466437.52746  33873315.93045  24865586.2594   24865598.4624
     -5947.2974
   1709105.65047   1387114.25747  22379883.6424   22379891.4034
     -1638.3754
   -754160.71845   -521126.38745  25554582.7284   25554600.1224
      1096.9384
   7547313.66248   5896055.88547  21729351.3214   21729360.1734
     -1948.4224
  21467446.59848  16747429.26247  22434345.5094   22434354.7944
     -3190.8444
  19959985.47245  13885978.94346  24488402.0954   24488414.7554
     -5015.2504
 01 10  2  0 57 15.0050000  0  7G 2G13G28G 7G 8G27G31
   2143316.15947   2069618.50947  23349335.3604   23349345.4664
     -1157.7194
  43555668.65846  33942846.60045  24882566.9074   24882579.6144
     -5950.3444
   1733721.25947   1406295.26747  22384567.7904   22384575.5994
     -1643.8594
   -770606.18244   -533940.88645  25551452.4074   25551472.0174
      1095.6094
   7576577.79348   5918859.11447  21734920.0484   21734928.9464
     -1953.6724
  21515348.08148  16784755.08247  22443460.9384   22443470.2244
     -3196.1724
  20035266.78245  13944639.73846  24502726.7434   24502737.4584
     -5022.4224
 01 10  2  0 57 30.0050000  0  7G 2G13G28G 7G 8G27G31
   2160708.45847   2083170.99147  23352645.2284   23352655.5444
     -1161.3124
  43644945.02946  34012412.49045  24899555.4314   24899568.2904
     -5953.2034
   1758418.68147   1425540.03047  22389267.5714   22389275.4624
     -1649.1724
   -787031.87545   -546739.93645  25548327.8064   25548348.2704
      1094.4384
   7605920.14348   5941723.29247  21740503.8924   21740512.8494
     -1958.7194
  21563329.15647  16822142.92947  22452591.1964   22452600.5754
     -3201.3444
  20110655.24345  14003383.95846  24517072.5564   24517084.9464
     -5029.4064
 01 10  2  0 57 45.0050000  0  7G 2G13G28G 7G 8G27G31
   2178155.15247   2096765.86047  23355964.8684   23355975.3374
     -1164.9374
  43734264.60146  34082012.07745  24916552.4544   24916565.6774
     -5956.0784
   1783196.17047   1444847.18547  22393982.4784   22393990.3684
     -1654.5004
   -803439.23545   -559524.78645  25545205.5094   25545223.5484
      1093.2034
   7635339.00748   5964647.08847  21746102.1264   21746111.1064
     -1963.8124
  21611388.20548  16859591.53547  22461736.9154   22461746.2004
     -3206.5474
  20186148.83745  14062210.11246  24531439.5794   24531451.4424
     -5036.4064
 01 10  2  0 58  0.0050000  0  7G 2G13G28G 7G 8G27G31
   2195654.20747   2110401.52247  23359294.4544   23359304.7704
     -1168.2664
  43823625.11346  34151643.57045  24933557.3064   24933570.3884
     -5958.6414
   1808051.62447   1464215.09047  22398712.7674   22398720.3994
     -1659.5474
   -819829.97045   -572296.62045  25542085.3994   25542103.9074
      1092.2504
   7664832.56348   5987629.08947  21751714.3684   21751723.4314
     -1968.6564
  21659523.31548  16897099.40947  22470896.6264   22470905.8064
     -3211.4534
  20261745.33745  14121116.48346  24545824.7904   24545836.8994
     -5043.1094
 01 10  2  0 58 15.0050000  0  7G 2G13G28G 7G 8G27G31
   2213204.26647   2124076.93747  23362634.2824   23362644.7514
     -1171.6564
  43913024.91446  34221305.66345  24950569.4464   24950583.1384
     -5961.2664
   1832983.73847   1483642.72847  22403457.2354   22403464.9384
     -1664.6564
   -836205.09545   -585056.30345  25538969.3294   25538987.4274
      1091.1884
   7694399.59948   6010668.34747  21757340.9384   21757349.8724
     -1973.5314
  21707733.26548  16934665.59847  22480070.7904   22480079.8534
     -3216.4534
  20337443.04245  14180101.71446  24560229.9544   24560241.7474
     -5049.8444
 01 10  2  0 58 30.0050000  0  7G 2G13G28G 7G 8G27G31
   2230808.28647   2137794.39247  23365984.5714   23365994.6424
     -1175.6094
  44002466.67746  34291000.45346  24967589.7204   24967602.5324
     -5964.3914
   1857995.40847   1503132.36547  22408216.1574   22408223.9894
     -1670.2974
   -852561.40345   -597801.34945  25535856.9234   25535874.5054
      1089.5784
   7724043.22348   6033767.27847  21762981.9464   21762990.7394
     -1979.0004
  21756021.11248  16972292.48747  22489259.4464   22489268.7904
     -3222.0004
  20413244.61845  14239167.90746  24574653.1734   24574665.0134
     -5057.0944
 01 10  2  0 58 45.0050000  0  7G 2G13G28G 7G 8G27G31
   2248465.65247   2151553.41247  23369344.3534   23369354.4354
     -1178.9374
  44091949.28746  34360727.04545  24984617.7594   24984630.2204
     -5966.8444
   1883085.92847   1522683.43647  22412990.9314   22412998.8804
     -1675.3444
   -868899.03845   -610531.82945  25532747.3604   25532766.1264
      1088.5634
   7753763.08548   6056925.61647  21768637.3534   21768646.1224
     -1983.8594
  21804386.38448  17009979.70647  22498463.0794   22498472.3414
     -3226.9374
  20489149.14245  14298314.26046  24589097.9464   24589109.9384
     -5063.7194
 01 10  2  0 59  0.0050000  0  7G 2G13G28G 7G 8G27G31
   2266177.04947   2165354.53647  23372714.2674   23372724.5954
     -1182.6094
  44181473.51846  34430486.11745  25001653.7434   25001666.8254
     -5969.7194
   1908256.12147   1542296.58847  22417780.2434   22417787.9814
     -1680.7194
   -885216.98145   -623246.91745  25529642.6574   25529661.3884
      1087.1414
   7783560.00548   6080144.00447  21774307.3684   21774316.2084
     -1989.0784
  21852829.97148  17047727.95247  22507681.7044   22507690.9424
     -3232.2344
  20565157.08845  14357541.22645  24603561.1814   24603572.9744
     -5070.6874
 01 10  2  0 59 15.0050000  0  7G 2G13G28G 7G 8G27G31
   2283942.60547   2179197.86647  23376095.1104   23376105.7434
     -1186.3284
  44271039.32345  34500277.56245  25018696.6574   25018710.0094
     -5972.5944
   1933506.12347   1561971.94147  22422585.4384   22422593.1424
     -1686.1414
   -901514.69945   -635946.28645  25526540.3994   25526559.3414
      1085.6884
   7813434.28948   6103422.67647  21779992.4934   21780001.5324
     -1994.3444
  21901352.11847  17085537.41147  22516915.0634   22516924.2674
     -3237.5784
  20641268.27745  14416848.64945  24618045.8454   24618057.7204
     -5077.6724
 01 10  2  0 59 30.0050000  0  7G 2G13G28G 7G 8G27G31
   2301757.75747   2193079.84547  23379485.4624   23379496.1304
     -1189.5784
  44360641.78045  34570097.55045  25035748.2044   25035762.0014
     -5974.9534
   1958831.21747   1581705.80047  22427404.6494   22427412.5054
     -1691.0784
   -917796.46844   -648633.24645  25523441.5174   25523461.2314
      1084.6564
   7843381.61848   6126758.25947  21785690.8844   21785699.8764
     -1999.1564
  21949948.33048  17123404.58647  22526162.5874   22526171.6614
     -3242.4694
  20717477.88945  14476232.76845  24632547.7904   24632561.2824
     -5084.1414
 01 10  2  0 59 45.0050000  0  8G 2G13G28G 7G26G 8G27G31
   2319629.02447   2207005.54047  23382886.2904   23382896.7594
     -1193.2194
  44450287.10045  34639950.96345  25052807.4784   25052820.6654
     -5977.7034
   1984237.89947   1601503.23547  22432239.7434   22432247.6224
     -1696.4224
   -934055.49945   -661302.44345  25520348.5954   25520366.4234
      1083.2504
     -6065.46952                  26100441.4704
       757.2344
   7873408.48848   6150155.83047  21791404.9544   21791413.9464
     -2004.3754
  21998625.28848  17161334.67747  22535425.5014   22535434.7634
     -3247.7504
  20793792.07945  14535698.34545  24647069.7744   24647081.9314
     -5091.0164
 01 10  2  1  0  0.0050000  0  8G 2G13G28G 7G26G 8G27G31
   2337552.24147   2220971.71947  23386296.5244   23386306.6424
     -1196.4694
  44539970.85545  34709834.32745  25069873.4314   25069887.0874
     -5980.0624
   2009722.03048   1621361.01847  22437089.1964   22437096.7944
     -1701.3914
   -950295.52345   -673956.81845  25517258.6734   25517276.4314
      1082.1724
    -17398.09143                  26098283.7824
       753.8444
   7903511.18148   6173612.47847  21797133.4154   21797142.3844
     -2009.2504
  22047379.03248  17199324.59847  22544703.2124   22544712.6494
     -3252.6724
  20870206.42545  14595241.99046  24661610.7594   24661623.5604
     -5097.4844
 01 10  2  1  0 15.0050000  0  8G 2G13G28G 7G26G 8G27G31
   2355522.90947   2234974.87147  23389717.4314   23389727.5834
     -1199.5784
  44629688.37846  34779743.99045  25086947.2824   25086960.8104
     -5982.2344
   2035279.16447   1641275.69047  22441952.1034   22441959.7354
     -1706.1874
   -966520.55645   -686599.52945  25514170.5014   25514188.9034
      1081.2194
    -28681.19743                  26096136.8844
       750.6094
   7933685.28348   6197124.77447  21802875.1964   21802884.1424
     -2013.9534
  22096205.19248  17237370.94647  22553994.4544   22554003.6574
     -3257.4374
  20946716.23945  14654860.02746  24676170.7204   24676182.0324
     -5103.7664
 01 10  2  1  0 30.0050000  0  8G 2G13G28G 7G26G 8G27G31
   2373543.83447   2249017.18547  23393145.3764   23393155.5404
     -1203.2504
  44719442.09145  34849681.83245  25104026.6184   25104040.1694
     -5984.9844
   2060912.07147   1661249.40247  22446830.4074   22446838.0874
     -1711.5784
   -982727.53044   -699228.13445  25511085.2434   25511103.4704
      1079.6564
    -39911.44143                  26094000.2284
       746.7504
   7963933.73448   6220695.00347  21808631.4314   21808640.3764
     -2019.2344
  22145106.75348  17275476.05647  22563300.2204   22563309.4584
     -3262.8124
  21023324.00246  14714554.39646  24690748.8764   24690761.1494
     -5110.6254
 01 10  2  1  0 45.0050000  0  8G 2G13G28G 7G26G 8G27G31
   2391619.17847   2263101.90647  23396586.0794   23396596.2784
     -1206.8754
  44809235.89845  34919650.97945  25121114.4384   25121128.3764
     -5987.5944
   2086624.76547   1681285.28647  22451722.7824   22451730.4034
     -1716.8754
   -998911.96445   -711839.22145  25508006.1184   25508024.5444
      1078.1724
    -51084.33543                  26091874.3924
       742.9064
   7994260.92948   6244326.59547  21814402.4544   21814411.3764
     -2024.4694
  22194087.96348  17313643.22047  22572620.9854   22572630.3174
     -3268.1094
  21100033.58645  14774328.10346  24705345.4544   24705356.8134
     -5117.3914
 01 10  2  1  1  0.0050000  0  8G 2G13G28G 7G26G 8G27G31
   2409748.00047   2277228.30047  23400034.9934   23400045.3924
     -1210.3594
  44899068.76745  34989650.49145  25138207.1654   25138220.8334
     -5990.1414
   2112416.40447   1701382.68447  22456630.7984   22456638.4544
     -1722.0474
  -1015074.50345   -724433.22545  25504930.4854   25504948.8644
      1076.7814
    -62200.47345     -4036.25655  26089759.5954   26089772.0204
       739.2194
   8024666.05348   6268018.90947  21820188.2744   21820197.0564
     -2029.5944
  22243147.93947  17351871.76647  22581956.7354   22581966.1264
     -3273.2664
  21176843.65145  14834180.11346  24719961.9704   24719973.1304
     -5124.0004
 01 10  2  1  1 15.0050000  0  8G 2G13G28G 7G26G 8G27G31
   2427929.64247   2291395.84647  23403494.2824   23403504.7044
     -1213.6414
  44988939.54645  35059679.59245  25155309.1814   25155323.5054
     -5992.4224
   2138286.19947   1721540.98847  22461553.8684   22461561.4424
     -1727.0314
  -1031215.52445   -737010.46745  25501858.4934   25501877.0954
      1075.5634
    -73260.23145    -12654.19945  26087655.1494   26087667.4584
       735.6884
   8055148.55148   6291771.51447  21825989.0244   21825997.9114
     -2034.5164
  22292286.13348  17390161.26447  22591307.5174   22591316.9194
     -3278.2664
  21253753.33245  14894109.73345  24734597.6814   24734610.5174
     -5130.4064
 01 10  2  1  1 30.0050000  0  8G 2G13G28G 7G26G 8G27G31
   2446166.65747   2305606.54447  23406965.6104   23406976.0794
     -1217.8594
  45078850.75345  35129740.18745  25172419.7674   25172434.5364
     -5995.6094
   2164236.78847   1741762.25047  22466491.6884   22466499.3454
     -1732.9374
  -1047331.93845   -749568.50445  25498791.6734   25498809.1964
      1073.3914
    -84260.56645    -21225.90345  26085561.5404   26085575.2084
       731.1564
   8085711.18648   6315586.57047  21831804.9784   21831813.9114
     -2040.4224
  22341505.32748  17428513.87847  22600673.7204   22600682.9704
     -3284.1874
  21330764.94745  14954118.78146  24749252.3214   24749264.4074
     -5137.7034
 01 10  2  1  1 45.0050000  0  8G 2G13G28G 7G26G 8G27G31
   2464459.64747   2319860.85847  23410445.8534   23410456.5204
     -1221.2194
  45168802.62445  35199832.44745  25189536.8684   25189549.9974
     -5997.9534
   2190268.74647   1762046.91047  22471445.5174   22471453.0444
     -1738.0004
  -1063422.79645   -762106.65745  25495728.8844   25495747.4034
      1072.0784
    -95200.46345    -29750.51345  26083479.4154   26083490.8454
       727.5004
   8116355.00748   6339464.88247  21837636.3604   21837645.3064
     -2045.4534
  22390806.22048  17466930.14747  22610055.0954   22610064.2744
     -3289.2664
  21407878.82745  15014207.51646  24763926.9624   24763938.8844
     -5144.1414
 01 10  2  1  2  0.0050000  0  8G 2G13G28G 7G26G 8G27G31
   2482805.15947   2334156.09447  23413937.7354   23413948.0754
     -1224.8754
  45258791.43945  35269953.52245  25206659.7904   25206673.6224
     -6000.5784
   2216378.62047   1782392.28647  22476414.1884   22476421.6814
     -1743.3444
  -1079491.31745   -774627.38345  25492671.5634   25492689.0404
      1070.3594
   -106083.10845    -38230.48045  26081408.6884   26081422.0174
       723.5004
   8147076.54248   6363403.74947  21843482.3994   21843491.2164
     -2050.7814
  22440185.54748  17505407.53847  22619451.7514   22619461.0954
     -3294.6564
  21485091.25145  15074373.02345  24778619.7284   24778631.1814
     -5150.8594
 01 10  2  1  2 15.0060000  0  8G 2G13G28G 7G26G 8G27G31
   2501208.37847   2348496.29947  23417439.3654   23417449.6464
     -1228.4694
  45348826.95445  35340110.96045  25223795.4044   25223809.3534
     -6003.1094
   2242571.96347   1802802.70047  22481398.7644   22481406.2684
     -1748.6254
  -1095534.23045   -787128.15645  25489619.0374   25489638.4474
      1068.7664
   -116904.84245    -46662.98645  26079348.9824   26079361.5724
       719.5634
   8177881.89748   6387407.93247  21849344.2324   21849353.0724
     -2056.0784
  22489650.66048  17543951.77047  22628864.9204   22628874.1704
     -3300.0004
  21562410.96645  15134622.16445  24793333.0374   24793345.1934
     -5157.4844
 01 10  2  1  2 30.0060000  0  8G 2G13G28G 7G26G 8G27G31
   2519662.26947   2362875.99547  23420951.0764   23420961.1934
     -1231.9534
  45438892.39045  35410291.71545  25240932.0294   25240946.0494
     -6005.5314
   2268840.77247   1823271.92647  22486397.5764   22486405.1864
     -1753.7974
  -1111553.56445   -799610.55545  25486570.4514   25486588.2214
      1067.2504
   -127668.41245    -55050.17545  26077300.7954   26077314.8384
       715.7034
   8208762.67248   6411470.88147  21855220.7794   21855229.6894
     -2061.2504
  22539190.57448  17582554.29347  22638291.8964   22638301.0644
     -3305.2194
  21639822.82345  15194943.05445  24808064.3034   24808076.2834
     -5163.9844
 01 10  2  1  2 45.0060000  0  8G 2G13G28G 7G26G 8G27G31
   2538165.45747   2377294.09847  23424472.2014   23424482.3894
     -1235.1254
  45528990.74745  35480498.14945  25258078.4124   25258092.2094
     -6007.5944
   2295184.16247   1843799.26047  22491410.1934   22491417.6864
     -1758.6564
  -1127552.75845   -812077.25445  25483524.8504   25483542.5844
      1065.9844
   -138376.87545    -63394.39545  26075262.9824   26075275.6194
       712.1094
   8239718.41148   6435592.25047  21861111.4514   21861120.3734
     -2066.1724
  22588806.05148  17621215.69247  22647733.5374   22647742.6464
     -3310.1564
  21717329.08445  15255337.56645  24822812.9284   24822825.0024
     -5170.1874
 01 10  2  1  3  0.0060000  0  8G 2G13G28G 7G26G 8G27G31
   2556716.80247   2391749.71947  23428002.3184   23428012.3184
     -1238.5164
  45619120.75645  35550729.20445  25275230.0684   25275243.1394
     -6009.8754
   2321601.03447   1864383.85547  22496437.3894   22496445.0684
     -1763.7344
  -1143532.41245   -824528.74945  25480484.2794   25480502.1314
      1064.5004
   -149030.79445    -71696.13545  26073235.5534   26073247.6394
       708.2814
   8270748.37548   6459771.45347  21867016.3184   21867025.0764
     -2071.2974
  22638496.12848  17659935.22747  22657189.2874   22657198.3384
     -3315.3124
  21794928.39445  15315804.52646  24837579.8264   24837591.9364
     -5176.5474
 01 10  2  1  3 15.0060000  0  8G 2G13G28G 7G26G 8G27G31
   2575320.96747   2406246.51347  23431542.4824   23431552.2134
     -1242.1094
  45709286.80945  35620988.38045  25292389.3574   25292401.6074
     -6012.3284
   2348095.94847   1885029.26147  22501479.2094   22501486.8074
     -1768.9844
  -1159487.61245   -836961.18645  25477448.2094   25477466.0614
      1062.7814
   -159625.26045    -79951.56245  26071219.4904   26071230.8144
       704.2344
   8301857.17148   6484012.08847  21872936.2094   21872944.9674
     -2076.6254
  22688265.56147  17698716.59047  22666659.8424   22666668.8694
     -3320.6724
  21872625.05446  15376347.37646  24852365.4674   24852377.1784
     -5183.0944
 01 10  2  1  3 30.0060000  0  8G 2G13G28G 7G26G 8G27G31
   2593977.19647   2420783.85647  23435092.5684   23435102.5804
     -1245.2344
  45799487.90045  35691274.85845  25309553.3654   25309566.0494
     -6014.3124
   2374668.11247   1905734.86647  22506535.7954   22506543.3694
     -1773.7974
  -1175418.78245   -849374.87545  25474415.9984   25474434.1894
      1061.5314
   -170160.57245    -88160.90145  26069215.5614   26069227.9754
       700.6254
   8333044.42048   6508313.85147  21878870.9124   21878879.6354
     -2081.5004
  22738113.72548  17737559.30947  22676145.6784   22676154.7524
     -3325.5944
  21950418.04445  15436965.33645  24867168.4674   24867178.8894
     -5189.1564
 01 10  2  1  3 45.0060000  0  8G 2G13G28G 7G26G 8G27G31
   2612684.64647   2435361.12847  23438652.0614   23438662.1434
     -1248.8754
  45889722.94545  35761587.76445  25326725.2794   25326738.6784
     -6016.7814
   2401316.62847   1926499.96247  22511606.5924   22511614.2134
     -1779.1254
  -1191326.44245   -861770.25545  25471388.3034   25471407.4204
      1059.7034
   -180637.33545    -96324.60245  26067221.6394   26067234.5214
       696.4844
   8364309.19148   6532676.01747  21884820.3654   21884829.0884
     -2086.9224
  22788039.87347  17776462.79347  22685646.1864   22685655.3534
     -3331.0314
  22028306.19045  15497657.38045  24881990.3964   24882002.2834
     -5195.7344
 01 10  2  1  4  0.0060000  0  8G 2G13G28G 7G26G 8G27G31
   2631440.03947   2449975.75047  23442221.6074   23442231.6314
     -1251.9374
  45979988.30945  35831924.32645  25343901.7014   25343915.8264
     -6018.6724
   2428038.32947   1947322.08947  22516691.7874   22516699.2444
     -1783.8754
  -1207213.43345   -874149.53545  25468364.7094   25468382.7364
      1058.4384
   -191058.32945   -104444.85745  26065238.3034   26065251.6544
       692.8594
   8395648.66948   6557096.40247  21890783.8894   21890792.7404
     -2091.7814
  22838040.92247  17815424.63947  22695161.2174   22695170.5724
     -3335.8914
  22106285.96545  15558420.86845  24896828.7404   24896841.0254
     -5201.6874
 01 10  2  1  4 15.0060000  0  8G 2G13G28G 7G26G 8G27G31
   2650249.96647   2464632.87147  23445800.9044   23445810.8934
     -1255.7664
  46070290.51045  35902289.56645  25361084.7404   25361098.3734
     -6021.3124
   2454839.77647   1968206.35447  22521791.8814   22521799.5374
     -1789.3754
  -1223072.72345   -886507.23345  25465347.8034   25465365.9004
      1056.4064
   -201416.59745   -112516.21845  26063266.3964   26063277.2874
       688.5164
   8427069.47948   6581580.16647  21896763.4124   21896772.2174
     -2097.3754
  22888123.61047  17854450.10447  22704691.4204   22704700.9044
     -3341.5164
  22184363.65545  15619260.61845  24911686.8264   24911700.0844
     -5208.3914
 01 10  2  1  4 30.0060000  0  8G 2G13G28G 7G26G 8G27G31
   2669115.31547   2479333.17647  23449390.9284   23449400.8224
     -1259.3444
  46160630.00945  35972683.88445  25378275.6704   25378289.6664
     -6023.6564
   2481721.77247   1989153.38547  22526907.3504   22526915.0184
     -1794.6094
  -1238903.28645   -898842.53445  25462336.7174   25462354.5334
      1054.5944
   -211710.89245   -120537.73645  26061307.7794   26061319.3384
       684.3594
   8458572.62848   6606128.07947  21902757.9124   21902766.6584
     -2102.7814
  22938288.90048  17893539.93747  22714237.6704   22714246.9784
     -3346.9064
  22262539.84545  15680177.13845  24926562.9204   24926575.7444
     -5214.8124
 01 10  2  1  4 45.0060000  0  8G 2G13G28G 7G26G 8G27G31
   2688030.89747   2494072.62047  23452990.1544   23453000.1314
     -1262.5784
  46251001.31745  36043103.00345  25395473.4204   25395487.1464
     -6025.6724
   2508679.09847   2010159.11647  22532037.0844   22532044.7174
     -1799.5314
  -1254709.94945   -911159.19545  25459328.4984   25459345.9984
      1053.1254
   -221945.96145   -128513.11245  26059360.5374   26059374.2524
       680.5004
   8490153.37048   6630736.46547  21908767.4044   21908776.2794
     -2107.8284
  22988531.70148  17932690.16647  22723798.7324   22723807.8774
     -3351.9694
  22340809.10245  15741166.19745  24941457.5764   24941468.6314
     -5220.9224
 01 10  2  1  5  0.0060000  0  8G 2G13G28G 7G26G 8G27G31
   2706995.64147   2508850.38247  23456599.0764   23456609.3574
     -1266.0784
  46341403.22745  36113545.92745  25412675.9754   25412689.6784
     -6027.9224
   2535710.79447   2031222.79447  22537180.8734   22537188.4474
     -1804.7194
  -1270493.36945   -923457.76545  25456324.3574   25456341.8934
      1051.3134
   -232122.67645   -136443.01645  26057423.3654   26057435.5454
       676.3754
   8521810.60248   6655404.45647  21914791.8034   21914800.6194
     -2113.1724
  23038851.12448  17971900.09547  22733374.1154   22733383.0494
     -3357.3124
  22419170.18245  15802226.76445  24956368.7094   24956380.8304
     -5227.2344
 01 10  2  1  5 15.0060000  0  8G 2G13G28G 7G26G 8G27G31
   2726011.06348   2523667.62247  23460218.3034   23460228.4554
     -1269.3594
  46431837.04445  36184013.75345  25429884.6704   25429897.9754
     -6029.9534
   2562818.23447   2052345.49647  22542338.9824   22542346.4164
     -1809.6724
  -1286251.59745   -935736.72745  25453324.8654   25453342.1784
      1049.7344
   -242238.98044   -144325.80845  26055498.4434   26055511.3614
       672.4384
   8553545.99948   6680133.34547  21920830.6004   21920839.4634
     -2118.2814
  23089248.80247  18011171.01247  22742964.5064   22742973.6504
     -3362.4374
  22497624.24645  15863359.83845  24971298.0294   24971309.1074
     -5233.3284
 01 10  2  1  5 30.0060000  0  8G 2G13G28G 7G26G 8G27G31
   2745077.87047   2538524.90447  23463845.8964   23463856.0844
     -1272.9844
  46522303.22945  36254506.77145  25447101.4594   25447115.8774
     -6032.2974
   2590002.08747   2073527.74247  22547511.9754   22547519.4554
     -1814.9534
  -1301983.62645   -947995.21845  25450330.6544   25450347.6034
      1047.7814
   -252293.75045   -152160.66445  26053585.2954   26053597.3694
       668.1254
   8585360.68148   6704924.02247  21926884.7714   21926893.7174
     -2123.7664
  23139725.62848  18050503.59747  22752569.9904   22752579.5454
     -3367.9224
  22576171.73445  15924565.67945  24986245.1234   24986256.0964
     -5239.7664
 01 10  2  1  5 45.0060000  0  8G 2G13G28G 7G26G 8G27G31
   2764202.58447   2553427.30747  23467484.7404   23467494.9284
     -1277.1094
  46612808.11345  36325029.95145  25464324.4204   25464338.5214
     -6035.1254
   2617268.97947   2094774.69347  22552700.4984   22552707.7444
     -1820.7664
  -1317682.55345   -960227.98245  25447342.9434   25447360.6894
      1045.2974
   -262280.15645   -159942.25045  26051685.5144   26051697.4004
       663.2814
   8617261.16648   6729781.55347  21932955.2644   21932964.0454
     -2129.7664
  23190288.26547  18089903.04847  22762191.6154   22762201.0884
     -3373.9064
  22654818.88545  15985849.19745  25001211.6074   25001223.6354
     -5246.6414
 01 10  2  1  6  0.0060000  0  8G 2G13G28G 7G26G 8G27G31
   2783388.30647   2568377.26047  23471135.9984   23471146.3384
     -1280.7664
  46703354.42645  36395585.41045  25481553.5924   25481566.6274
     -6037.4534
   2644621.84947   2116088.64047  22557906.1004   22557913.4514
     -1826.0624
  -1333345.02645   -972432.33145  25444362.2954   25444378.1544
      1043.2664
   -272194.76345   -167667.89945  26049798.8574   26049811.3534
       658.9064
   8649250.66348   6754708.44747  21939042.8114   21939051.6034
     -2135.2814
  23240939.88547  18129371.84847  22771830.2254   22771839.6504
     -3379.4224
  22733568.44945  16047212.51745  25016197.0374   25016209.0294
     -5253.0624
 01 10  2  1  6 15.0060000  0  8G 2G13G28G 7G26G 8G27G31
   2802624.20747   2583366.30547  23474796.5294   23474806.6234
     -1284.1094
  46793931.03645  36466164.48145  25498788.8264   25498803.7134
     -6039.5164
   2672049.82447   2137461.10647  22563125.3504   22563132.9474
     -1831.0624
  -1348981.36645   -984616.27945  25441385.8114   25441403.0414
      1041.5314
   -282047.97144   -175345.70845  26047923.5614   26047937.1464
       654.7814
   8681318.78848   6779696.60947  21945144.9984   21945153.8144
     -2140.5164
  23291669.84247  18168901.67547  22781483.7564   22781493.1934
     -3384.6414
  22812409.30445  16108646.95845  25031200.1544   25031213.1074
     -5259.1254
 01 10  2  1  6 30.0060000  0  8G 2G13G28G 7G26G 8G27G31
   2821913.46247   2598396.92347  23478467.1704   23478477.1584
     -1287.6564
  46884540.93745  36536769.50345  25516032.2714   25516044.4284
     -6041.6724
   2699556.17947   2158894.65247  22568359.5534   22568367.1744
     -1836.2974
  -1364588.19445   -996777.23445  25438416.5614   25438434.7284
      1039.5314
   -291836.27344   -182972.91145  26046061.7874   26046073.6034
       650.4534
   8713468.64748   6804748.46247  21951263.0614   21951271.9244
     -2145.9694
  23342481.41347  18208495.10547  22791152.8894   22791162.4674
     -3390.0784
  22891344.33245  16170154.79045  25046220.4754   25046233.4634
     -5265.3914
 01 10  2  1  6 45.0060000  0  8G 2G13G28G 7G26G 8G27G31
   2841251.11847   2613465.26347  23482146.2714   23482156.0614
     -1290.9694
  46975178.83645  36607396.33845  25533281.1544   25533295.4204
     -6043.6254
   2727135.92947   2180385.38647  22573607.8344   22573615.3854
     -1841.2814
  -1380169.94945  -1008918.67045  25435451.6394   25435468.6584
      1037.7664
   -301564.18344   -190553.08445  26044209.1154   26044222.4674
       646.2974
   8745695.50948   6829860.31547  21957395.6394   21957404.5144
     -2151.2344
  23393369.75647  18248148.35647  22800836.7324   22800846.1354
     -3395.3124
  22970368.28145  16231731.87745  25061258.2404   25061270.3854
     -5271.4224
 01 10  2  1  7  0.0060000  0  8G 2G13G28G 7G26G 8G27G31
   2860639.24147   2628572.92047  23485836.5214   23485846.4044
     -1293.8914
  47065846.58045  36678046.40745  25550533.3574   25550546.8264
     -6045.1874
   2754791.05647   2201934.85947  22578870.3894   22578877.9164
     -1845.8444
  -1395724.36745  -1021038.81545  25432492.7254   25432509.5104
      1036.3754
   -311229.24344   -198084.24945  26042369.0924   26042382.6664
       642.5784
   8778001.65448   6855033.95047  21963543.1934   21963552.0574
     -2156.0474
  23444337.12147  18287863.18547  22810535.3964   22810544.7754
     -3400.1254
  23049483.03245  16293379.75945  25076313.5614   25076324.7214
     -5277.0004
 01 10  2  1  7 15.0060000  0  8G 2G13G28G 7G26G 8G27G31
   2880072.31348   2643715.60547  23489534.8504   23489544.9084
     -1296.8754
  47156538.41245  36748715.26345  25567791.8114   25567805.2684
     -6046.7664
   2782516.00947   2223538.73947  22584146.0294   22584153.4864
     -1850.5004
  -1411256.41345  -1033141.51545  25429536.0924   25429552.6434
      1034.8914
   -320836.60744   -205570.47945  26040541.5764   26040554.6464
       638.7344
   8810381.85548   6880265.28947  21969705.0294   21969713.8934
     -2160.9694
  23495378.14247  18327635.41047  22820248.3504   22820257.8114
     -3405.0314
  23128682.79245  16355093.86145  25091384.6864   25091396.5724
     -5282.6564
 01 10  2  1  7 30.0060000  0  8G 2G13G28G 7G26G 8G27G31
   2899550.04747   2658893.09047  23493240.4044   23493250.5684
     -1300.0004
  47247253.89545  36819402.54345  25585053.7094   25585069.2994
     -6048.5004
   2810310.52747   2245196.82847  22589435.6624   22589443.1784
     -1855.2814
  -1426766.20645  -1045226.87845  25426585.1934   25426601.5454
      1033.2344
   -330386.19044   -213011.68645  26038724.4904   26038739.3424
       634.7194
   8842835.86948   6905554.14347  21975880.8814   21975889.6744
     -2166.0784
  23546492.63347  18367464.88247  22829975.2714   22829984.5804
     -3410.0784
  23207966.95446  16416873.76345  25106472.1234   25106484.6074
     -5288.4224
 01 10  2  1  7 45.0060000  0  8G 2G13G28G 7G26G 8G27G31
   2919078.95247   2674110.44847  23496957.2714   23496967.1314
     -1303.8444
  47337999.29745  36890113.12045  25602324.1544   25602337.7524
     -6050.8914
   2838181.11147   2266914.19147  22594739.0764   22594746.7684
     -1860.7814
  -1442246.77545  -1057289.48545  25423638.8184   25423656.1314
      1030.8444
   -339871.11943   -220402.47345  26036919.1704   26036932.2524
       629.9534
   8875370.41948   6930905.75947  21982071.9204   21982080.7714
     -2171.8754
  23597687.20047  18407356.75547  22839717.4284   22839726.6194
     -3415.8594
  23287341.66545  16478724.20545  25121576.1394   25121588.1664
     -5294.8754
 01 10  2  1  8  0.0060000  0  8G 2G13G28G 7G26G 8G27G31
   2938657.36447   2689366.38847  23500682.7714   23500692.7014
     -1306.8284
  47428772.63345  36960845.53745  25619597.3504   25619610.7714
     -6052.4064
   2866125.92147   2288689.38947  22600056.5144   22600064.1934
     -1865.4064
  -1457699.50245  -1069330.36845  25420698.5684   25420715.5414
      1029.2974
   -349292.75443   -227743.96045  26035126.0924   26035138.5884
       626.0474
   8907984.04048   6956318.98747  21988277.9124   21988286.6824
     -2176.8284
  23648960.26847  18447309.78747  22849474.1704   22849483.3504
     -3420.7664
  23366804.97245  16540643.65845  25136697.6864   25136709.0334
     -5300.4534
 01 10  2  1  8 15.0060000  0  8G 2G13G28G 7G26G 8G27G31
   2958281.80247   2704658.18647  23504416.6784   23504426.3854
     -1310.0624
  47519570.08545  37031596.66845  25636876.5534   25636891.7214
     -6054.1874
   2894141.46947   2310519.70547  22605387.6314   22605395.3344
     -1870.3124
  -1473127.60145  -1081352.08845  25417761.1864   25417777.6194
      1027.4694
   -358654.11543   -235038.50845  26033344.7174   26033357.1664
       621.8134
   8940673.39948   6981791.23247  21994498.6314   21994507.2954
     -2182.0624
  23700308.46747  18487321.37147  22859245.0844   22859254.2994
     -3425.9534
  23446353.06145  16602629.19745  25151835.4364   25151848.0144
     -5306.2664
 01 10  2  1  8 30.0060000  0  8G 2G13G28G 7G26G 8G27G31
   2977958.24847   2719990.51747  23508161.1624   23508171.1034
     -1313.6414
  47610397.49345  37102371.19045  25654159.1784   25654173.1624
     -6056.2974
   2922233.87947   2332409.92047  22610733.7954   22610741.4864
     -1875.5164
  -1488524.64545  -1093349.58545  25414830.7174   25414847.5964
      1025.2974
   -367948.80844   -242281.11045  26031575.6864   26031588.3344
       617.2814
   8973444.72948   7007327.34647  22000734.8034   22000743.4204
     -2187.6254
  23751737.97847  18527396.32047  22869032.0144   22869041.3814
     -3431.4844
  23525991.66945  16664685.28045  25166989.6154   25167000.6234
     -5312.4064
 01 10  2  1  8 45.0060000  0  8G 2G13G28G 7G26G 8G27G31
   2997686.41547   2735363.15147  23511915.0454   23511924.9754
     -1316.8444
  47701254.42545  37173168.69745  25671448.2324   25671462.7564
     -6058.0004
   2950402.69547   2354359.67047  22616093.7714   22616101.2994
     -1880.3754
  -1503890.52045  -1105322.82345  25411908.7714   25411924.9824
      1023.4384
   -377176.74344   -249471.67745  26029820.6004   26029831.6074
       613.0634
   9006297.84348   7032927.19147  22006986.3574   22006995.0334
     -2192.8444
  23803248.59647  18567534.46247  22878834.1004   22878843.6074
     -3436.6564
  23605720.20045  16726811.39545  25182162.3504   25182174.0374
     -5318.1094
 01 10  2  1  9  0.0060000  0  8G 2G13G28G 7G26G 8G27G31
   3017467.63247   2750777.11747  23515679.2254   23515689.2014
     -1320.3444
  47792141.75045  37243989.85645  25688744.1784   25688759.2284
     -6060.0004
   2978649.33147   2376370.05747  22621469.4514   22621476.7564
     -1885.5314
  -1519223.58745  -1117270.47645  25408988.7564   25409005.7054
      1021.2814
   -386336.23843   -256608.90045  26028076.5684   26028089.7794
       608.5004
   9039234.40748   7058592.06447  22013254.0924   22013262.7564
     -2198.3914
  23854841.84147  18607736.98647  22888651.9754   22888661.6004
     -3442.1414
  23685539.79145  16789008.49445  25197350.9594   25197363.9474
     -5324.1724
 01 10  2  1  9 15.0060000  0  8G 2G13G28G 7G26G 8G27G31
   3037300.14347   2766231.05447  23519453.9124   23519463.9244
     -1323.8914
  47883057.51645  37314833.18145  25706044.7014   25706058.3114
     -6062.0004
   3006972.02447   2398439.70647  22626858.6074   22626866.0064
     -1890.7344
  -1534525.17645  -1129193.60945  25406077.2324   25406094.5924
      1019.0314
   -395428.61843   -263693.81645  26026347.1234   26026359.0804
       603.9224
   9072252.65548   7084320.58647  22019537.3264   22019546.0494
     -2203.9694
  23906516.02547  18648002.58547  22898485.5374   22898494.9164
     -3447.6564
  23765448.42945  16851274.98445  25212556.4364   25212567.4434
     -5330.2194
 01 10  2  1  9 30.0060000  0  8G 2G13G28G 7G26G 8G27G31
   3057182.58448   2781723.90147  23523237.9594   23523248.1704
     -1327.2664
  47974000.16845  37385697.49445  25723350.5614   25723363.8894
     -6063.8124
   3035369.38847   2420567.54547  22632262.2794   22632269.8184
     -1895.7344
  -1549796.35445  -1141093.03545  25403170.1464   25403186.4984
      1016.9694
   -404454.92944   -270727.28145  26024629.8424   26024643.0184
       599.4384
   9105351.55748   7110111.95147  22025835.5764   22025844.3814
     -2209.3754
  23958269.94247  18688330.31447  22908333.7014   22908342.9754
     -3453.0164
  23845444.41845  16913609.51945  25227780.1464   25227790.9324
     -5336.0624
 01 10  2  1  9 45.0060000  0  8G 2G13G28G 7G26G 8G27G31
   3077117.15347   2797257.36247  23527030.1784   23527040.1194
     -1330.6874
  48064971.66545  37456584.26245  25740662.7094   25740676.7284
     -6065.6874
   3063843.60047   2442755.26347  22637680.9434   22637688.5534
     -1900.8124
  -1565034.46145  -1152966.71645  25400272.1234   25400288.4984
      1014.7814
   -413412.61344   -277707.25845  26022924.3574   26022936.3614
       594.9064
   9138533.49048   7135968.02247  22032149.9204   22032158.6664
     -2214.8594
  24010105.91547  18728721.98347  22918197.5294   22918206.9324
     -3458.4374
  23925529.70145  16976013.63945  25243020.1864   25243032.2254
     -5341.9694
 01 10  2  1 10  0.0060000  0  8G 2G13G28G 7G26G 8G27G31
   3097101.57747   2812829.67747  23530833.0374   23530842.8384
     -1333.7504
  48155969.41045  37527491.52945  25757978.6154   25757993.1624
     -6067.1724
   3092392.26747   2465001.00247  22643113.7564   22643121.2484
     -1905.5314
  -1580241.54645  -1164816.21445  25397376.8424   25397392.9474
      1012.9844
   -422303.43644   -284635.10745  26021233.4124   26021244.8074
       590.6884
   9171796.32948   7161887.13447  22038479.5764   22038488.3694
     -2220.0164
  24062021.73547  18769175.87347  22928076.9754   22928086.2954
     -3463.5164
  24005701.62445  17038485.27945  25258276.0294   25258287.7754
     -5347.4694
 01 10  2  1 10 15.0060000  0  8G 2G13G28G 7G26G 8G27G31
   3117136.99048   2828441.72147  23534645.6154   23534655.4754
     -1337.3444
  48246994.29545  37598419.87545  25775300.8114   25775316.0144
     -6069.1724
   3121016.48647   2487305.61047  22648560.6234   22648567.9754
     -1910.7504
  -1595416.12245  -1176640.37645  25394488.9434   25394505.9284
      1010.5944
   -431125.93344   -291509.71545  26019554.2174   26019566.9124
       585.9384
   9205141.25448   7187870.21347  22044825.1544   22044833.9124
     -2225.6874
  24114018.70447  18809692.99647  22937971.7564   22937981.0884
     -3469.1254
  24085961.07746  17101025.10845  25273548.9514   25273561.1894
     -5353.5004
 01 10  2  1 10 30.0060000  0  8G 2G13G28G 7G26G 8G27G31
   3137222.49648   2844092.80647  23538467.9594   23538477.6664
     -1340.5784
  48338045.23145  37669368.51645  25792628.2324   25792641.3614
     -6070.7814
   3149715.45247   2509668.45847  22654021.7874   22654028.9864
     -1915.6254
  -1610558.66545  -1188439.58045  25391607.9674   25391624.1314
      1008.5314
   -439880.69944   -298331.57245  26017887.5064   26017899.5804
       581.5004
   9238567.74148   7213916.84247  22051185.8574   22051194.5804
     -2231.0314
  24166096.03647  18850272.73547  22947881.7874   22947891.1894
     -3474.3914
  24166306.80246  17163632.17345  25288838.5844   25288850.4594
     -5359.1254
 01 10  2  1 10 45.0060000  0  8G 2G13G28G 7G26G 8G27G31
   3157358.20847   2859783.00347  23542299.4514   23542309.3114
     -1343.9374
  48429121.99945  37740337.28445  25809957.6074   25809970.9594
     -6072.5474
   3178489.24447   2532089.61947  22659497.1544   22659504.4944
     -1920.6254
  -1625668.78745  -1200213.51145  25388732.1624   25388749.1234
      1006.3754
   -448567.18443   -305100.19145  26016234.0374   26016248.6074
       576.9224
   9272075.92748   7240027.13847  22057562.2484   22057570.9944
     -2236.4844
  24218254.02247  18890915.32047  22957807.1074   22957816.4634
     -3479.7664
  24246738.65346  17226306.37346  25304144.1394   25304156.1894
     -5364.8594
 01 10  2  1 11  0.0060000  0  8G 2G13G28G 7G26G 8G27G31
   3177543.17248   2875511.59147  23546141.0454   23546150.9164
     -1347.3594
  48520223.44945  37811325.34845  25827293.0064   25827308.4554
     -6074.3124
   3207336.79747   2554568.25347  22664986.8654   22664994.2054
     -1925.6874
  -1640746.98345  -1211962.59045  25385863.0764   25385879.3224
      1004.0784
   -457185.97944   -311816.02845  26014594.6074   26014606.4124
       572.2664
   9305665.22748   7266200.63147  22063953.8734   22063962.6434
     -2242.0314
  24270491.82247  18931620.10347  22967747.7644   22967757.2254
     -3485.2344
  24327255.49845  17289046.75945  25319465.5294   25319477.7214
     -5370.6724
 01 10  2  1 11 15.0060000  0  8G 2G13G28G 7G26G 8G27G31
   3197779.69148   2891280.34547  23549991.5684   23550001.4634
     -1350.5944
  48611351.66945  37882334.23145  25844634.9754   25844650.4364
     -6075.8754
   3236260.38547   2577106.13847  22670491.1004   22670498.6744
     -1930.5624
  -1655790.67845  -1223684.75345  25383000.6394   25383016.6034
      1001.9694
   -465734.38744   -318477.12745  26012968.5064   26012980.8144
       567.7664
   9339337.94948   7292439.14247  22070361.8504   22070370.5144
     -2247.4224
  24322811.91047  18972389.00947  22977703.7644   22977713.0254
     -3490.5314
  24407859.33945  17351854.96945  25334804.4904   25334816.2484
     -5376.2664
 01 10  2  1 11 30.0060000  0  8G 2G13G28G 7G26G 8G27G31
   3218066.27648   2907088.11247  23553851.9434   23553861.6864
     -1354.0004
  48702504.90945  37953362.59845  25861981.3734   25861995.6864
     -6077.5944
   3265258.47747   2599702.07347  22676008.7874   22676016.1974
     -1935.5784
  -1670801.00045  -1235380.93345  25380144.6934   25380160.3304
       999.6564
   -474213.56144   -325084.20445  26011355.4124   26011366.7484
       563.0634
   9373092.87348   7318741.69447  22076785.4824   22076794.1824
     -2252.9694
  24375212.90747  19013220.95847  22987675.2174   22987684.6434
     -3496.0004
  24488548.37045  17414729.55545  25350158.8654   25350169.9204
     -5381.9844
 01 10  2  1 11 45.0060000  0  8G 2G13G28G 7G26G 8G27G31
   3238402.85148   2922934.83247  23557721.8114   23557731.4244
     -1357.5624
  48793682.82145  38024410.21145  25879332.7564   25879349.2834
     -6079.4374
   3294330.94547   2622355.96847  22681540.8504   22681548.3304
     -1940.7504
  -1685777.60045  -1247050.83445  25377293.8034   25377309.6864
       997.2194
   -482623.19845   -331637.08245  26009754.6704   26009764.7284
       558.1884
   9406930.10148   7345108.38147  22083224.3574   22083233.0804
     -2258.6724
  24427694.85047  19054115.97847  22997662.1004   22997671.4904
     -3501.6094
  24569322.21245  17477670.25345  25365529.3734   25365540.1464
     -5387.8594
 01 10  2  1 12  0.0060000  0  8G 2G13G28G 7G26G 8G27G31
   3258791.36648   2938822.02747  23561601.8184   23561611.2794
     -1360.8444
  48884887.05745  38095478.34345  25896687.2794   25896702.5294
     -6081.0164
   3323479.87847   2645069.44147  22687087.8574   22687095.2914
     -1945.6724
  -1700718.35245  -1258692.79545  25374450.6004   25374466.2714
       994.9844
   -490960.98045   -338134.01645  26008168.1394   26008179.6394
       553.5784
   9440851.65248   7371540.77647  22089679.1624   22089687.7324
     -2264.1254
  24480259.70947  19095075.60647  23007664.7644   23007674.1544
     -3506.9534
  24650182.40145  17540678.22845  25380915.8964   25380927.1624
     -5393.4224
 01 10  2  1 12 15.0060000  0  8G 2G13G28G 7G26G 8G27G31
   3279228.83548   2954747.36947  23565491.2324   23565500.6004
     -1364.2664
  48976114.31145  38166564.38145  25914047.9434   25914061.1784
     -6082.6874
   3352702.15647   2667840.07247  22692648.7254   22692656.2524
     -1950.7194
  -1715625.82745  -1270308.84345  25371614.3964   25371629.4244
       992.5784
   -499229.51945   -344576.96945  26006594.6074   26006606.5764
       548.7814
   9474854.72648   7398036.69547  22096149.6624   22096158.3144
     -2269.7194
  24532904.63647  19136097.63247  23017682.7714   23017692.0804
     -3512.4534
  24731125.62745  17603750.87545  25396319.1624   25396331.2484
     -5399.1094
 01 10  2  1 12 30.0060000  0  8G 2G13G28G 7G26G 8G27G31
   3299716.56148   2970711.87247  23569389.4824   23569398.9554
     -1367.5314
  49067365.69745  38237669.22645  25931412.5294   25931425.9284
     -6084.2664
   3381999.05247   2690668.84247  22698224.2094   22698231.5844
     -1955.6254
  -1730498.28545  -1281897.59245  25368783.1934   25368798.6544
       990.3284
   -507427.06245   -350964.62745  26005034.5534   26005046.7324
       544.1254
   9508940.88548   7424597.35447  22102636.1234   22102644.5764
     -2275.1874
  24585631.03347  19177183.14047  23027716.3734   23027725.8574
     -3517.8124
  24812152.93945  17666889.04745  25411738.6154   25411750.4674
     -5404.6254
 01 10  2  1 12 45.0060000  0  8G 2G13G28G 7G26G 8G27G31
   3320254.62048   2986715.59247  23573297.8964   23573307.3344
     -1370.9374
  49158640.98645  38308792.73445  25948782.1154   25948795.3504
     -6085.8594
   3411370.57047   2713555.76447  22703813.0064   22703820.3574
     -1960.6254
  -1745335.39345  -1293458.80445  25365959.6234   25365975.0494
       987.9064
   -515553.28645   -357296.70345  26003487.3264   26003499.3894
       539.3284
   9543110.35248   7451222.92847  22109138.1784   22109146.7254
     -2280.7974
  24638439.14647  19218332.31847  23037765.3814   23037774.9364
     -3523.3124
  24893264.21845  17730092.67245  25427173.5454   25427184.1074
     -5410.2504
 01 10  2  1 13  0.0060000  0  8G 2G13G28G 7G26G 8G27G31
   3340842.58048   3002758.20147  23577215.3894   23577224.9674
     -1374.1414
  49249939.59945  38379934.40745  25966154.5454   25966167.5334
     -6087.3124
   3440816.29547   2736500.50447  22709416.4364   22709423.9284
     -1965.4694
  -1760137.17145  -1304992.48345  25363142.8964   25363158.0534
       985.6414
   -523608.06744   -363573.09945  26001954.8894   26001964.9244
       534.6414
   9577362.93848   7477913.27647  22115656.3814   22115665.0454
     -2286.2344
  24691328.66447  19259544.92547  23047830.0144   23047839.2524
     -3528.6414
  24974458.63145  17793361.06345  25442624.2174   25442635.2834
     -5415.6724
 01 10  2  1 13 15.0070000  0  8G 2G13G28G 7G26G 8G27G31
   3361483.64348   3018842.18647  23581143.3004   23581153.1014
     -1377.6564
  49341269.21845  38451100.23645  25983534.9794   25983549.8904
     -6089.0164
   3470340.02447   2759506.03047  22715034.6594   22715041.8944
     -1970.6094
  -1774902.37346  -1316497.66345  25360334.4254   25360348.9724
       983.0634
   -531589.86445   -369792.60045  26000436.0034   26000447.0584
       529.6564
   9611702.90948   7504671.71447  22122191.0584   22122199.6754
     -2291.9844
  24744305.11847  19300825.28047  23057911.3474   23057920.5264
     -3534.2664
  25055743.29645  17856699.77245  25458092.4874   25458103.3314
     -5421.4064
 01 10  2  1 13 30.0070000  0  8G 2G13G28G 7G26G 8G27G31
   3382174.84048   3034965.23847  23585081.1364   23585090.9724
     -1381.1874
  49432617.20545  38522280.34745  26000918.7064   26000932.4914
     -6090.7194
   3499937.60047   2782569.09847  22720666.5424   22720673.8004
     -1975.7504
  -1789628.94845  -1327972.75346  25357530.4334   25357544.6634
       980.4844
   -539497.42145   -375954.30745  25998931.1514   25998941.7024
       524.6724
   9646125.61248   7531494.61447  22128741.4644   22128750.1164
     -2297.7504
  24797361.30647  19342167.76447  23068007.6284   23068016.9604
     -3539.9064
  25137106.70945  17920099.87445  25473575.4094   25473586.5584
     -5427.0784
 01 10  2  1 13 45.0070000  0  8G 2G13G28G 7G26G 8G27G31
   3402915.78748   3051127.06147  23589027.3004   23589036.8904
     -1384.2974
  49523987.52745  38593477.89845  26018305.6284   26018319.0504
     -6092.0004
   3529609.05847   2805689.74047  22726312.6514   22726320.0504
     -1980.4694
  -1804319.43345  -1339419.70946  25354734.2924   25354750.6084
       978.2344
   -547332.52845   -382059.52745  25997441.0584   25997451.1754
       520.0004
   9680631.71548   7558382.50647  22135307.7764   22135316.5224
     -2303.1094
  24850499.09547  19383573.83547  23078119.0734   23078128.4994
     -3545.1564
  25218552.32445  17983564.01045  25489073.4334   25489085.2374
     -5432.3594
 01 10  2  1 14  0.0070000  0  8G 2G13G28G 7G26G 8G27G31
   3423705.28048   3067326.70647  23592983.8004   23592993.3544
     -1387.5164
  49615378.90545  38664691.84145  26035696.6834   26035713.1044
     -6093.3914
   3559353.31447   2828867.09747  22731972.6754   22731980.2614
     -1985.3124
  -1818974.38245  -1350838.99346  25351945.9644   25351962.1864
       975.8914
   -555096.13945   -388109.05145  25995962.8394   25995969.8864
       515.2504
   9715220.27348   7585334.64747  22141889.7064   22141898.5114
     -2308.5944
  24903717.44447  19425042.68447  23088246.0584   23088255.6244
     -3550.5164
  25300078.65645  18047091.04045  25504588.3004   25504599.0614
     -5437.7034
 01 10  2  1 14 15.0070000  0  8G 2G13G28G 7G26G 8G27G31
   3444546.23848   3083566.45847  23596949.2924   23596958.8584
     -1390.9534
  49706793.90845  38735924.17345  26053092.1834   26053105.5584
     -6094.9534
   3589173.21647   2852103.40347  22737647.4254   22737654.9174
     -1990.3444
  -1833590.62245  -1362228.09545  25349164.3084   25349180.5194
       973.2664
   -562784.89744   -394100.27045  25994499.6284   25994511.3154
       510.2504
   9749894.44648   7612353.50747  22148487.8474   22148496.7574
     -2314.2974
  24957019.41847  19466576.69547  23098389.3154   23098398.8004
     -3556.0944
  25381688.28745  18110682.98645  25520117.4874   25520130.2764
     -5443.2504
 01 10  2  1 14 30.0070000  0  8G 2G13G28G 7G26G 8G27G31
   3465436.53048   3099844.65147  23600924.6984   23600934.1714
     -1394.1724
  49798230.15945  38807173.08045  26070492.8944   26070507.2654
     -6096.2974
   3619066.63847   2875397.00347  22743336.0894   22743343.3824
     -1995.1874
  -1848169.98745  -1373588.50045  25346388.4644   25346405.2144
       970.8914
   -570400.61744   -400034.48345  25993050.0654   25993063.3944
       505.4384
   9784652.20648   7639437.49347  22155102.0974   22155110.9134
     -2319.8124
  25010402.98147  19508174.27947  23108547.8314   23108557.1754
     -3561.4694
  25463378.92345  18174338.07045  25535662.5344   25535673.7294
     -5448.5624
 01 10  2  1 14 45.0070000  0  8G 2G13G28G 7G26G 8G27G31
   3486375.78348   3116160.99447  23604909.0034   23604918.4294
     -1397.6564
  49889687.05845  38878438.08245  26087895.0114   26087908.3514
     -6097.8594
   3649033.17147   2898747.56247  22749038.6984   22749045.9214
     -2000.2664
  -1862712.42245  -1384920.11346  25343622.7844   25343637.4604
       968.1884
   -577943.20044   -405911.75945  25991614.1444   25991625.3274
       500.3284
   9819493.36448   7666586.46547  22161732.0034   22161740.7844
     -2325.5784
  25063867.85847  19549835.22747  23118722.1834   23118731.6324
     -3567.1094
  25545149.79945  18238055.66645  25551222.9404   25551234.0424
     -5454.1414
 01 10  2  1 15  0.0070000  0  8G 2G13G28G 7G26G 8G27G31
   3507366.71748   3132517.60747  23608903.6674   23608912.9524
     -1401.0474
  49981167.05245  38949721.07245  26105305.0584   26105319.2414
     -6099.3594
   3679075.51947   2922157.21047  22754755.1834   22754762.2764
     -2005.2814
  -1877214.95745  -1396220.63145  25340862.3544   25340878.1674
       965.5634
   -585409.57444   -411729.62845  25990193.4794   25990205.8824
       495.2814
   9854420.78248   7693802.65847  22168378.5584   22168387.3394
     -2331.3124
  25117416.89847  19591561.75747  23128911.9644   23128921.2374
     -3572.6874
  25627003.40444  18301837.71545  25566798.8394   25566810.9364
     -5459.5624
 01 10  2  1 15 15.0070000  0  8G 2G13G28G 7G26G 8G27G31
   3528404.43348   3148910.67847  23612907.1364   23612916.7264
     -1404.3124
  50072665.04445  39021018.08945  26122715.4334   26122729.4294
     -6100.6874
   3709188.78647   2945622.10847  22760485.7224   22760492.8744
     -2010.1414
  -1891682.16545  -1407493.62946  25338109.1594   25338125.3944
       963.0474
   -592804.24744   -417491.69945  25988786.5034   25988801.0264
       490.3284
   9889429.84848   7721082.46647  22175040.3234   22175048.9054
     -2336.8914
  25171045.36647  19633350.18147  23139117.3004   23139126.6554
     -3578.1094
  25708934.55744  18365680.17145  25582389.3474   25582399.3704
     -5464.8914
 01 10  2  1 15 30.0070000  0  8G 2G13G28G 7G26G 8G27G31
   3549491.99348   3165342.57947  23616919.4014   23616929.1674
     -1407.5004
  50164183.82645  39092331.30845  26140131.7844   26140145.3944
     -6101.9374
   3739375.82047   2969144.49647  22766230.1904   22766237.4364
     -2014.9374
  -1906110.47245  -1418736.30746  25335363.4954   25335380.1634
       960.5944
   -600123.89645   -423195.17745  25987393.9644   25987405.4054
       485.4844
   9924523.74348   7748428.37847  22181718.8544   22181727.2024
     -2342.4064
  25224756.35347  19675202.90047  23149337.9254   23149347.0694
     -3583.4844
  25790945.94943  18429585.15845  25597995.9334   25598007.8544
     -5470.1094
 01 10  2  1 15 45.0070000  0  8G 2G13G28G 7G26G 8G27G31
   3570629.38448   3181813.31647  23620941.8394   23620951.5814
     -1410.8754
  50255723.09445  39163660.49645  26157549.9334   26157563.3434
     -6103.3754
   3769636.78847   2992724.49547  22771988.9874   22771996.2454
     -2019.9224
  -1920499.64945  -1429948.51945  25332625.8624   25332641.2654
       957.9064
   -607368.05145   -428839.95145  25986015.4254   25986026.4564
       480.3444
   9959702.54048   7775840.44947  22188413.0114   22188421.5224
     -2348.1564
  25278550.00347  19717120.03847  23159574.6904   23159583.9054
     -3589.0624
  25873037.32243  18493552.48245  25613617.0034   25613630.5194
     -5475.4844
 01 10  2  1 16  0.0070000  0  8G 2G13G28G 7G26G 8G27G31
   3591816.67748   3198322.93147  23624973.5654   23624983.3544
     -1414.3444
  50347282.72045  39235005.56145  26174974.0584   26174990.1754
     -6104.8444
   3799971.73647   3016362.13447  22777760.8084   22777768.0894
     -2024.9694
  -1934849.17845  -1441129.79846  25329893.2614   25329908.9794
       955.1254
   -614536.26845   -434425.48345  25984651.1754   25984661.2454
       475.1564
   9994966.71248   7803319.04547  22195123.4334   22195131.8514
     -2353.9844
  25332426.52347  19759101.75147  23169827.2694   23169836.6474
     -3594.7344
  25955208.58243  18557582.03845  25629254.4404   25629266.8194
     -5480.9064
 01 10  2  1 16 15.0070000  0  8G 2G13G28G 7G26G 8G27G31
   3613055.19848   3214872.47047  23629014.9334   23629024.5114
     -1417.5314
  50438863.79245  39306367.26145  26192402.2844   26192419.0934
     -6106.0314
   3830381.74547   3040058.26447  22783547.7374   22783555.0304
     -2029.7664
  -1949157.42845  -1452278.93746  25327171.4334   25327187.3044
       952.5784
   -621626.78145   -439950.55045  25983302.1284   25983313.1594
       470.1724
  10030317.65548   7830865.25047  22201850.5974   22201859.0384
     -2359.5474
  25386387.26347  19801149.08547  23180095.4724   23180104.7804
     -3600.1254
  26037460.57943  18621674.51245  25644905.9334   25644919.2024
     -5486.0944
 01 10  2  1 16 30.0070000  0  8G 2G13G28G 7G26G 8G27G31
   3634346.12848   3231462.83547  23633066.3864   23633075.6944
     -1421.2034
  50530467.10345  39377746.38145  26209832.2614   26209846.0934
     -6107.6874
   3860868.11847   3063813.90047  22789349.0034   22789356.2144
     -2035.0314
  -1963422.99845  -1463394.81946  25324457.1674   25324472.9794
       949.5474
   -628638.19745   -445413.90345  25981967.4174   25981979.1984
       464.7194
  10065756.50848   7858479.96447  22208594.2924   22208602.8624
     -2365.5944
  25440433.54347  19843263.08047  23190380.1284   23190389.6244
     -3606.0004
  26119794.18043  18685830.55945  25660573.2764   25660586.1244
     -5491.7034
 01 10  2  1 16 45.0070000  0  8G 2G13G28G 7G26G 8G27G31
   3655685.35248   3248090.84447  23637127.5734   23637136.8234
     -1424.2344
  50622088.30545  39449139.38845  26227268.0264   26227281.6594
     -6108.6874
   3891426.70047   3087625.80347  22795164.3394   22795171.6674
     -2039.6564
  -1977649.53145  -1474480.28846  25321749.7064   25321765.4724
       947.1254
   -635574.13345   -450818.42445  25980647.5654   25980659.1944
       459.8594
  10101279.59648   7886160.31747  22215354.1444   22215362.7614
     -2371.0314
  25494561.43547  19885440.67247  23200680.0734   23200689.6404
     -3611.2664
  26202204.93043  18750046.78645  25676255.4404   25676268.1944
     -5496.6254
 01 10  2  1 17  0.0070000  0  8G 2G13G28G 7G26G 8G27G31
   3677074.04848   3264757.39547  23641197.8784   23641207.1404
     -1427.5944
  50713728.47545  39520547.17545  26244706.1204   26244724.5934
     -6110.0164
   3922058.67147   3111494.89347  22800993.4094   22801000.8314
     -2044.6094
  -1991835.49245  -1485534.14146  25319050.1444   25319065.6984
       944.3284
   -642433.02245   -456162.99245  25979343.0114   25979354.4994
       454.6564
  10136888.25248   7913907.34047  22222130.2064   22222138.7414
     -2376.7974
  25548772.26247  19927682.88347  23210996.1284   23211005.5304
     -3616.8594
  26284693.79543  18814323.77345  25691953.8004   25691965.6044
     -5501.8914
 01 10  2  1 17 15.0070000  0  8G 2G13G28G 7G26G 8G27G31
   3698511.71048   3281462.10747  23645277.1674   23645286.5814
     -1430.5944
  50805386.83745  39591969.16245  26262149.6984   26262165.1244
     -6110.9374
   3952763.43547   3135420.70647  22806836.3864   22806843.6674
     -2049.2034
  -2005980.99646  -1496556.45446  25316359.6044   25316374.9484
       941.8754
   -649214.97045   -461447.58645  25978052.3544   25978062.8234
       449.7664
  10172582.13248   7941720.77447  22228922.5504   22228931.0854
     -2382.2194
  25603065.59747  19969989.38247  23221327.6444   23221336.8354
     -3622.0944
  26367259.92643  18878661.05045  25707664.5194   25707675.9724
     -5506.7664
 01 10  2  1 17 30.0070000  0  8G 2G13G28G 7G26G 8G27G31
   3719996.93548   3298203.87647  23649365.5114   23649375.0424
     -1434.0944
  50897061.68545  39663403.97945  26279593.9644   26279611.2184
     -6112.3594
   3983539.59547   3159402.15047  22812692.8864   22812700.1794
     -2054.2814
  -2020087.15445  -1507548.13646  25313672.6754   25313688.4054
       938.9224
   -655920.99645   -466672.93245  25976776.1284   25976788.2494
       444.3754
  10208360.00448   7969599.65847  22235730.8084   22235739.2614
     -2388.1564
  25657440.17447  20012359.19647  23231674.7694   23231684.0894
     -3627.8444
  26449901.77642  18943057.32245  25723390.4094   25723403.8544
     -5512.1094
 01 10  2  1 17 45.0070000  0  8G 2G13G28G 7G26G 8G27G31
   3741533.73448   3314985.83447  23653463.8154   23653473.3944
     -1437.5944
  50988756.88045  39734854.65245  26297042.7454   26297059.4254
     -6113.7974
   4014391.05347   3183442.27047  22818563.6124   22818570.8234
     -2059.3594
  -2034149.53245  -1518505.69846  25310998.2534   25311013.4094
       935.9384
   -662546.77045   -471835.80645  25975515.6594   25975527.1474
       438.9534
  10244226.04648   7997547.24147  22242555.8084   22242564.2494
     -2394.0944
  25711900.11347  20054795.52247  23242038.2764   23242047.5854
     -3633.5944
  26532622.92642  19007515.29845  25739132.2294   25739146.2724
     -5517.4844
 01 10  2  1 18  0.0070000  0  8G 2G13G28G 7G26G 8G27G31
   3763120.72348   3331806.90147  23657571.1834   23657580.6324
     -1440.6564
  51080470.74345  39806319.91545  26314496.2294   26314510.8704
     -6114.7034
   4045316.53747   3207540.07447  22824448.5974   22824455.8434
     -2064.0314
  -2048169.17146  -1529429.94646  25308330.8154   25308345.7144
       933.3594
   -669093.34545   -476936.98045  25974269.4404   25974280.3904
       433.9384
  10280179.02448   8025562.56947  22249397.2694   22249405.7694
     -2399.6254
  25766444.14747  20097297.37547  23252417.4484   23252426.9444
     -3638.9374
  26615421.67743  19072033.83145  25754888.4954   25754902.2924
     -5522.3594
 01 10  2  1 18 15.0070000  0  8G 2G13G28G 7G26G 8G27G31
   3784751.95248   3348662.43647  23661688.0034   23661697.5694
     -1443.8124
  51172197.03445  39877794.80945  26331950.0814   26331965.3084
     -6115.7504
   4076310.09247   3231690.91947  22830346.2294   22830353.4174
     -2068.7504
  -2062151.72345  -1540325.31346  25305668.1754   25305683.7184
       930.6564
   -675566.15845   -481980.66445  25973036.6594   25973049.0154
       428.7974
  10316213.27848   8053641.23447  22256254.4254   22256263.1014
     -2405.2504
  25821066.40847  20139860.19047  23262811.6284   23262821.2414
     -3644.3594
  26698291.95743  19136608.08745  25770658.6674   25770670.6124
     -5527.3124
 01 10  2  1 18 30.0070000  0  8G 2G13G28G 7G26G 8G27G31
   3806431.13548   3365555.34547  23665813.6364   23665823.1554
     -1446.8914
  51263939.25045  39949282.11745  26349409.3704   26349426.4834
     -6116.6414
   4107375.32547   3255897.61547  22836257.8944   22836265.1404
     -2073.4064
  -2076093.17446  -1551188.63846  25303017.0034   25303032.2414
       928.0164
   -681961.22345   -486963.73345  25971820.3944   25971831.7294
       423.7344
  10352332.62448   8081786.20347  22263127.8474   22263136.1834
     -2410.7974
  25875770.70747  20182486.92447  23273221.9644   23273231.6014
     -3649.6874
  26781237.15044  19201240.72245  25786442.0344   25786454.0974
     -5532.1564
 01 10  2  1 18 45.0070000  0  8G 2G13G28G 7G26G 8G27G31
   3828159.23148   3382486.36047  23669948.5504   23669958.0344
     -1450.1254
  51355698.04645  40020782.35145  26366869.6594   26366885.1794
     -6117.7344
   4138513.08847   3280160.83247  22842183.2064   22842190.4294
     -2078.2194
  -2089992.13145  -1562018.85546  25300369.4014   25300384.4174
       925.2664
   -688277.24445   -491885.25945  25970618.8314   25970629.5464
       418.4844
  10388538.06148   8109998.24947  22270017.4334   22270025.6634
     -2416.5164
  25930558.02647  20225178.34947  23283647.7064   23283657.2964
     -3655.2034
  26864257.78343  19265932.14645  25802240.8004   25802252.9794
     -5537.1724
 01 10  2  1 19  0.0070000  0  8G 2G13G28G 7G26G 8G27G31
   3849936.25648   3399455.50547  23674091.7144   23674101.2224
     -1453.4694
  51447473.22145  40092295.32645  26384333.7374   26384348.9294
     -6118.9374
   4169723.39147   3304480.57347  22848122.1904   22848129.4134
     -2083.1414
  -2103848.35145  -1572815.77646  25297733.5114   25297749.1594
       922.2814
   -694513.77445   -496744.79945  25969430.7144   25969443.7024
       413.0784
  10424829.86248   8138277.60147  22276923.5814   22276931.9054
     -2422.3754
  25985428.54647  20267934.60247  23294089.1834   23294098.9254
     -3660.8444
  26947353.60643  19330682.18845  25818052.1204   25818064.5934
     -5542.2504
 01 10  2  1 19 15.0070000  0  8G 2G13G28G 7G26G 8G27G31
   3871760.90248   3416461.75047  23678245.0344   23678254.3904
     -1456.6254
  51539263.21944  40163819.88145  26401800.3394   26401817.6514
     -6119.8914
   4201004.97747   3328855.86047  22854074.6514   22854081.8864
     -2087.8594
  -2117662.68745  -1583580.06946  25295105.1044   25295120.7064
       919.5164
   -700671.72045   -501543.10845  25968259.1284   25968272.9724
       407.8444
  10461206.88048   8166623.34847  22283845.8084   22283854.1084
     -2428.0314
  26040381.09947  20310754.78247  23304546.1364   23304555.9254
     -3666.2974
  27030523.19043  19395489.64445  25833878.9954   25833892.2294
     -5547.1414
 01 10  2  1 19 30.0070000  0  8G 2G13G28G 7G26G 8G27G31
   3893634.17548   3433505.89947  23682407.4484   23682416.8154
     -1459.9374
  51631068.83545  40235356.59445  26419273.4954   26419289.7414
     -6120.9534
   4232358.74247   3353287.40247  22860041.3474   22860048.5694
     -2092.7504
  -2131433.75146  -1594310.61746  25292485.3234   25292501.0074
       916.5164
   -706749.75645   -506279.19445  25967102.3784   25967114.7104
       402.4224
  10497670.35348   8195036.47047  22290784.7454   22290793.2334
     -2433.8754
  26095416.74647  20353639.71147  23315019.0814   23315028.8584
     -3671.9064
  27113767.13744  19460355.07445  25849720.4874   25849732.8084
     -5552.1724
 01 10  2  1 19 45.0070000  0  8G 2G13G28G 7G26G 8G27G31
   3915556.39148   3450588.17747  23686578.6834   23686588.0854
     -1463.0004
  51722890.05845  40306905.46945  26436745.1514   26436761.7614
     -6121.8124
   4263784.85647   3377775.30847  22866021.6594   22866028.9764
     -2097.3914
  -2145161.03445  -1605007.07246  25289872.1984   25289886.6754
       913.7814
   -712747.18345   -510952.44345  25965961.4404   25965970.9254
       397.2504
  10534220.70348   8223517.27747  22297739.8394   22297748.2334
     -2439.5004
  26150535.89447  20396589.70447  23325507.8944   23325517.3194
     -3677.2974
  27197085.47945  19525278.47245  25865575.8394   25865587.6444
     -5556.9374
 01 10  2  1 20  0.0070000  0  8G 2G13G28G 7G26G 8G27G31
   3937524.24448   3467706.02447  23690759.1364   23690768.3974
     -1466.1874
  51814723.43845  40378463.81145  26454219.4954   26454236.7964
     -6122.7814
   4295280.07947   3402317.07247  22872014.8944   22872022.0224
     -2102.1414
  -2158847.36146  -1615671.61146  25287267.9334   25287282.3044
       910.8914
   -718666.91345   -515565.13745  25964835.4954   25964846.6084
       391.8914
  10570854.85548   8252063.39247  22304711.3154   22304719.6284
     -2445.2194
  26205735.42447  20439602.33047  23336011.9484   23336021.2334
     -3682.7974
  27280474.57145  19590257.03545  25881444.5504   25881455.9214
     -5561.7814
 01 10  2  1 20 15.0070000  0  8G 2G13G28G 7G26G 8G27G31
   3959545.34748   3484865.36147  23694949.5734   23694958.8474
     -1469.7504
  51906576.27244  40450037.30645  26471698.2454   26471714.3744
     -6124.1094
   4326852.16147   3426918.72547  22878022.7374   22878029.8194
     -2107.2664
  -2172484.68946  -1626297.96546  25284672.5504   25284686.9794
       907.5944
   -724500.98045   -520111.13245  25963724.5424   25963736.7104
       386.1724
  10607580.57348   8280680.84947  22311699.7764   22311708.1124
     -2451.3444
  26261023.01147  20482683.56947  23346532.5584   23346541.7614
     -3688.6874
  27363941.77245  19655296.39745  25897327.4094   25897339.1324
     -5567.0004
 01 10  2  1 20 30.0070000  0  8G 2G13G28G 7G26G 8G27G31
   3981613.86648   3502061.63447  23699149.4094   23699158.7294
     -1472.6724
  51998442.46445  40521621.22445  26489180.7534   26489195.1594
     -6124.6874
   4358495.11847   3451575.60747  22884044.2294   22884051.2884
     -2111.7504
  -2186078.65846  -1636890.53046  25282085.9564   25282099.9404
       904.9534
   -730254.74645   -524594.48445  25962629.6284   25962641.3274
       381.0474
  10644392.28448   8309365.32047  22318704.6594   22318713.0774
     -2456.8444
  26316392.98847  20525829.01947  23357069.4174   23357078.6904
     -3693.9374
  27447480.99145  19720391.91745  25913223.8314   25913236.1864
     -5571.5164
 01 10  2  1 20 45.0070000  0  8G 2G13G28G 7G26G 8G27G31
   4003727.52548   3519293.09147  23703357.3624   23703366.6364
     -1475.7504
  52090319.42045  40593213.55145  26506665.2374   26506679.9014
     -6125.4844
   4390206.66247   3476285.92947  22890078.6674   22890085.6554
     -2116.3914
  -2199631.16346  -1647450.78646  25279506.8784   25279521.6364
       902.0944
   -735930.26745   -529016.93145  25961549.3394   25961560.6864
       375.7504
  10681287.82748   8338115.10847  22325725.6594   22325734.0654
     -2462.5004
  26371843.17147  20569036.94747  23367621.1904   23367630.4054
     -3699.3594
  27531089.64444  19785541.50845  25929133.8154   25929146.3234
     -5576.2194
 01 10  2  1 21  0.0070000  0  8G 2G13G28G 7G26G 8G27G31
   4025891.49048   3536563.74647  23707575.1444   23707584.4874
     -1479.1414
  52182212.27045  40664818.22045  26524151.9484   26524168.6754
     -6126.5624
   4421991.97747   3501053.74247  22896127.3784   22896134.4604
     -2121.3444
  -2213136.56746  -1657974.34146  25276936.6044   25276951.3274
       898.9064
   -741521.78745   -533373.85945  25960485.1284   25960496.2654
       370.0944
  10718272.51548   8366934.36747  22332763.8394   22332772.1404
     -2468.4844
  26427378.82747  20612311.49447  23378189.2064   23378198.3514
     -3705.0944
  27614772.58244  19850748.98345  25945058.5584   25945070.3154
     -5581.1874
 01 10  2  1 21 15.0070000  0  8G 2G13G28G 7G26G 8G27G31
   4048102.31448   3553870.92047  23711801.2144   23711810.5934
     -1482.3284
  52274117.36944  40736432.50345  26541639.5424   26541655.4254
     -6127.4224
   4453847.58547   3525876.32947  22902188.8864   22902196.1084
     -2126.0944
  -2226598.00945  -1668463.63846  25274373.9564   25274388.9134
       895.9224
   -747032.39445   -537667.78345  25959436.0654   25959447.4604
       364.6254
  10755343.25848   8395820.67747  22339818.1124   22339826.5894
     -2474.2974
  26482996.66847  20655650.07547  23388772.9094   23388782.2654
     -3710.6414
  27698526.08945  19916011.47345  25960996.1594   25961008.1514
     -5585.9534
 01 10  2  1 21 30.0070000  0  9G 2G13G28G 7G26G 8G27G11G31
   4070361.48548   3571215.76147  23716037.0114   23716046.6594
     -1485.6254
  52366035.72444  40808057.01545  26559132.3474   26559149.1794
     -6128.4224
   4485774.81047   3550754.71747  22908264.8624   22908272.2724
     -2130.9374
  -2240013.67046  -1678917.25946  25271821.4174   25271836.0814
       892.7814
   -752460.36345   -541897.29445  25958403.8544   25958415.6944
       359.0314
  10792501.53148   8424775.19047  22346888.9874   22346897.5464
     -2480.1874
  26538698.24747  20699053.90447  23399372.7694   23399382.0774
     -3716.2974
      2074.98053                  26707993.0654
      -519.3914
  27782351.36945  19981329.92245  25976947.4874   25976959.6794
     -5590.7974
 01 10  2  1 21 45.0070000  0  9G 2G13G28G 7G26G 8G27G11G31
   4092670.91748   3588599.77747  23720282.4094   23720292.1634
     -1488.7974
  52457969.10345  40879693.30745  26576627.6044   26576646.1594
     -6129.1724
   4517775.57847   3575690.41747  22914354.0584   22914361.3274
     -2135.6414
  -2253381.29946  -1689333.45446  25269278.0814   25269293.3084
       889.7664
   -757803.41545   -546060.62445  25957387.3474   25957399.3044
       353.5474
  10829749.47148   8453799.58447  22353976.9724   22353985.5544
     -2485.9844
  26594485.59247  20742524.56847  23409988.7224   23409997.9014
     -3721.8284
      9897.70543                  26709480.6984
      -523.4224
  27866249.99945  20046705.48245  25992912.1284   25992924.1674
     -5595.4844
 01 10  2  1 22  0.0070000  0  9G 2G13G28G 7G26G 8G27G11G31
   4115027.91848   3606020.85147  23724537.3864   23724546.7184
     -1492.1254
  52549914.60845  40951339.00645  26594122.4254   26594140.8744
     -6130.1254
   4549847.20447   3600681.32047  22920457.1674   22920464.4134
     -2140.5314
  -2266703.31946  -1699714.11646  25266742.3004   25266756.2844
       886.5474
   -763063.79745   -550159.57245  25956386.1204   25956396.6834
       347.8914
  10867084.44748   8482891.79547  22361081.5194   22361090.0304
     -2491.9694
  26650356.08147  20786060.01747  23420620.4724   23420629.8044
     -3727.5314
     17780.44844                  26710981.8394
      -527.5784
  27950219.00745  20112135.88245  26008891.6514   26008904.6284
     -5600.3444
 01 10  2  1 22 15.0070000  0  9G 2G13G28G 7G26G 8G27G11G31
   4137433.40748   3623479.70447  23728800.5344   23728809.6554
     -1495.2664
  52641872.81745  41022994.61645  26611622.4794   26611639.7574
     -6130.9224
   4581990.57947   3625728.14147  22926574.0504   22926581.0614
     -2145.2344
  -2279978.42246  -1710058.20846  25264216.0504   25264230.1634
       883.4694
   -768240.23446   -554193.06545  25955401.2294   25955412.1444
       342.3444
  10904507.61948   8512052.72547  22368203.0974   22368211.5854
     -2497.7814
  26706310.76847  20829661.07947  23431268.7224   23431277.9134
     -3733.0784
     25724.55145                  26712492.9174
      -531.6094
  28034258.96245  20177621.59845  26024883.8544   26024896.2224
     -5604.9694
 01 10  2  1 22 30.0070000  0  9G 2G13G28G 7G26G 8G27G11G31
   4159886.47448   3640975.63847  23733073.1124   23733082.6084
     -1498.4224
  52733842.60344  41094659.28445  26629122.6594   26629139.0114
     -6131.6874
   4614204.71547   3650830.09147  22932704.3944   22932711.3824
     -2149.9224
  -2293207.06546  -1720366.09046  25261698.4954   25261712.9134
       880.3914
   -773333.32545   -558161.62945  25954431.1284   25954442.3584
       336.7814
  10942018.24748   8541281.80447  22375341.0654   22375349.5304
     -2503.5944
  26762348.80347  20873327.07847  23441932.0264   23441941.4644
     -3738.6094
     33729.48445                  26714017.1444
      -535.6564
  28118368.70945  20243161.66645  26040889.8864   26040901.9014
     -5609.6094
 01 10  2  1 22 45.0070000  0  9G 2G13G28G 7G26G 8G27G11G31
   4182388.04748   3658509.36747  23737354.8314   23737364.5154
     -1501.6564
  52825824.69644  41166333.53345  26646626.8154   26646642.1014
     -6132.4844
   4646490.45847   3675987.84347  22938847.5344   22938854.5224
     -2154.7034
  -2306388.09746  -1730636.90146  25259191.2694   25259205.7454
       877.2034
   -778341.78845   -562064.25245  25953478.5584   25953490.3624
       331.1254
  10979617.48748   8570579.93047  22382495.7924   22382504.4094
     -2509.5164
  26818471.18547  20917058.81447  23452611.8784   23452621.4214
     -3744.2504
     41796.43245      1680.45455  26715552.2614   26715566.4094
      -539.7974
  28202548.80145  20308756.57245  26056908.6594   26056919.6794
     -5614.2814
 01 10  2  1 23  0.0070000  0  9G 2G13G28G 7G26G 8G27G11G31
   4204937.85848   3676080.68347  23741645.8314   23741655.2454
     -1504.9374
  52917818.55844  41238016.89445  26664132.1514   26664148.0584
     -6133.3444
   4678847.67647   3701201.28947  22945005.1204   22945012.0034
     -2159.5314
  -2319521.46746  -1740870.54046  25256691.0424   25256705.3544
       873.9384
   -783265.33345   -565900.71445  25952542.1834   25952552.1944
       325.3914
  11017305.29748   8599947.07047  22389667.4794   22389676.0504
     -2515.5004
  26874677.84347  20960856.21447  23463307.4254   23463316.8274
     -3749.9374
     49925.59945      8015.03545  26717098.3154   26717111.5974
      -544.0164
  28286798.84045  20374405.97845  26072940.8704   26072951.9954
     -5619.0004
 01 10  2  1 23 15.0070000  0  9G 2G13G28G 7G26G 8G27G11G31
   4227536.69248   3693690.20547  23745946.4404   23745955.8434
     -1508.0004
  53009824.66445  41309709.85845  26681642.2144   26681658.1324
     -6133.9224
   4711276.97947   3726470.91047  22951176.3784   22951183.3784
     -2164.1254
  -2332605.90346  -1751066.06446  25254201.8314   25254215.8394
       870.8914
   -788102.93845   -569670.22845  25951621.0974   25951630.8044
       319.8444
  11055082.40048   8629383.79947  22396856.1674   22396864.5264
     -2521.2344
  26930969.63547  21004719.95947  23474019.7144   23474029.0464
     -3755.4064
     58118.14645     14398.93745  26718657.1834   26718670.1944
      -548.0784
  28371119.22245  20440110.20145  26088986.7614   26088998.0734
     -5623.4534
 01 10  2  1 23 30.0070000  0  9G 2G13G28G 7G26G 8G27G11G31
   4250180.68648   3711334.90647  23750255.4254   23750264.9334
     -1511.1724
  53101838.80044  41381409.03145  26699151.3004   26699168.0154
     -6134.6094
   4743774.47047   3751793.65747  22957360.3084   22957367.2964
     -2168.8284
  -2345645.08546  -1761226.32246  25251720.3394   25251733.3744
       867.6884
   -792858.11845   -573375.50745  25950716.1514   25950726.0694
       314.1884
  11092945.25348   8658887.34047  22404061.4724   22404069.7964
     -2527.1094
  26987342.76647  21048647.07847  23484747.2694   23484756.3434
     -3760.9844
     66370.63145     20829.53645  26720227.5814   26720239.1754
      -552.2344
  28455505.80345  20505865.98645  26105044.7844   26105055.5344
     -5628.0474
 01 10  2  1 23 45.0070000  0  9G 2G13G28G 7G26G 8G27G11G31
   4272872.79048   3729017.09647  23754573.7294   23754583.1674
     -1514.3594
  53193863.77345  41453116.66545  26716664.5114   26716680.6404
     -6135.2974
   4776343.03047   3777171.78347  22963557.8004   22963564.6594
     -2173.5624
  -2358635.59646  -1771348.65446  25249247.5584   25249261.0614
       864.4694
   -797527.50945   -577013.91745  25949827.1984   25949838.5814
       308.4844
  11130896.94948   8688460.11047  22411283.1754   22411291.5464
     -2533.0314
  27043800.25847  21092639.93347  23495490.2694   23495499.4014
     -3766.6094
     74686.37145     27309.43345  26721809.6364   26721821.3354
      -556.4534
  28539961.21445  20571675.44745  26121115.9644   26121127.0074
     -5632.5944
 01 10  2  1 24  0.0070000  0  9G 2G13G28G 7G26G 8G27G11G31
   4295612.78348   3746736.60647  23758900.4794   23758909.9404
     -1517.6254
  53285899.21445  41524832.48045  26734178.4874   26734194.3354
     -6136.0944
   4808982.51947   3802605.18047  22969768.7694   22969775.8154
     -2178.3594
  -2371577.40446  -1781433.04346  25246785.8004   25246800.1834
       861.1094
   -802110.99045   -580585.37745  25948954.8234   25948966.8864
       302.6414
  11168937.38148   8718102.02247  22418522.0194   22418530.3544
     -2539.0164
  27100342.06047  21136698.48546  23506249.9174   23506259.1204
     -3772.2974
     83065.63845     33838.89045  26723404.6124   26723419.0074
      -560.7814
  28624484.96145  20637538.09445  26137200.5424   26137211.8544
     -5637.2194
 01 10  2  1 24 15.0070000  0  9G 2G13G28G 7G26G 8G27G11G31
   4318401.96048   3764494.44347  23763236.9644   23763246.3314
     -1520.8284
  53377946.19644  41596557.27345  26751692.3544   26751707.8744
     -6136.7504
   4841694.21247   3828094.83947  22975993.7924   22976000.9214
     -2183.0944
  -2384468.79246  -1791478.13146  25244330.6444   25244344.7804
       857.8444
   -806606.93345   -584088.62445  25948099.7614   25948111.6364
       296.8914
  11207068.11648   8747814.30247  22425778.1594   22425786.3784
     -2544.9694
  27156969.51147  21180823.77846  23517025.4404   23517034.5974
     -3777.9224
     91510.00845     40419.02145  26725011.2924   26725022.3824
      -565.0314
  28709078.17545  20703454.96445  26153297.4094   26153307.7024
     -5641.7664
 01 10  2  1 24 30.0080000  0  9G 2G13G28G 7G26G 8G27G11G31
   4341240.78448   3782290.96547  23767582.8674   23767592.1414
     -1524.0474
  53470009.33744  41668294.61145  26769210.6484   26769224.2464
     -6137.4374
   4874479.17347   3853641.59147  22982232.2894   22982239.5354
     -2187.8444
  -2397311.35846  -1801485.18346  25241888.0474   25241902.5474
       854.5004
   -811016.13345   -587524.30345  25947260.8054   25947272.5984
       291.0784
  11245290.74448   8777598.18847  22433051.6804   22433059.9104
     -2550.9374
  27213685.43247  21225018.01446  23527818.5944   23527827.6914
     -3783.5944
    100019.33445     47049.80645  26726630.3594   26726642.9494
      -569.3594
  28793744.98845  20769429.12845  26169409.2814   26169419.9964
     -5646.2974
 01 10  2  1 24 45.0080000  0  9G 2G13G28G 7G26G 8G27G11G31
   4364125.94948   3800123.60247  23771938.8524   23771948.1134
     -1527.2344
  53562076.17645  41740034.91245  26786733.2424   26786748.3284
     -6138.0624
   4907332.68547   3879241.75347  22988484.1484   22988491.2894
     -2192.5474
  -2410103.30346  -1811452.78946  25239453.4694   25239467.8164
       851.1724
   -815338.09045   -590891.98145  25946437.7894   25946450.3204
       285.2814
  11283600.12048   8807449.66847  22440341.7894   22440349.9494
     -2556.8914
  27270482.17947  21269275.22646  23538626.5474   23538635.6684
     -3789.2194
    108592.77445     53730.48145  26728262.0004   26728275.6444
      -573.6874
  28878473.57045  20835451.43845  26185532.2424   26185542.8054
     -5650.7664
 01 10  2  1 25  0.0080000  0  9G 2G13G28G 7G26G 8G27G11G31
   4387057.53648   3817992.40547  23776302.5164   23776311.6844
     -1530.3754
  53654150.96044  41811781.30645  26804253.7974   26804271.5664
     -6138.6254
   4940255.49047   3904895.91247  22994748.8124   22994755.9534
     -2197.2034
  -2422846.52246  -1821382.42546  25237027.9774   25237042.4654
       847.8754
   -819574.16845   -594192.74745  25945631.7584   25945641.9574
       279.4694
  11321997.49648   8837369.72047  22447648.4454   22447656.8284
     -2562.7974
  27327362.13047  21313597.26846  23549450.7274   23549459.9534
     -3794.8284
    117229.88245     60460.83945  26729905.9144   26729918.2344
      -577.9844
  28963267.83745  20901524.87745  26201668.1414   26201678.8444
     -5655.1874
 01 10  2  1 25 15.0080000  0  9G 2G13G28G 7G26G 8G27G11G31
   4410039.65448   3835900.58147  23780675.7734   23780685.1054
     -1533.5784
  53746237.54043  41883536.99345  26821777.1414   26821791.4884
     -6139.2504
   4973251.61147   3930607.20247  23001027.6334   23001034.6914
     -2201.9374
  -2435536.71246  -1831270.72146  25234612.8364   25234627.2304
       844.4694
   -823719.75145   -597422.99645  25944843.1414   25944853.4694
       273.5944
  11360487.17148   8867361.69847  22454972.8834   22454981.2544
     -2568.8124
  27384329.42947  21357987.37946  23560290.9224   23560300.2304
     -3800.4844
    125935.06745     67244.20245  26731561.1724   26731575.6024
      -582.3754
  29048131.56945  20967652.46045  26217816.9534   26217828.4774
     -5659.6564
 01 10  2  1 25 30.0080000  0  9G 2G13G28G 7G26G 8G27G11G31
   4433067.15248   3853844.12547  23785057.1484   23785066.5044
     -1536.7504
  53838330.50644  41955297.63245  26839300.2974   26839316.1214
     -6139.8284
   5006315.91347   3956371.62447  23007319.8364   23007327.0004
     -2206.6414
  -2448178.55746  -1841121.37046  25232207.4144   25232221.6444
       841.1094
   -827779.74445   -600586.54245  25944069.7034   25944081.1804
       267.7344
  11399064.08748   8897421.65047  22462313.7424   22462322.0904
     -2574.7814
  27441379.07847  21402441.66246  23571147.1174   23571156.3324
     -3806.1254
    134703.63645     74076.93645  26733230.1024   26733243.3594
      -586.7814
  29133059.39945  21033829.99945  26233978.8834   26233990.4534
     -5664.0624
 01 10  2  1 25 45.0080000  0  9G 2G13G28G 7G26G 8G27G11G31
   4456141.64348   3871824.28647  23789448.1174   23789457.4964
     -1539.7504
  53930431.24244  42027064.22345  26856828.9454   26856845.9884
     -6140.1874
   5039449.91147   3982190.34347  23013624.9454   23013632.0394
     -2211.1414
  -2460770.18446  -1850932.89746  25229810.6484   25229825.4774
       837.8594
   -831752.20845   -603681.86745  25943314.2504   25943325.6444
       262.0004
  11437730.08548   8927551.01647  22469671.4844   22469679.8324
     -2580.6094
  27498512.72747  21446961.39446  23582018.8914   23582028.0004
     -3811.6094
    143537.48745     80960.57345  26734911.6644   26734922.5434
      -591.0004
  29218052.65745  21100058.51545  26250152.0004   26250162.6804
     -5668.2814
 01 10  2  1 26  0.0080000  0  9G 2G13G28G 7G26G 8G27G11G31
   4479262.87148   3889840.85947  23793847.9374   23793857.2934
     -1543.0474
  54022539.34343  42098836.67345  26874355.0944   26874374.0474
     -6140.8594
   5072653.36947   4008063.19947  23019943.2344   23019950.5044
     -2215.9534
  -2473311.41046  -1860705.12646  25227425.2894   25227438.8054
       834.3284
   -835636.89345   -606708.83745  25942575.0164   25942586.0354
       255.9694
  11476485.05348   8957749.71347  22477046.4694   22477054.9574
     -2586.7194
  27555730.26747  21491546.50446  23592907.3594   23592916.5984
     -3817.3754
    152436.84245     87895.27645  26736604.7894   26736616.4304
      -595.5474
  29303110.77245  21166337.51745  26266338.2344   26266349.6414
     -5672.7814
 01 10  2  1 26 15.0080000  0  9G 2G13G28G 7G26G 8G27G11G31
   4502433.62948   3907896.02947  23798257.4224   23798266.9304
     -1546.3914
  54114657.29845  42170616.71545  26891886.6174   26891905.5124
     -6141.5314
   5105929.05847   4033992.33647  23026275.6254   23026282.8484
     -2220.8124
  -2485799.14346  -1870435.69346  25225048.8204   25225062.5004
       830.6884
   -839430.65046   -609664.90845  25941853.9844   25941864.7694
       249.8594
  11515331.95848   8988020.04847  22484438.9454   22484447.5274
     -2592.8754
  27613034.58947  21536199.22146  23603811.9374   23603821.0594
     -3823.2194
    161404.84745     94883.41845  26738311.4534   26738325.1444
      -600.2034
  29388236.22545  21232669.04545  26282537.0084   26282548.7194
     -5677.2814
 01 10  2  1 26 30.0080000  0  9G 2G13G28G 7G26G 8G27G11G31
   4525653.83148   3925989.73147  23802675.7344   23802685.2074
     -1549.6254
  54206784.74743  42242404.24045  26909416.9374   26909434.5664
     -6142.1094
   5139276.80747   4059977.62047  23032621.4144   23032628.6844
     -2225.5474
  -2498233.21446  -1880124.42546  25222682.0084   25222695.7584
       827.1884
   -843133.29146   -612550.03845  25941148.4374   25941159.0704
       243.8284
  11554270.90648   9018362.10247  22491848.6954   22491857.1134
     -2598.9374
  27670425.67847  21580919.56446  23614733.1334   23614742.3244
     -3828.9224
    170441.82845    101925.31845  26740031.6724   26740043.2424
      -604.7194
  29473428.59545  21299052.61945  26298748.8284   26298758.9924
     -5681.6874
 01 10  2  1 26 45.0080000  0  9G 2G13G28G 7G26G 8G27G11G31
   4548920.39048   3944119.55747  23807103.4774   23807112.9614
     -1552.6874
  54298918.21144  42314196.41845  26926949.1094   26926966.0354
     -6142.4694
   5172693.55747   4086016.67047  23038980.4844   23038987.6724
     -2230.1254
  -2510616.28046  -1889773.40846  25220326.0474   25220339.5984
       823.7814
   -846747.43346   -615366.17146  25940460.3524   25940471.0314
       237.9534
  11593298.79648   9048773.45847  22499275.5314   22499283.9494
     -2604.8754
  27727900.58647  21625705.21446  23625670.3754   23625679.7894
     -3834.5004
    179545.02745    109018.83845  26741762.5944   26741773.9774
      -609.1414
  29558684.48145  21365485.78445  26314972.5624   26314982.0944
     -5685.8914
 01 10  2  1 27  0.0080000  0  9G 2G13G28G 7G26G 8G27G11G31
   4572232.97848   3962285.24247  23811539.3834   23811548.5864
     -1555.6414
  54391057.37644  42385993.02345  26944483.9534   26944499.9534
     -6142.7034
   5206178.98447   4112109.24047  23045352.7034   23045359.8794
     -2234.5784
  -2522948.21146  -1899382.57346  25217978.6484   25217992.2114
       820.4694
   -850273.04146   -618113.33246  25939789.4924   25939800.5234
       232.1564
  11632415.74648   9079254.21647  22506718.8204   22506727.2734
     -2610.7034
  27785459.12047  21670556.02346  23636623.3754   23636632.6254
     -3839.9534
    188714.64145    116164.10245  26743507.6954   26743520.7304
      -613.4224
  29644003.39445  21431968.03545  26331208.7664   26331221.7304
     -5689.9374
 01 10  2  1 27 15.0080000  0  9G 2G13G28G 7G26G 8G27G11G31
   4595591.87548   3980487.02347  23815984.7274   23815993.8484
     -1558.8594
  54483202.21443  42457794.02645  26962016.9374   26962032.0354
     -6143.2344
   5239733.32247   4138255.50347  23051737.6414   23051744.6994
     -2239.3124
  -2535228.51246  -1908951.48646  25215641.8984   25215655.4374
       816.8914
   -853709.51546   -620791.02046  25939135.9224   25939147.4574
       226.0634
  11671622.21048   9109804.72547  22514179.7504   22514188.2154
     -2616.7974
  27843101.61847  21715472.25946  23647592.2664   23647601.5044
     -3845.6874
    197951.31445    123361.66345  26745264.3984   26745276.0164
      -618.1094
  29729385.23645  21498499.27245  26347456.6094   26347468.9534
     -5694.2664
 01 10  2  1 27 30.0080000  0  9G 2G13G28G 7G26G 8G27G11G31
   4618997.12748   3998724.91147  23820439.1024   23820447.9184
     -1561.9844
  54575352.49343  42529599.31145  26979552.6804   26979568.2464
     -6143.6254
   5273356.60147   4164455.47747  23058135.8834   23058143.0124
     -2243.9224
  -2547456.75446  -1918479.83446  25213314.0394   25213327.5554
       813.4064
   -857056.41345   -623398.92946  25938498.5554   25938509.3164
       220.0474
  11710918.27248   9140425.04247  22521657.4144   22521665.8444
     -2622.8124
  27900828.12947  21760453.96146  23658577.3444   23658586.7234
     -3851.3124
    207255.45445    130611.73145  26747035.8674   26747048.6334
      -622.6094
  29814829.88745  21565079.49945  26363715.6484   26363726.3404
     -5698.4694
 01 10  2  1 27 45.0080000  0  9G 2G13G28G 7G26G 8G27G11G31
   4642451.58448   4017001.14647  23824901.7504   23824910.7544
     -1565.1254
  54667510.88444  42601410.84945  26997090.5004   26997106.8404
     -6144.0314
   5307051.49647   4190711.25747  23064547.7274   23064554.6564
     -2248.5784
  -2559629.76546  -1927965.15646  25210997.7034   25211010.9734
       809.8134
   -860310.56845   -625934.53646  25937879.0944   25937891.6844
       213.9844
  11750306.96548   9171117.54747  22529152.7114   22529161.2344
     -2628.8594
  27958641.64147  21805503.45246  23669578.8754   23669588.1484
     -3857.0004
    216630.32945    137916.93345  26748820.1414   26748832.6374
      -627.2344
  29900339.85245  21631710.60045  26379987.6804   26379998.1724
     -5702.6874
 01 10  2  1 28  0.0080000  0  9G 2G13G28G 7G26G 8G27G11G31
   4665950.33648   4035311.89147  23829373.7194   23829382.7934
     -1568.1094
  54759672.39444  42673224.93445  27014630.3674   27014645.6414
     -6144.2344
   5340813.14847   4217019.05647  23070972.7114   23070979.6874
     -2253.0474
  -2571752.06946  -1937410.95746  25208690.9064   25208704.3754
       806.4064
   -863476.39345   -628401.33146  25937277.3834   25937287.9924
       208.0474
  11789783.57448   9201878.56047  22536665.0004   22536673.4414
     -2634.7664
  28016537.35347  21850617.00046  23680596.3594   23680605.4804
     -3862.5164
    226071.38845    145273.69445  26750615.4454   26750626.5944
      -631.6564
  29985909.93445  21698388.54145  26396272.1804   26396283.5744
     -5706.7194
 01 10  2  1 28 15.0080000  0  9G 2G13G28G 7G26G 8G27G11G31
   4689497.94748   4053660.71847  23833854.1874   23833863.3094
     -1571.3914
  54851841.05544  42745044.49945  27032170.5394   27032185.5314
     -6144.7194
   5374646.09847   4243382.41347  23077410.7274   23077417.6684
     -2257.8284
  -2583818.78046  -1946813.45646  25206394.0784   25206408.0044
       802.6724
   -866549.10545   -630795.58645  25936691.9454   25936703.6334
       201.7974
  11829352.81748   9232711.75147  22544194.8914   22544203.2154
     -2640.9694
  28074519.88547  21895798.19246  23691629.8124   23691638.9224
     -3868.3284
    235583.51045    152685.85345  26752425.9144   26752438.2814
      -636.4374
  30071544.49645  21765116.75745  26412567.7584   26412579.6564
     -5711.0314
 01 10  2  1 28 30.0080000  0  9G 2G13G28G 7G26G 8G27G11G31
   4713090.63148   4072044.66347  23838344.1414   23838353.2854
     -1574.3284
  54944012.94943  42816866.62445  27049708.0234   27049724.2114
     -6144.8594
   5408546.58947   4269798.40247  23083861.6094   23083868.3244
     -2262.2504
  -2595833.37446  -1956175.31646  25204108.2424   25204122.1564
       799.2664
   -869532.01245   -633119.85345  25936123.8364   25936134.6094
       195.8914
  11869011.13048   9263614.34447  22551741.2344   22551749.4654
     -2646.8444
  28132585.63447  21941044.23346  23702679.4064   23702688.3874
     -3873.7974
    245163.40845    160150.86445  26754248.1094   26754261.3444
      -640.8914
  30157239.38445  21831892.02945  26428874.9694   26428886.5394
     -5714.9694
 01 10  2  1 28 45.0080000  0  9G 2G13G28G 7G26G 8G27G11G31
   4736733.90648   4090468.02747  23842843.0474   23842852.2154
     -1577.7814
  55036193.40643  42888695.33145  27067250.2974   27067266.4024
     -6145.5004
   5442520.03547   4296271.24447  23090326.7034   23090333.6094
     -2267.1874
  -2607789.88346  -1965491.94446  25201832.8914   25201846.3014
       795.2974
   -872419.24545   -635369.57345  25935574.7034   25935586.3204
       189.4224
  11908764.12048   9294590.71447  22559306.2734   22559314.5744
     -2653.2344
  28190740.12447  21986359.42246  23713745.8204   23713755.0004
     -3879.7974
    254817.04245    167673.29645  26756086.2034   26756097.4924
      -645.9224
  30242999.80645  21898718.29045  26445194.8674   26445207.1994
     -5719.4064
 01 10  2  1 29  0.0080000  0  9G 2G13G28G 7G26G 8G27G11G31
   4760424.48248   4108928.25747  23847351.2584   23847360.1094
     -1580.8444
  55128378.72843  42960527.99745  27084790.1644   27084805.7664
     -6145.7344
   5476563.09347   4322798.33047  23096804.6954   23096811.6374
     -2271.7504
  -2619691.42646  -1974765.72246  25199568.4694   25199582.3834
       791.7194
   -875213.88445   -637547.11245  25935043.1254   25935054.6024
       183.3284
  11948608.54248   9325638.32747  22566888.4924   22566896.7584
     -2659.2344
  28248980.17247  22031741.27946  23724828.3594   23724837.6094
     -3885.4224
    264541.45545    175250.88245  26757936.9694   26757948.4924
      -650.5474
  30328822.20345  21965592.89145  26461525.8524   26461537.6564
     -5723.4224
 01 10  2  1 29 15.0080000  0  9G 2G13G28G 7G26G 8G27G11G31
   4784161.06448   4127424.32247  23851868.1254   23851876.8244
     -1583.9694
  55220567.33743  43032363.09045  27102334.3914   27102352.1604
     -6146.0164
   5510674.40647   4349378.59247  23103295.7974   23103302.5704
     -2276.3594
  -2631538.91646  -1983997.38546  25197313.3204   25197326.8714
       788.0314
   -877916.74945   -639653.18545  25934528.9304   25934541.2734
       177.0944
  11988543.44748   9356756.44247  22574487.6564   22574495.8284
     -2665.3444
  28307304.56747  22077188.86846  23735926.8914   23735936.3874
     -3891.1094
    274335.58845    182882.78945  26759799.4534   26759809.8874
      -655.2814
  30414704.96144  22032514.49345  26477868.7274   26477876.2894
     -5727.5164
 01 10  2  1 29 30.0080000  0  9G 2G13G28G 7G26G 8G27G11G31
   4807944.01248   4145956.51747  23856393.6024   23856402.2664
     -1587.1414
  55312759.62543  43104201.09545  27119876.9374   27119891.5434
     -6146.3284
   5544854.37647   4376012.34947  23109799.9924   23109806.8754
     -2281.0164
  -2643331.59946  -1993186.34746  25195069.5164   25195082.2464
       784.2814
   -880527.12745   -641687.17445  25934032.1094   25934042.0394
       170.8754
  12028569.22948   9387945.38047  22582104.4304   22582112.5784
     -2671.4844
  28365713.79047  22122702.55146  23747041.9534   23747051.5194
     -3896.8444
    284200.46445    190569.84745  26761677.0234   26761689.1094
      -660.0944
  30500648.23144  22099483.30545  26494222.9144   26494235.6444
     -5731.6094
 01 10  2  1 29 45.0080000  0  9G 2G13G28G 7G26G 8G27G11G31
   4831772.80848   4164524.44847  23860928.1954   23860937.2344
     -1590.2344
  55404954.72243  43176041.30045  27137422.4374   27137440.3714
     -6146.5314
   5579102.34147   4402699.09547  23116317.3984   23116324.5394
     -2285.5944
  -2655069.73346  -2002332.80846  25192835.4224   25192848.6214
       780.5784
   -883045.18445   -643649.21745  25933552.9224   25933564.0004
       164.6884
  12068685.51548   9419204.83747  22589738.1564   22589746.4924
     -2677.5624
  28424207.34147  22168281.94146  23758172.7664   23758182.4374
     -3902.5004
    294135.73245    198311.69645  26763567.9844   26763579.2624
      -664.8284
  30586651.09444  22166498.47745  26510588.8124   26510600.1724
     -5735.6414
 01 10  2  1 30  0.0080000  0  9G 2G13G28G 7G26G 8G27G11G31
   4855649.23848   4183129.49347  23865471.2734   23865480.5004
     -1593.2504
  55497154.08743  43247884.76745  27154967.2814   27154982.9414
     -6146.6724
   5613420.16547   4429440.27847  23122847.7424   23122855.1294
     -2290.0944
  -2666751.14846  -2011435.05546  25190612.4924   25190625.8444
       776.9694
   -885468.70945   -645537.62945  25933091.6334   25933101.4804
       158.5004
  12108894.37048   9450536.43047  22597389.8984   22597398.2464
     -2683.5784
  28482787.15547  22213928.55346  23769319.9774   23769329.4144
     -3908.1094
    304143.61345    206110.16645  26765471.7974   26765484.7734
      -669.5314
  30672715.10744  22233561.31645  26526966.1094   26526979.4374
     -5739.5314
 01 10  2  1 30 15.0080000  0  9G 2G13G28G 7G26G 8G27G11G31
   4879569.37948   4201768.59647  23870023.4924   23870032.5084
     -1596.1724
  55589353.64143  43319728.45245  27172512.6804   27172529.1374
     -6146.6874
   5647803.85547   4456232.77947  23129390.6254   23129397.9884
     -2294.4844
  -2678379.43946  -2020495.91746  25188399.3594   25188412.5824
       773.4064
   -887801.26745   -647355.13245  25932647.3674   25932657.2854
       152.4384
  12149191.97448   9481937.17347  22605058.2034   22605066.3634
     -2689.5004
  28541449.36147  22259639.36746  23780483.7584   23780493.2304
     -3913.5944
    314220.55245    213962.42745  26767390.1484   26767401.7544
      -674.1414
  30758836.02144  22300668.58745  26543354.7664   26543367.6254
     -5743.3124
 01 10  2  1 30 30.0080000  0  9G 2G13G28G 7G26G 8G27G11G31
   4903534.03048   4220442.38647  23874583.8054   23874592.7854
     -1599.1874
  55681553.91043  43391572.68045  27190058.7114   27190073.4924
     -6146.7664
   5682254.18147   4483077.20947  23135946.4304   23135953.5354
     -2298.9534
  -2689953.36946  -2029514.41746  25186197.5164   25186210.1524
       769.7194
   -890041.79745   -649100.94645  25932221.0004   25932231.8554
       146.2344
  12189579.34648   9513407.86547  22612743.4144   22612751.5274
     -2695.5314
  28600194.80747  22305415.03646  23791662.6644   23791671.8794
     -3919.1874
    324367.78445    221869.52045  26769320.2424   26769331.4964
      -678.9064
  30845014.33244  22367820.48845  26559754.2194   26559764.8164
     -5747.1874
 01 10  2  1 30 45.0080000  0  9G 2G13G28G 7G26G 8G27G11G31
   4927546.20348   4239153.20047  23879153.1414   23879162.1094
     -1602.4064
  55773757.68343  43463419.63445  27207605.7974   27207622.0554
     -6147.0314
   5716774.02947   4509975.80947  23142515.5624   23142522.4344
     -2303.6414
  -2701469.73246  -2038488.06446  25184004.9454   25184017.4884
       765.8284
   -892186.91145   -650772.38745  25931812.7504   25931824.4264
       139.8134
  12230059.53948   9544950.89447  22620446.6174   22620454.6844
     -2701.7814
  28659026.60947  22351257.99646  23802857.7114   23802866.8324
     -3925.0004
    334588.62845    229833.90345  26771265.2974   26771278.7424
      -683.8754
  30931252.79143  22435019.37045  26576164.0314   26576175.8484
     -5751.2194
 01 10  2  1 31  0.0080000  0  9G 2G13G28G 7G26G 8G27G11G31
   4951605.49748   4257900.73947  23883730.9694   23883739.9614
     -1605.5164
  55865964.10943  43535268.60245  27225150.5394   27225167.5594
     -6147.1874
   5751363.03247   4536928.30147  23149097.1724   23149104.1254
     -2308.2344
  -2712928.60846  -2047416.92446  25181824.6094   25181837.2344
       762.0004
   -894236.65844   -652369.51745  25931423.1334   25931434.2814
       133.4694
  12270632.23548   9576565.99547  22628167.4454   22628175.6054
     -2707.9534
  28717944.44247  22397167.98746  23814069.3054   23814078.4614
     -3930.7194
    344883.19145    237855.77545  26773224.4844   26773236.7814
      -688.7814
  31017550.59543  22502264.37145  26592585.4064   26592599.3094
     -5755.1724
 01 10  2  1 31 15.0080000  0  9G 2G13G28G 7G26G 8G27G11G31
   4975710.04648   4276683.52847  23888318.4374   23888327.3944
     -1608.3284
  55958171.19743  43607118.16645  27242695.6254   27242715.1294
     -6147.0164
   5786019.25547   4563933.16847  23155692.2114   23155699.1414
     -2312.5004
  -2724331.43946  -2056302.10046  25179654.6724   25179667.6724
       758.4534
   -896192.50743   -653893.48045  25931049.9924   25931060.0394
       127.4224
  12311295.92148   9608252.00047  22635905.5164   22635913.5824
     -2713.8124
  28776946.55647  22443143.66746  23825296.9534   23825306.2504
     -3936.1414
    355249.86345    245933.75945  26775197.1414   26775208.8404
      -693.3754
  31103905.77743  22569554.06945  26609019.0784   26609029.6054
     -5758.7664
 01 10  2  1 31 30.0080000  0  9G 2G13G28G 7G26G 8G27G11G31
   4999859.69148   4295501.46947  23892913.8204   23892922.7304
     -1611.7034
  56050378.56943  43678967.85745  27260244.1484   27260259.3634
     -6147.3914
   5820742.49747   4590990.26347  23162299.7734   23162306.6054
     -2317.3444
  -2735678.13146  -2065143.53546  25177496.4064   25177509.1844
       754.3444
   -898054.30444   -655344.16545  25930696.2424   25930706.3364
       120.7504
  12352050.54448   9640008.86347  22643660.7814   22643669.0824
     -2720.2344
  28836032.81547  22489184.90946  23836540.5704   23836550.1844
     -3942.1254
    365688.92045    254068.20245  26777182.9924   26777194.9024
      -698.5784
  31190317.71943  22636888.14745  26625463.2034   26625476.2854
     -5762.9064
 01 10  2  1 31 45.0080000  0  9G 2G13G28G 7G26G 8G27G11G31
   5024056.82048   4314356.40447  23897518.7344   23897527.6094
     -1614.6254
  56142588.42943  43750819.58845  27277789.1954   27277805.3834
     -6147.3124
   5855535.11647   4618101.40947  23168920.6874   23168927.6174
     -2321.7194
  -2746965.94246  -2073939.10246  25175346.5394   25175358.8014
       750.6724
   -899819.35544   -656719.45845  25930360.5864   25930371.5594
       114.5474
  12392898.61748   9671838.54947  22651434.1254   22651442.3914
     -2726.2194
  28895205.69347  22535293.65446  23847801.0234   23847810.7304
     -3947.6414
    376203.08945    262261.16145  26779183.0864   26779195.0784
      -703.3594
  31276788.53943  22704267.94245  26641917.8124   26641930.5194
     -5766.5784
 01 10  2  1 32  0.0080000  0  9G 2G13G28G 7G26G 8G27G11G31
   5048298.95048   4333246.41047  23902131.5784   23902140.4184
     -1617.3594
  56234798.04144  43822671.00745  27295338.7974   27295356.7304
     -6146.9844
   5890394.65847   4645264.70547  23175554.0314   23175560.8754
     -2325.9064
  -2758196.97646  -2082690.42046  25173209.8054   25173222.5824
       747.1254
   -901489.67644   -658020.91945  25930043.0314   25930052.8794
       108.4694
  12433837.87148   9703739.28547  22659224.4534   22659232.6254
     -2732.0314
  28954462.82347  22581468.05046  23859077.2344   23859086.5084
     -3953.0004
    386790.33145    270511.07845  26781198.9534   26781210.2894
      -707.9694
  31363315.61643  22771691.75345  26658383.6094   26658398.3204
     -5770.0624
 01 10  2  1 32 15.0080000  0  9G 2G13G28G 7G26G 8G27G11G31
   5072585.42248   4352170.96447  23906753.1414   23906762.0044
     -1620.6874
  56327006.44343  43894521.62845  27312884.2344   27312901.8404
     -6147.2814
   5925320.28447   4672479.49747  23182200.3054   23182207.3404
     -2330.6874
  -2769371.68246  -2091397.83946  25171083.4304   25171095.9024
       743.0004
   -903065.59444   -659248.85145  25929743.1174   25929753.3754
       101.7974
  12474867.65748   9735710.57047  22667031.9614   22667040.1334
     -2738.4694
  29013803.56647  22627707.59646  23870369.7894   23870378.9694
     -3958.9534
    397450.24345    278817.61345  26783226.9224   26783239.6174
      -713.1874
  31449897.79443  22839158.35245  26674859.4304   26674870.1214
     -5774.0784
 01 10  2  1 32 30.0080000  0  9G 2G13G28G 7G26G 8G27G11G31
   5096918.12748   4371131.54547  23911382.8754   23911392.0664
     -1623.7344
  56419215.37143  43966372.62045  27330430.0234   27330450.9844
     -6147.2814
   5960313.87347   4699747.24747  23188859.5004   23188866.5234
     -2335.1874
  -2780487.60546  -2100059.46346  25168968.7424   25168981.7074
       739.0944
   -904544.89244   -660401.46945  25929461.0234   25929472.4534
        95.3594
  12515990.13748   9767754.07747  22674857.4224   22674865.6414
     -2744.5944
  29073229.89647  22674013.81946  23881678.0004   23881687.0044
     -3964.6254
    408185.17845    287182.61545  26785269.0474   26785279.5624
      -718.2034
  31536536.80343  22906669.34845  26691346.2344   26691356.6564
     -5777.8444
 01 10  2  1 32 45.0080000  0  9G 2G13G28G 7G26G 8G27G11G31
   5121299.09948   4390129.73647  23916022.9064   23916032.0624
     -1626.9374
  56511426.57043  44038225.29445  27347977.7584   27347993.8874
     -6147.4224
   5995377.53947   4727069.60947  23195531.7274   23195538.5354
     -2339.8284
  -2791542.49046  -2108673.52746  25166864.1564   25166877.1914
       735.0004
   -905925.02144   -661476.81045  25929197.3124   25929207.9104
        88.7814
  12557207.40548   9799871.45147  22682700.8054   22682709.0824
     -2750.9064
  29132743.99447  22720388.44646  23893003.1334   23893012.0554
     -3970.4534
    418997.60145    295607.97345  26787327.8914   26787339.6954
      -723.3444
  31623234.44242  22974226.05044  26707843.9924   26707856.3714
     -5781.7194
 01 10  2  1 33  0.0080000  0  9G 2G13G28G 7G26G 8G27G11G31
   5145724.94248   4409162.88947  23920670.7734   23920679.8014
     -1629.6874
  56603636.43743  44110076.97345  27365525.0004   27365541.2814
     -6147.0784
   6030507.77547   4754443.83747  23202216.8524   23202223.7344
     -2344.0474
  -2802539.38546  -2117242.41246  25164771.5164   25164784.4574
       731.3594
   -907209.29744   -662477.49145  25928953.7034   25928965.9654
        82.5944
  12598516.34748   9832060.25247  22690561.5234   22690569.6134
     -2756.7974
  29192342.51647  22766828.85346  23904344.1254   23904353.1294
     -3975.8594
    429884.46545    304091.35645  26789398.8914   26789410.0514
      -728.0944
  31709986.89442  23041825.36145  26724353.2424   26724360.1844
     -5785.1254
 01 10  2  1 33 15.0080000  0  9G 2G13G28G 7G26G 8G27G11G31
   5170194.21648   4428229.89047  23925327.0084   23925336.0474
     -1632.6724
  56695843.27044  44181926.28445  27383072.5864   27383091.8794
     -6146.9534
   6065703.14647   4781868.82147  23208914.1724   23208921.1484
     -2348.4694
  -2813479.41046  -2125766.97646  25162688.9844   25162701.7274
       727.5164
   -908398.65845   -663404.17145  25928727.3054   25928738.9694
        76.1724
  12639915.67348   9864319.48847  22698439.7194   22698447.9494
     -2762.9064
  29252024.05647  22813333.95846  23915701.3364   23915710.6914
     -3981.4844
    440844.58245    312631.78245  26791483.9924   26791495.8204
      -733.0784
  31796792.39542  23109466.01745  26740872.6484   26740883.7504
     -5788.7194
 01 10  2  1 33 30.0080000  0  9G 2G13G28G 7G26G 8G27G11G31
   5194708.25548   4447331.76747  23929991.9304   23930000.9924
     -1635.9694
  56788048.19044  44253774.15645  27400619.1954   27400633.5314
     -6147.1254
   6100964.99147   4809345.60147  23215623.8754   23215630.7934
     -2353.2034
  -2824360.92846  -2134245.94546  25160619.4374   25160632.4144
       723.2664
   -909491.42944   -664255.61345  25928518.6094   25928529.5004
        69.4224
  12681406.83248   9896650.28247  22706335.1414   22706343.3944
     -2769.3444
  29311790.08147  22859904.88546  23927074.4614   23927083.9344
     -3987.4224
    451879.87845    321230.83645  26793584.1954   26793594.9694
      -738.4224
  31883652.02542  23177148.98045  26757400.8364   26757412.9804
     -5792.6414
 01 10  2  1 33 45.0080000  0  9G 2G13G28G 7G26G 8G27G11G31
   5219270.12548   4466470.91447  23934666.4374   23934675.3014
     -1638.8914
  56880253.94343  44325622.60245  27418164.3204   27418179.4184
     -6146.9064
   6136296.26747   4836876.48347  23222347.2814   23222354.1254
     -2357.5624
  -2835180.47946  -2142676.64746  25158559.6024   25158571.7114
       719.3914
   -910484.03445   -665029.01745  25928330.2274   25928341.8204
        63.0004
  12722993.12248   9929055.20447  22714248.6484   22714256.8554
     -2775.4224
  29371643.77247  22906544.13346  23938464.0624   23938473.4774
     -3993.0004
    462993.75645    329891.06145  26795698.7274   26795710.8244
      -743.3914
  31970568.64142  23244876.20545  26773939.4304   26773948.9144
     -5796.2194
 01 10  2  1 34  0.0080000  0  9G 2G13G28G 7G26G 8G27G11G31
   5243876.08348   4485644.41947  23939348.5004   23939357.4924
     -1642.0004
  56972456.74343  44397468.81945  27435708.5164   27435725.3484
     -6146.8594
   6171693.33747   4864458.64047  23229083.2344   23229090.0314
     -2362.1254
  -2845941.40346  -2151061.64246  25156512.3284   25156525.0234
       715.3284
   -911379.98545   -665727.09545  25928158.7664   25928170.6874
        56.3754
  12764670.88148   9961531.40347  22722179.6564   22722187.8164
     -2781.7034
  29431581.43447  22953248.81146  23949870.0234   23949879.4964
     -3998.7664
    474182.88145    338609.96045  26797828.4374   26797839.8094
      -748.5784
  32057538.43642  23312644.88544  26790489.3054   26790503.0904
     -5799.8594
 01 10  2  1 34 15.0080000  0  9G 2G13G28G 7G26G 8G27G11G31
   5268527.88848   4504853.64447  23944039.2734   23944048.2424
     -1644.9374
  57064657.77743  44469313.61645  27453255.4534   27453274.3944
     -6146.6414
   6207157.82047   4892093.32347  23235832.4144   23235839.1644
     -2366.5004
  -2856641.78246  -2159399.46946  25154475.8444   25154488.4924
       711.3754
   -912177.23545   -666348.25645  25928007.8524   25928019.9024
        49.9064
  12806441.99048   9994080.33847  22730128.4224   22730136.6414
     -2787.8124
  29491604.83247  23000020.28846  23961291.8524   23961301.1954
     -4004.3754
    485449.30645    347389.07445  26799971.9144   26799980.9654
      -753.6414
  32144562.49041  23380456.03245  26807048.9694   26807057.5744
     -5803.3754
 01 10  2  1 34 30.0080000  0  9G 2G13G28G 7G26G 8G27G11G31
   5293223.08648   4524096.69347  23948738.7194   23948747.8754
     -1647.8754
  57156854.63844  44541155.15345  27470800.6564   27470818.7304
     -6146.3914
   6242687.16847   4919778.55147  23242592.8834   23242599.7034
     -2370.8754
  -2867283.66746  -2167691.72446  25152450.0784   25152462.4924
       707.4064
   -912877.78545   -666894.08245  25927874.1174   25927886.2384
        43.3914
  12848304.35448  10026700.38247  22738094.5234   22738102.7074
     -2793.9534
  29551711.59147  23046856.73946  23972729.6414   23972738.7504
     -4009.9844
    496790.87845    356226.73845  26802129.9924   26802140.6134
      -758.7034
  32231638.26541  23448307.30945  26823617.9144   26823628.6524
     -5806.8124
 01 10  2  1 34 45.0080000  0  9G 2G13G28G 7G26G 8G27G11G31
   5317966.44348   4543377.25747  23953447.5164   23953456.5434
     -1651.0784
  57249051.71743  44612996.88745  27488344.6874   27488363.5474
     -6146.3914
   6278286.09447   4947517.99247  23249367.0004   23249373.7504
     -2375.5164
  -2877861.92946  -2175934.39446  25150437.3594   25150450.0084
       703.1724
   -913476.63545   -667360.64345  25927760.4304   25927771.7664
        36.5944
  12890262.42148  10059394.99647  22746078.8674   22746087.1564
     -2800.3284
  29611906.53747  23093761.89346  23984184.4844   23984193.7934
     -4015.8594
    508212.79945    365127.02045  26804303.0004   26804313.6214
      -764.0624
  32318770.06041  23516202.30245  26840197.1334   26840210.5194
     -5810.5474
 01 10  2  1 35  0.0080000  0  9G 2G13G28G 7G26G 8G27G11G31
   5342754.63548   4562692.76147  23958164.3524   23958173.2034
     -1654.0944
  57341245.51844  44684836.03945  27505889.8984   27505907.0004
     -6146.1874
   6313951.34547   4975309.11947  23256154.0784   23256160.7814
     -2379.9534
  -2888379.68846  -2184129.92046  25148436.5004   25148449.0084
       699.1094
   -913976.78845   -667750.31445  25927665.3594   25927675.7114
        30.0164
  12932313.34648  10092161.97247  22754080.8754   22754089.1414
     -2806.5474
  29672186.49747  23140733.30546  23995655.9774   23995665.2624
     -4021.5474
    519712.13445    374087.61145  26806492.0394   26806502.7424
      -769.2664
  32405954.37742  23584138.13345  26856789.0004   26856804.0274
     -5814.0784
 01 10  2  1 35 15.0080000  0  9G 2G13G28G 7G26G 8G27G11G31
   5367588.72948   4582044.03047  23962890.1094   23962898.7624
     -1657.1874
  57433436.80044  44756673.19845  27523433.2114   27523449.3754
     -6146.0474
   6349683.82547   5003152.63047  23262953.6414   23262960.3794
     -2384.4694
  -2898835.48946  -2192277.17746  25146445.6334   25146457.7774
       694.9384
   -914376.69645   -668061.86945  25927589.2664   25927600.3204
        23.2814
  12974458.29748  10125002.21447  22762100.8444   22762109.0864
     -2812.8754
  29732552.54747  23187771.78046  24007142.8524   24007152.0904
     -4027.3284
    531290.27545    383109.63745  26808695.0004   26808706.3124
      -774.5624
  32493191.97442  23652115.57745  26873390.7504   26873402.0044
     -5817.6724
 01 10  2  1 35 30.0090000  0  9G 2G13G28G 7G26G 8G27G11G31
   5392471.19048   4601432.99347  23967625.1454   23967633.9154
     -1660.0164
  57525632.28344  44828513.73245  27540976.8724   27540995.5794
     -6145.6254
   6385486.82247   5031051.09047  23269766.9814   23269773.9584
     -2388.7034
  -2909228.88546  -2200375.80446  25144468.4894   25144480.6924
       691.0004
   -914675.29045   -668294.48046  25927533.0054   25927544.1774
        16.7664
  13016701.06948  10157918.67547  22770139.4584   22770147.5834
     -2818.9064
  29793009.63647  23234881.20746  24018647.5364   24018656.8924
     -4032.8444
    542949.29145    392194.63645  26810914.1384   26810925.7084
      -779.6254
  32580489.20743  23720139.48545  26890001.9194   26890013.1854
     -5820.9534
 01 10  2  1 35 45.0090000  0  9G 2G13G28G 7G26G 8G27G11G31
   5417397.32748   4620855.98447  23972368.3954   23972377.2124
     -1663.2974
  57617818.20043  44900346.71945  27558519.3174   27558536.5364
     -6145.6414
   6421353.98947   5058999.55047  23276592.2084   23276599.0054
     -2393.4064
  -2919559.46146  -2208425.47546  25142503.3644   25142515.3924
       686.5944
   -914873.49145   -668448.85746  25927494.4974   25927505.3064
         9.8284
  13059034.86848  10190906.06847  22778195.2704   22778203.5244
     -2825.4064
  29853548.39747  23282054.27046  24030167.4034   24030176.4894
     -4038.8124
    554686.53145    401340.61845  26813147.0754   26813159.1964
      -785.1564
  32667832.84743  23788199.53545  26906621.9584   26906633.2474
     -5824.6724
 01 10  2  1 36  0.0090000  0  9G 2G13G28G 7G26G 8G27G11G31
   5442367.20548   4640313.05847  23977119.9894   23977128.6774
     -1666.3124
  57709998.60643  44972175.39145  27576061.3254   27576077.3604
     -6145.3594
   6457286.15747   5086998.66247  23283429.7164   23283436.4194
     -2397.8284
  -2929829.28146  -2216427.81246  25140548.4664   25140560.5404
       682.4384
   -914972.64845   -668526.07646  25927475.7944   25927487.1774
         3.1094
  13101460.88548  10223965.31747  22786268.5754   22786276.7824
     -2831.6724
  29914171.31847  23329292.91646  24041703.5444   24041712.8414
     -4044.5314
    566501.62845    410547.23845  26815395.6064   26815407.4814
      -790.4694
  32755226.77443  23856298.81145  26923253.4034   26923263.6494
     -5828.1254
 01 10  2  1 36 15.0090000  0  9G 2G13G28G 7G26G 8G27G11G31
   5467383.31348   4659806.15747  23981879.9034   23981888.6734
     -1669.3444
  57802175.87343  45044001.76845  27593601.5914   27593623.0674
     -6145.1254
   6493285.88847   5115050.42347  23290280.4194   23290287.3494
     -2402.2974
  -2940035.42246  -2224380.51746  25138605.6064   25138617.7514
       678.2194
   -914969.93145   -668523.87346  25927475.8024   25927486.8104
        -3.6564
  13143981.84748  10257098.55147  22794359.9974   22794368.2274
     -2837.9694
  29974880.97247  23376599.15146  24053256.3024   24053265.5054
     -4050.2664
    578397.32645    419816.69445  26817659.1774   26817670.8294
      -795.8124
  32842673.11143  23924438.92845  26939895.4354   26939905.2354
     -5831.5944
 01 10  2  1 36 30.0090000  0  9G 2G13G28G 7G26G 8G27G11G31
   5492444.20648   4679334.15947  23986649.2704   23986658.1104
     -1672.2504
  57894348.37544  45115824.25145  27611141.8884   27611158.6024
     -6144.7034
   6529351.62547   5143153.61747  23297143.3414   23297150.3524
     -2406.6094
  -2950179.03046  -2232284.51446  25136675.7634   25136687.6384
       674.1094
   -914866.37945   -668443.15246  25927496.0834   25927506.6814
       -10.3124
  13186596.62448  10290304.88447  22802469.4504   22802477.5994
     -2844.1414
  30035676.03247  23423971.92246  24064825.0054   24064834.1264
     -4055.8914
    590372.64345    429148.16945  26819937.7784   26819949.4544
      -801.0624
  32930170.18943  23992618.50145  26956545.0524   26956554.4314
     -5834.8444
 01 10  2  1 36 45.0090000  0  9G 2G13G28G 7G26G 8G27G11G31
   5517548.41048   4698895.90447  23991426.2554   23991435.0014
     -1675.0624
  57986514.46843  45187641.81445  27628681.3414   27628696.3214
     -6144.1724
   6565481.79347   5171307.01147  23304018.6614   23304025.5054
     -2410.8284
  -2960261.32946  -2240140.74146  25134756.4894   25134769.0794
       670.0944
   -914663.03345   -668284.65246  25927534.7244   25927545.8134
       -16.8914
  13229303.68148  10323583.12147  22810596.2634   22810604.3524
     -2850.2344
  30096555.10247  23471410.16346  24076410.3564   24076419.2904
     -4061.4064
    602426.44345    438540.79545  26822231.0754   26822243.1384
      -806.2194
  33017716.29543  24060836.41045  26973204.0994   26973214.8254
     -5838.0474
 01 10  2  1 37  0.0090000  0  9G 2G13G28G 7G26G 8G27G11G31
   5542695.88448   4718491.37047  23996211.9194   23996220.6184
     -1677.9694
  58078673.74943  45259454.08145  27646216.6694   27646234.3334
     -6143.7664
   6601676.39247   5199510.61147  23310906.6534   23310913.4624
     -2415.1564
  -2970281.91546  -2247948.86546  25132849.9424   25132862.2864
       665.9224
   -914359.77645   -668048.26946  25927591.6854   25927604.0874
       -23.5944
  13272103.24848  10356933.45047  22818740.6924   22818748.8294
     -2856.4374
  30157518.11547  23518913.81246  24088010.7944   24088020.1024
     -4067.0474
    614559.08745    447994.85645  26824541.1064   26824551.1064
      -811.5164
  33105311.04543  24129092.09645  26989872.4814   26989884.9194
     -5841.3284
 01 10  2  1 37 15.0090000  0  9G 2G13G28G 7G26G 8G27G11G31
   5567885.95848   4738120.02747  24001005.0364   24001013.6304
     -1680.5944
  58170825.29743  45331260.27245  27663754.3024   27663773.5954
     -6143.0164
   6637934.71847   5227763.87147  23317805.9424   23317812.6924
     -2419.1874
  -2980241.18046  -2255709.22746  25130954.3254   25130966.4114
       662.0634
   -913956.79545   -667734.19846  25927668.3104   25927679.5404
       -30.0314
  13314994.82748  10390355.47347  22826902.8954   22826911.1144
     -2862.3444
  30218564.45247  23566482.39546  24099627.9584   24099637.2784
     -4072.3754
    626770.18145    457510.10145  26826864.1534   26826874.9274
      -816.5314
  33192953.69543  24197385.15645  27006550.3334   27006561.7164
     -5844.2814
 01 10  2  1 37 30.0090000  0  9G 2G13G28G 7G26G 8G27G11G31
   5593119.07148   4757782.22347  24005806.5054   24005815.2394
     -1683.6874
  58262969.40443  45403060.78145  27681288.8104   27681308.6424
     -6142.7194
   6674257.17747   5256067.10247  23324718.0364   23324724.8214
     -2423.6724
  -2990138.28746  -2263421.13746  25129071.1924   25129083.2314
       657.6724
   -913453.37545   -667341.88646  25927764.2554   25927775.3214
       -36.9694
  13357978.85048  10423849.53047  22835082.4504   22835090.6344
     -2868.7344
  30279694.69847  23614116.34946  24111260.4034   24111269.8294
     -4078.1874
    639060.67245    467087.17345  26829202.2864   26829211.6884
      -822.0624
  33280644.19943  24265715.53745  27023236.6534   27023247.0634
     -5847.6564
 01 10  2  1 37 45.0090000  0  9G 2G13G28G 7G26G 8G27G11G31
   5618397.73648   4777479.91547  24010616.9584   24010625.8804
     -1686.7974
  58355108.25143  45474857.01145  27698823.0364   27698844.4664
     -6142.4224
   6710646.14347   5284422.15647  23331642.5364   23331649.3804
     -2428.1874
  -2999970.63046  -2271082.59246  25127200.2314   25127212.6694
       653.2814
   -912846.57345   -666869.01646  25927879.8174   25927890.1104
       -43.9224
  13401057.97748  10457417.69347  22843279.6304   22843287.9314
     -2875.1414
  30340911.30147  23661817.60346  24122909.3494   24122918.4114
     -4084.0314
    651433.43345    476728.33145  26831557.4034   26831568.5874
      -827.6254
  33368384.66543  24334084.83745  27039933.0834   27039944.7824
     -5851.0624
 01 10  2  1 38  0.0090000  0  9G 2G13G28G 7G26G 8G27G11G31
   5643721.41448   4797212.67947  24015436.3414   24015445.2514
     -1689.6874
  58447240.97543  45546648.73945  27716352.4744   27716371.6614
     -6141.8914
   6747101.11247   5312828.64247  23338579.7314   23338586.2944
     -2432.4694
  -3009738.29346  -2278693.65746  25125340.8334   25125353.2944
       649.0784
   -912136.68945   -666315.80246  25928015.2554   25928025.8294
       -50.7034
  13444231.96248  10491059.77147  22851495.5994   22851503.9704
     -2881.3754
  30402213.88647  23709585.85646  24134574.9034   24134583.6734
     -4089.6414
    663888.24445    486433.43845  26833926.6924   26833936.9744
      -833.0004
  33456174.33643  24402492.44645  27056638.6064   27056650.0244
     -5854.2034
 01 10  2  1 38 15.0090000  0  9G 2G13G28G 7G26G 8G27G11G31
   5669090.43148   4816980.77947  24020263.2634   24020272.1144
     -1693.0004
  58539367.65543  45618435.44845  27733885.3494   27733906.2274
     -6141.7814
   6783622.39147   5341286.79747  23345529.4974   23345536.2594
     -2437.1724
  -3019440.61446  -2286253.79846  25123494.5204   25123506.8764
       644.4384
   -911323.09045   -665681.79845  25928170.3494   25928180.2434
       -57.9224
  13487501.06048  10524775.96447  22859729.5284   22859737.7244
     -2888.0004
  30463602.79747  23757421.37746  24146257.1304   24146266.0634
     -4095.6874
    676425.73845    496202.99445  26836312.8564   26836323.3724
      -838.8124
  33544013.24643  24470938.42745  27073353.8254   27073365.2314
     -5857.7664
 01 10  2  1 38 30.0090000  0  9G 2G13G28G 7G26G 8G27G11G31
   5694508.47248   4836787.07047  24025100.0524   24025108.9034
     -1696.0784
  58631492.01043  45690220.57845  27751416.2864   27751435.0634
     -6141.4374
   6820213.47447   5369799.34747  23352492.4664   23352499.2394
     -2441.6414
  -3029073.66046  -2293759.94946  25121660.7164   25121673.2594
       639.9844
   -910401.76945   -664963.81045  25928345.3564   25928356.3644
       -64.9374
  13530869.26048  10558569.38147  22867982.1454   22867990.2704
     -2894.4374
  30525081.73547  23805327.04146  24157955.8104   24157964.8604
     -4101.5004
    689049.85445    506040.04245  26838715.0284   26838724.5134
      -844.4224
  33631904.74844  24539425.35745  27090078.9114   27090090.3884
     -5861.1254
 01 10  2  1 38 45.0090000  0  9G 2G13G28G 7G26G 8G27G11G31
   5719969.63048   4856626.96347  24029945.9504   24029954.7084
     -1698.9844
  58723607.85043  45761998.95244  27768945.5834   27768961.7474
     -6140.8914
   6856868.54747   5398361.75547  23359467.2944   23359473.9854
     -2445.9374
  -3038642.90046  -2301216.39846  25119840.4584   25119852.7314
       635.6884
   -909378.11945   -664166.12846  25928539.6854   25928550.3414
       -71.7974
  13574330.84048  10592435.56047  22876252.5674   22876260.7164
     -2900.6874
  30586644.93647  23853298.36846  24169671.2004   24169680.3104
     -4107.1564
    701755.27545    515940.45545  26841133.0834   26841143.6104
      -849.8914
  33719842.91544  24607948.70145  27106813.2394   27106825.6424
     -5864.2194
 01 10  2  1 39  0.0090000  0  9G 2G13G28G 7G26G 8G27G11G31
   5745475.31248   4876501.54947  24034798.9584   24034807.7634
     -1701.8124
  58815716.18943  45833771.47945  27786472.4664   27786492.9314
     -6140.2664
   6893589.00147   5426975.10947  23366455.1534   23366461.8454
     -2450.1724
  -3048146.69246  -2308621.84146  25118031.9194   25118044.0994
       631.4384
   -908250.62646   -663287.52346  25928754.5674   25928765.1064
       -78.6094
  13617887.23148  10626375.61847  22884541.0754   22884549.2004
     -2906.8754
  30648293.83247  23901336.47146  24181402.6454   24181411.5794
     -4112.7504
    714543.64744    525905.48845  26843565.7474   26843577.5174
      -855.2974
  33807828.74944  24676509.16245  27123556.0914   27123566.2314
     -5867.2664
 01 10  2  1 39 15.0090000  0  9G 2G13G28G 7G26G 8G27G11G31
   5771022.70748   4896408.63447  24039660.5204   24039669.0794
     -1704.5784
  58907814.12843  45905535.93445  27803998.6144   27804013.7944
     -6139.5474
   6930371.91547   5455637.12847  23373454.8334   23373461.5134
     -2454.2974
  -3057587.49646  -2315978.19846  25116235.9034   25116248.0604
       627.2344
   -907021.45146   -662329.67346  25928988.2634   25928999.5634
       -85.3594
  13661535.65748  10660387.38847  22892846.9814   22892854.9664
     -2913.0004
  30710025.72147  23949439.24046  24193149.7864   24193158.9664
     -4118.2664
    727412.64145    535933.34945  26846015.8254   26846026.6924
      -860.6414
  33895859.09845  24745104.37145  27140307.2944   27140318.4894
     -5870.1874
 01 10  2  1 39 30.0090000  0  9G 2G13G28G 7G26G 8G27G11G31
   5796613.29648   4916349.37347  24044530.3414   24044538.8524
     -1707.6094
  58999902.81643  45977293.25044  27821522.7784   27821537.6184
     -6139.0474
   6967218.67947   5484348.89747  23380466.6694   23380473.4074
     -2458.7034
  -3066963.40646  -2323283.99646  25114450.8954   25114462.4894
       622.7664
   -905689.12046   -661291.49146  25929241.2634   25929250.6064
       -92.4224
  13705277.99748  10694472.34247  22901170.9114   22901178.9664
     -2919.3914
  30771842.10247  23997607.84946  24204913.1854   24204922.3174
     -4124.0314
    740363.96944    546025.35645  26848479.5364   26848489.3024
      -866.3124
  33983935.16145  24813735.12145  27157067.6454   27157077.9744
     -5873.3754
 01 10  2  1 39 45.0090000  0  9G 2G13G28G 7G26G 8G27G11G31
   5822248.29148   4936324.72847  24049408.5284   24049417.2634
     -1710.4374
  59091983.19443  46049043.95945  27839045.1614   27839060.7044
     -6138.3444
   7004130.55047   5513111.40747  23387490.4974   23387497.3174
     -2462.9064
  -3076272.95446  -2330538.08746  25112679.1304   25112690.9934
       618.5004
   -904251.84246   -660171.48446  25929515.5284   25929526.6424
       -99.2664
  13749115.51148  10728631.45447  22909512.9744   22909520.9354
     -2925.6254
  30833744.23747  24045843.28546  24216692.9504   24216702.0834
     -4129.6254
    753399.24144    556182.81145  26850960.0994   26850969.7124
      -871.7814
  34072057.97845  24882402.39945  27173837.2784   27173846.8924
     -5876.3444
 01 10  2  1 40  0.0090000  0  9G 2G13G28G 7G26G 8G27G11G31
   5847929.40848   4956336.01447  24054295.5674   24054304.3254
     -1713.6724
  59184056.70343  46120789.45344  27856566.0204   27856587.5674
     -6138.0624
   7041109.14347   5541925.91147  23394527.0834   23394533.7984
     -2467.5164
  -3085514.25946  -2337738.99946  25110920.9034   25110932.6384
       613.7504
   -902707.66346   -658968.19546  25929809.5604   25929820.0284
      -106.5624
  13793049.87448  10762866.03147  22917873.3024   22917881.2744
     -2932.2504
  30895733.83947  24094146.87546  24228489.1694   24228498.2784
     -4135.6254
    766520.50644    566407.23945  26853455.8334   26853466.3254
      -877.6724
  34160228.78845  24951106.98845  27190616.3414   27190625.2394
     -5879.7194
 01 10  2  1 40 15.0090000  0  9G 2G13G28G 7G26G 8G27G11G31
   5873655.87148   4976382.63547  24059190.9664   24059199.7124
     -1716.5474
  59276122.37744  46192528.72845  27874086.8254   27874109.2744
     -6137.3754
   7078153.64947   5570791.77447  23401576.7634   23401583.4314
     -2471.7664
  -3094687.66046  -2344886.98746  25109174.8884   25109186.2354
       609.3754
   -901057.09945   -657682.00046  25930122.8954   25930134.1024
      -113.5474
  13837080.55348  10797175.66847  22926252.0674   22926260.1924
     -2938.5314
  30957810.23447  24142518.09646  24240301.8494   24240311.2514
     -4141.2504
    779727.30044    576698.33445  26855970.3494   26855980.9354
      -883.2664
  34248446.59745  25019848.22645  27207403.4814   27207412.2514
     -5882.6724
 01 10  2  1 40 30.0090000  0  9G 2G13G28G 7G26G 8G27G11G31
   5899424.09548   4996461.79147  24064094.3804   24064102.9854
     -1719.3124
  59368176.40643  46264258.98544  27891604.3414   27891623.1424
     -6136.5784
   7115260.55547   5599706.25947  23408638.0524   23408644.6734
     -2475.8914
  -3103796.48746  -2351984.66746  25107441.9584   25107453.2704
       605.0634
   -899303.31545   -656315.36745  25930456.7314   25930467.1654
      -120.3914
  13881204.21748  10831557.75747  22934648.2944   22934656.3844
     -2944.7034
  31019969.86147  24190954.16546  24252129.9034   24252139.3294
     -4146.7974
    793016.51344    587053.63945  26858497.8564   26858508.5244
      -888.7504
  34336707.50645  25088623.02545  27224198.9814   27224208.2904
     -5885.5314
 01 10  2  1 40 45.0090000  0  9G 2G13G28G 7G26G 8G27G11G31
   5925236.43148   5016575.33147  24069006.0834   24069014.8994
     -1722.4534
  59460220.85644  46335981.77444  27909119.5674   27909135.5444
     -6136.1254
   7152432.04547   5628671.07347  23415711.5444   23415718.1774
     -2480.4064
  -3112837.98546  -2359029.89646  25105721.1304   25105732.4894
       600.3444
   -897443.61546   -654866.19745  25930810.6224   25930821.4314
      -127.7034
  13925423.27248  10866014.17047  22943063.0054   22943071.1774
     -2951.2814
  31082215.14447  24239456.98146  24263974.7704   24263984.1024
     -4152.7034
    806390.85444    597475.27545  26861043.4744   26861055.3254
      -894.6414
  34425013.78045  25157433.22245  27241003.2784   27241012.0364
     -5888.7344
 01 10  2  1 41  0.0090000  0  8G 2G28G 7G26G 8G27G11G31
   5951092.33548   5036722.80947  24073926.3104   24073935.0444
     -1725.0004
   7189667.62247   5657685.81847  23422797.2314   23422803.9814
     -2484.3284
  -3121812.40346  -2366022.84546  25104013.4274   25104025.2434
       596.2344
   -895478.16446   -653334.65645  25931184.6534   25931195.1224
      -134.3914
  13969737.38848  10900544.65947  22951495.9584   22951504.0134
     -2957.2814
  31144545.65647  24288026.21246  24275836.0134   24275845.1574
     -4158.0314
    819850.08843    607963.09345  26863604.2474   26863613.3564
      -899.9534
  34513364.55945  25226278.16645  27257815.3414   27257825.3174
     -5891.3594
 01 10  2  1 41 15.0090000  0  8G 2G28G 7G26G 8G27G11G31
   5976990.38948   5056903.13447  24078854.6854   24078863.5244
     -1728.1094
   7226965.79747   5686749.34147  23429894.5674   23429901.3294
     -2488.8124
  -3130720.81646  -2372964.35246  25102318.4424   25102330.1304
       591.5164
   -893408.15746   -651721.59745  25931578.7554   25931588.8494
      -141.6724
  14014145.19148  10935148.15147  22959946.2634   22959954.3994
     -2963.8124
  31206959.98647  24336660.74946  24287713.0754   24287722.5484
     -4163.9224
    833393.09843    618516.20145  26866180.8884   26866192.9384
      -905.8444
  34601758.00745  25295156.25445  27274635.9274   27274646.1734
     -5894.5004
 01 10  2  1 41 30.0090000  0  8G 2G28G 7G26G 8G27G11G31
   6002935.05848   5077119.79147  24083791.4584   24083800.2984
     -1731.2034
   7264331.00547   5715865.09647  23437005.2704   23437011.8104
     -2493.2664
  -3139558.55046  -2379850.79346  25100635.9424   25100647.9464
       586.7974
   -891228.70946   -650023.29845  25931993.2004   25932003.3294
      -148.9694
  14058651.27248  10969828.22547  22968415.5524   22968423.7704
     -2970.3444
  31269462.59347  24385364.08346  24299606.7784   24299616.4274
     -4169.7974
    847024.88143    629138.45945  26868775.6064   26868787.7394
      -911.7814
  34690198.33545  25364070.90945  27291465.5054   27291475.9854
     -5897.5944
 01 10  2  1 41 45.0090000  0  8G 2G28G 7G26G 8G27G11G31
   6028925.23348   5097371.90247  24088737.7084   24088746.5604
     -1733.9694
   7301761.99947   5745032.11347  23444128.1304   23444134.6924
     -2497.3594
  -3148326.35546  -2386682.75346  25098967.1144   25098979.1064
       582.4064
   -888940.76946   -648240.44246  25932428.5914   25932439.1184
      -155.9374
  14103254.60048  11004584.07347  22976903.1924   22976911.2824
     -2976.5784
  31332052.42547  24434135.37346  24311517.2244   24311526.5914
     -4175.3444
    860744.48444    639829.13745  26871386.1144   26871396.8644
      -917.3444
  34778684.14045  25433021.05545  27308303.6774   27308313.8524
     -5900.3444
 01 10  2  1 42  0.0090000  0  8G 2G28G 7G26G 8G27G11G31
   6054958.62748   5117657.68747  24093691.4504   24093700.0674
     -1737.0784
   7339256.56347   5774248.66447  23451262.9894   23451269.6574
     -2501.8284
  -3157026.17546  -2393461.72646  25097312.5674   25097324.2314
       577.6414
   -886546.14046   -646374.48646  25932884.3954   25932896.5994
      -163.2664
  14147953.17248  11039414.13547  22985409.0444   22985417.1694
     -2983.1724
  31394727.33147  24482972.95746  24323443.9424   24323453.6144
     -4181.2344
    874550.05743    650586.78945  26874013.6304   26874023.0674
      -923.3124
  34867212.84545  25502004.60045  27325150.1534   27325160.6104
     -5903.4064
 01 10  2  1 42 15.0090000  0  8G 2G28G 7G26G 8G27G11G31
   6081035.41848   5137977.29147  24098653.6694   24098662.1924
     -1739.8594
   7376814.77947   5803514.81347  23458409.9354   23458416.7084
     -2505.9694
  -3165657.49846  -2400187.33346  25095669.2084   25095680.9314
       573.1884
   -884044.37946   -644425.00346  25933360.0364   25933371.5134
      -170.3284
  14192747.28348  11074318.64647  22993933.0284   22993941.0134
     -2989.4224
  31457487.51347  24531876.98646  24335386.9194   24335396.1344
     -4186.8124
    888442.11443    661411.86545  26876657.3334   26876668.4934
      -928.9694
  34955784.40144  25571021.54345  27342004.8104   27342016.1574
     -5906.1564
 01 10  2  1 42 30.0090000  0  8G 2G28G 7G26G 8G27G11G31
   6107153.91448   5158329.39247  24103623.9194   24103632.4664
     -1742.7034
   7414434.94347   5832829.23847  23465568.8564   23465575.5364
     -2510.1414
  -3174221.79346  -2406860.69946  25094039.3104   25094050.8104
       568.6414
   -881436.75646   -642393.06146  25933856.8884   25933867.7784
      -177.4694
  14237635.19548  11109296.25447  23002475.1304   23002483.2084
     -2995.7504
  31520331.29747  24580846.17246  24347346.3024   24347355.3294
     -4192.4534
    902419.31344    672303.29845  26879317.1694   26879330.2274
      -934.7504
  35044396.65844  25640070.19145  27358866.9424   27358878.8064
     -5908.9224
 01 10  2  1 42 45.0090000  0  8G 2G28G 7G26G 8G27G11G31
   6133313.43148   5178713.45847  24108601.7784   24108610.4074
     -1745.4224
   7452116.27347   5862191.31647  23472739.5444   23472746.4034
     -2514.2194
  -3182719.35746  -2413482.07546  25092422.8024   25092434.1024
       564.1724
   -878723.75146   -640278.99545  25934372.6064   25934383.7204
      -184.4844
  14282616.48548  11144346.61047  23011035.0134   23011042.7864
     -3001.9694
  31583258.04847  24629879.98546  24359320.4814   24359329.4854
     -4197.9844
    916481.33144    683260.79345  26881993.8024   26882005.4314
      -940.3754
  35133048.84544  25709149.98045  27375735.9504   27375747.1694
     -5911.5474
 01 10  2  1 43  0.0090000  0  8G 2G28G 7G26G 8G27G11G31
   6159516.83348   5199131.71647  24113588.2244   24113597.0524
     -1748.3444
   7489861.78047   5891603.40347  23479922.2314   23479928.7704
     -2518.4844
  -3191146.96246  -2420048.93346  25090818.5914   25090830.2554
       559.5314
   -875901.99346   -638080.17846  25934910.0754   25934919.5834
      -191.7194
  14327694.31348  11179472.19547  23019612.9744   23019620.7354
     -3008.3914
  31646270.79347  24678980.82346  24371311.2084   24371320.2474
     -4203.7034
    930631.49743    694286.99745  26884684.5444   26884695.6344
      -946.2814
  35221743.59943  25778262.91845  27392613.9974   27392628.0754
     -5914.3594
 01 10  2  1 43 15.0090000  0  8G 2G28G 7G26G 8G27G11G31
   6185761.18648   5219581.88047  24118582.3564   24118591.1964
     -1750.9224
   7527668.40447   5921063.12547  23487116.3494   23487123.0404
     -2522.4224
  -3199507.22046  -2426563.32046  25089227.3724   25089238.5444
       555.1724
   -872974.20446   -635798.75246  25935466.7474   25935476.6064
      -198.6564
  14372865.72548  11214670.70647  23028208.7784   23028216.6924
     -3014.4844
  31709366.56247  24728146.35346  24383317.5914   24383326.9934
     -4209.0944
    944867.16644    705379.81445  26887394.6924   26887405.7354
      -951.8284
  35310477.59043  25847406.47545  27409499.1384   27409510.6264
     -5916.8284
 01 10  2  1 43 30.0090000  0  8G 2G28G 7G26G 8G27G11G31
   6212046.34348   5240063.84547  24123584.3174   24123593.0874
     -1753.8124
   7565535.95747   5950570.31547  23494322.4584   23494329.1734
     -2526.6414
  -3207800.02746  -2433025.15246  25087649.7394   25087661.4384
       550.5004
   -869940.15546   -633434.54745  25936044.3334   25936054.2164
      -205.9224
  14418130.77548  11249942.17947  23036822.3954   23036830.3334
     -3020.9064
  31772545.26647  24777376.50846  24395340.2314   24395349.3524
     -4214.7974
    959188.43243    716539.31645  26890118.8564   26890128.1534
      -957.7194
  35399250.37843  25916580.18645  27426392.0754   27426405.1814
     -5919.5624
 01 10  2  1 43 45.0090000  0  8G 2G28G 7G26G 8G27G11G31
   6238374.29348   5260579.15947  24128594.3954   24128602.9544
     -1756.6874
   7603466.30447   5980126.43547  23501540.2784   23501546.9234
     -2530.8444
  -3216023.14146  -2439432.67546  25086085.1384   25086096.5094
       545.7974
   -866797.70346   -630985.80645  25936642.5754   25936653.1964
      -213.2034
  14463491.35248  11285288.08747  23045454.1534   23045462.1854
     -3027.2974
  31835808.88347  24826672.82646  24407378.8334   24407387.9894
     -4220.4694
    973597.68943    727767.40845  26892860.3414   26892870.2704
      -963.6254
  35488063.54543  25985785.36345  27443294.1384   27443306.2594
     -5922.2664
 01 10  2  1 44  0.0090000  0  8G 2G28G 7G26G 8G27G11G31
   6264745.56148   5281128.21547  24133613.0834   24133621.7124
     -1759.5314
   7641459.91347   6009731.85247  23508770.4894   23508777.2864
     -2535.0164
  -3224175.69346  -2445785.20946  25084532.7394   25084544.2044
       541.1414
   -863545.81946   -628451.85045  25937260.9894   25937271.4464
      -220.4534
  14508948.33748  11320709.12047  23054104.3954   23054112.5094
     -3033.6874
  31899157.97147  24876035.74246  24419434.1534   24419443.4154
     -4226.1254
    988095.74543    739064.70245  26895620.9504   26895630.9384
      -969.5164
  35576917.53243  26055022.37045  27460201.4974   27460211.2984
     -5924.9374
 01 10  2  1 44 15.0090000  0  8G 2G28G 7G26G 8G27G11G31
   6291157.33248   5301708.83647  24138638.6534   24138647.2244
     -1762.1254
   7679513.91347   6039384.32647  23516011.6774   23516018.4274
     -2538.9374
  -3232260.24046  -2452084.76646  25082993.9814   25083005.4584
       536.7034
   -860187.10946   -625834.63746  25937900.6454   25937909.9314
      -227.4844
  14554498.88248  11356203.06147  23062772.2394   23062780.3994
     -3039.8284
  31962589.77347  24925463.11746  24431505.0994   24431514.2904
     -4231.5314
   1002680.11843    750429.22445  26898395.4584   26898407.0054
      -975.1724
  35665809.20843  26124288.83345  27477117.2244   27477129.0754
     -5927.3284
 01 10  2  1 44 30.0090000  0  8G 2G28G 7G26G 8G27G11G31
   6317609.16048   5322320.68047  24143671.8254   24143680.4424
     -1765.0004
   7717627.89447   6069083.53647  23523264.5754   23523271.3494
     -2543.1254
  -3240276.91546  -2458331.41146  25081468.6534   25081479.6614
       531.9694
   -856721.70846   -623134.28445  25938559.0134   25938570.3254
      -234.7814
  14600142.73248  11391769.69947  23071457.8494   23071466.0094
     -3046.2344
  32026103.85147  24974954.58846  24443591.3954   24443600.5524
     -4237.2344
   1017350.78643    761861.00845  26901187.3564   26901196.2314
      -981.1414
  35754737.65443  26193583.85945  27494039.2474   27494048.5324
     -5930.0004
 01 10  2  1 44 45.0090000  0  8G 2G28G 7G26G 8G27G11G31
   6344103.22948   5342965.43647  24148714.1064   24148722.6424
     -1767.6414
   7755803.92947   6098831.09947  23530529.1774   23530536.1184
     -2547.1094
  -3248223.18446  -2464523.21346  25079956.9744   25079968.1694
       527.4224
   -853147.07446   -620348.80646  25939239.2314   25939249.9114
      -241.9224
  14645882.21348  11427410.85947  23080161.7864   23080169.8294
     -3052.4534
  32089702.46147  25024511.94046  24455693.4744   24455702.4664
     -4242.7034
   1032110.23143    773361.94545  26903994.5444   26904006.6774
      -986.9064
  35843704.90743  26262909.15945  27510968.7474   27510980.1534
     -5932.4224
 01 10  2  1 45  0.0090000  0  8G 2G28G 7G26G 8G27G11G31
   6370639.30248   5363642.90547  24153763.5914   24153772.2084
     -1770.5314
   7794041.88847   6128626.91747  23537805.4744   23537812.3064
     -2551.3124
  -3256098.95546  -2470660.08646  25078457.4034   25078468.4234
       522.6414
   -849463.12046   -617478.15045  25939940.6144   25939951.4354
      -249.3284
  14691717.18048  11463126.42147  23088883.8254   23088891.7164
     -3058.9064
  32153385.40547  25074134.99946  24467811.9744   24467821.2824
     -4248.3914
   1046958.60343    784932.16245  26906820.5754   26906831.6654
      -992.9064
  35932710.36142  26332264.14345  27527906.1924   27527920.3414
     -5935.0164
 01 10  2  1 45 15.0090000  0  8G 2G28G 7G26G 8G27G11G31
   6397215.99648   5384352.03847  24158820.9664   24158829.6184
     -1773.2194
   7832340.24547   6158469.80347  23545093.2084   23545100.1854
     -2555.3124
  -3263905.34546  -2476742.88646  25076972.4034   25076983.5054
       518.0314
   -845670.96246   -614523.21545  25940662.0914   25940671.2474
      -256.5164
  14737646.32648  11498915.36547  23097623.9894   23097631.9274
     -3065.1724
  32217151.32047  25123822.71446  24479946.0524   24479955.3374
     -4253.9064
   1061894.67943    796570.74445  26909662.5054   26909673.3494
      -998.7504
  36021752.24642  26401647.49045  27544850.1384   27544859.7864
     -5937.4224
 01 10  2  1 45 30.0090000  0  8G 2G28G 7G26G 8G27G11G31
   6423835.49948   5405094.52147  24163886.3494   24163895.0714
     -1776.0004
   7870701.11547   6188361.39647  23552393.3254   23552400.2204
     -2559.4064
  -3271639.81646  -2482769.64546  25075500.5134   25075511.7314
       513.2814
   -841768.03646   -611481.92345  25941404.3334   25941413.7824
      -263.8124
  14783672.15648  11534779.65247  23106382.3884   23106390.4074
     -3071.5474
  32281002.52547  25173576.89046  24492097.1534   24492106.2274
     -4259.5314
   1076921.22543    808279.82845  26912523.4664   26912533.1144
     -1004.7194
  36110832.67243  26471060.84145  27561801.8564   27561811.5404
     -5939.8914
 01 10  2  1 45 45.0090000  0  8G 2G28G 7G26G 8G27G11G31
   6450494.51348   5425867.79047  24168959.1454   24168967.8924
     -1778.6874
   7909121.19147   6218299.12447  23559704.3174   23559711.1494
     -2563.4064
  -3279305.43146  -2488742.75446  25074041.4744   25074052.8924
       508.6254
   -837757.20746   -608356.56245  25942168.4974   25942178.8134
      -271.0944
  14829791.46848  11570716.78347  23115158.8644   23115166.8844
     -3077.8444
  32344935.74247  25223394.95646  24504262.8804   24504271.8724
     -4265.0474
   1092035.29343    820057.12445  26915399.4974   26915409.1694
     -1010.6254
  36199948.27342  26540501.60145  27578759.4664   27578772.0094
     -5942.3124
 01 10  2  1 46  0.0090000  0  8G 2G28G 7G26G 8G27G11G31
   6477194.30048   5446672.83647  24174040.0204   24174048.5794
     -1781.3444
   7947601.71847   6248283.94947  23567026.9584   23567033.7204
     -2567.3754
  -3286900.51446  -2494660.90146  25072596.1614   25072607.6614
       504.0004
   -833637.09446   -605146.03945  25942952.1144   25942963.2634
      -278.3284
  14876005.48048  11606727.70247  23123953.0284   23123960.9544
     -3084.1094
  32408952.22846  25273277.92746  24516444.4974   24516453.4894
     -4270.5314
   1107238.36143    831903.70645  26918292.5134   26918302.2204
     -1016.5004
  36289099.75642  26609970.37944  27595725.0134   27595733.9584
     -5944.5944
 01 10  2  1 46 15.0090000  0  8G 2G28G 7G26G 8G27G11G31
   6503935.36448   5467510.04647  24179128.4894   24179137.1884
     -1784.1874
   7986143.07047   6278316.18247  23574361.2004   23574367.9504
     -2571.5164
  -3294424.36346  -2500523.54046  25071164.6304   25071176.2824
       499.1414
   -829406.84446   -601849.71245  25943757.1224   25943767.6964
      -285.7814
  14922315.00648  11642813.05547  23132765.4034   23132773.4704
     -3090.5314
  32473052.51247  25323226.19346  24528642.6614   24528652.2634
     -4276.2034
   1122531.24943    843820.30445  26921201.4034   26921211.8604
     -1022.5784
  36378287.44042  26679467.35345  27612697.2244   27612706.6264
     -5947.1254
 01 10  2  1 46 30.0090000  0  8G 2G28G 7G26G 8G27G11G31
   6530716.78648   5488378.70347  24184224.5524   24184233.4154
     -1786.7504
   8024744.35247   6308395.10747  23581707.0444   23581713.8524
     -2575.3754
  -3301877.54246  -2506331.11746  25069746.8494   25069757.9624
       494.5474
   -825066.93846   -598467.94446  25944583.1144   25944592.3524
      -292.9694
  14968719.05248  11678972.05647  23141595.7784   23141603.7864
     -3096.7194
  32537235.75347  25373239.09946  24540856.5914   24540866.1814
     -4281.6094
   1137913.41643    855806.49745  26924129.0364   26924139.2824
     -1028.4224
  36467510.25342  26748991.69545  27629675.4814   27629684.0284
     -5949.3284
 01 10  2  1 46 45.0100000  0  8G 2G28G 7G26G 8G27G11G31
   6557540.39248   5509280.22447  24189329.2214   24189338.0024
     -1789.4844
   8063408.07347   6338522.68647  23589064.3614   23589071.1824
     -2579.4224
  -3309260.25846  -2512083.78046  25068341.1194   25068352.2444
       489.7664
   -820616.93546   -595000.39146  25945429.2214   25945439.3854
      -300.3444
  15015220.91448  11715207.27747  23150444.6664   23150452.7094
     -3103.0944
  32601506.22147  25423319.97046  24553086.6744   24553095.8654
     -4287.2034
   1153386.25543    867863.32145  26927072.9084   26927082.4634
     -1034.4844
  36556773.59142  26818547.63645  27646662.1274   27646668.6664
     -5951.7034
 01 10  2  1 47  0.0100000  0  8G 2G28G 7G26G 8G27G11G31
   6584403.01348   5530212.15047  24194441.2284   24194449.8574
     -1792.1094
   8102129.50747   6368695.23247  23596432.5494   23596439.2644
     -2583.3444
  -3316570.77446  -2517780.19046  25066949.9474   25066961.0844
       485.0784
   -816056.60446   -591446.82846  25946297.8304   25946308.1934
      -307.6414
  15061814.94548  11751514.31847  23159311.3384   23159319.5104
     -3109.3594
  32665855.87847  25473462.54146  24565332.0884   24565341.2564
     -4292.6724
   1168948.52143    879989.85045  26930034.8534   26930045.4754
     -1040.4224
  36646065.94442  26888126.18445  27663653.6034   27663665.6784
     -5953.8914
 01 10  2  1 47 15.0100000  0  8G 2G28G 7G26G 8G27G11G31
   6611305.24548   5551174.94547  24199560.3074   24199568.9124
     -1794.6254
   8140909.99347   6398913.80647  23603812.4394   23603819.1434
     -2587.1564
  -3323810.52346  -2523421.45846  25065571.5334   25065582.6824
       480.4694
   -811386.55546   -587807.79046  25947185.8464   25947196.1394
      -314.8284
  15108503.21348  11787894.78847  23168195.7214   23168203.8104
     -3115.5314
  32730287.80247  25523669.22546  24577592.8934   24577602.2714
     -4298.0314
   1184600.32743    892186.08845  26933011.9004   26933023.0024
     -1046.2664
  36735391.72741  26957730.82844  27680651.4474   27680660.8854
     -5955.9694
 01 10  2  1 47 30.0100000  0  8G 2G28G 7G26G 8G27G11G31
   6638245.69948   5572167.51847  24204686.9944   24204695.6464
     -1797.2814
   8179748.08947   6429177.26647  23611203.0804   23611209.8774
     -2591.1094
  -3330980.54046  -2529008.38646  25064208.1894   25064219.4084
       475.6724
   -806607.86245   -584084.10346  25948094.6114   25948105.0684
      -322.1874
  15155284.47448  11824347.72347  23177097.9944   23177106.1894
     -3121.8444
  32794800.65046  25573938.95846  24589869.4164   24589878.4674
     -4303.5314
   1200340.60743    904451.30945  26936007.7754   26936020.4244
     -1052.3124
  36824749.28341  27027360.16245  27697654.8614   27697664.3344
     -5958.2034
 01 10  2  1 47 45.0100000  0  8G 2G28G 7G26G 8G27G11G31
   6665225.26748   5593190.57847  24209821.2284   24209829.9634
     -1800.0474
   8218644.77647   6459486.38647  23618604.7054   23618611.4084
     -2595.1564
  -3338079.58046  -2534540.00246  25062857.2214   25062868.3814
       470.7974
   -801719.15946   -580274.66346  25949025.4554   25949035.3854
      -329.6724
  15202159.75048  11860873.91947  23186017.8304   23186025.9904
     -3128.2664
  32859395.42847  25624272.52946  24602161.5024   24602171.0214
     -4309.1414
   1216170.71343    916786.48645  26939021.6664   26939032.3224
     -1058.4224
  36914139.17941  27097014.65345  27714665.8934   27714680.7444
     -5960.5004
 01 10  2  1 48  0.0100000  0  8G 2G28G 7G26G 8G27G11G31
   6692246.28148   5614245.91847  24214963.2834   24214971.8074
     -1802.8444
   8257602.17947   6489842.81147  23626018.0184   23626024.6624
     -2599.2504
  -3345105.02946  -2540014.28946  25061519.7754   25061530.8184
       465.8594
   -796718.01346   -576377.64346  25949976.8074   25949986.1274
      -337.2194
  15249131.54548  11897475.31947  23194956.5724   23194964.6034
     -3134.7344
  32924074.40446  25674671.70946  24614469.2914   24614478.6704
     -4314.7974
   1232093.17343    929193.68145  26942051.5254   26942059.7214
     -1064.6254
  37003563.48341  27166695.90744  27731682.1664   27731692.9984
     -5962.8124
 01 10  2  1 48 15.0100000  0  8G 2G28G 7G26G 8G27G11G31
   6719307.74748   5635332.78847  24220112.5184   24220120.8184
     -1805.3914
   8296619.35647   6520245.82247  23633442.9004   23633449.5454
     -2603.0784
  -3352057.72746  -2545431.88046  25060197.0024   25060207.9754
       461.1414
   -791605.03446   -572393.45646  25950949.8384   25950960.8224
      -344.5474
  15296198.71748  11934151.04447  23203912.7524   23203920.8774
     -3140.9374
  32988836.65646  25725135.79546  24626793.3774   24626802.5924
     -4320.2034
   1248107.29543    941672.29945  26945097.5494   26945108.0534
     -1070.6094
  37093020.88041  27236403.08543  27748706.1504   27748713.8894
     -5964.9064
 01 10  2  1 48 30.0100000  0  8G 2G28G 7G26G 8G27G11G31
   6746411.82348   5656452.86147  24225270.7054   24225278.9944
     -1808.4534
   8335698.33847   6550696.98347  23640879.4244   23640886.1624
     -2607.4224
  -3358935.12546  -2550790.79446  25058887.6894   25058898.5104
       455.8754
   -786377.84446   -568320.26146  25951944.8774   25951955.4164
      -352.3914
  15343363.66648  11970902.96547  23212887.8464   23212896.0294
     -3147.6874
  33053684.29246  25775666.39746  24639133.1584   24639142.7604
     -4326.1094
   1264215.57343    954224.32745  26948162.3464   26948172.1234
     -1077.1254
  37182513.16341                  27765734.5644
     -5967.4694
 01 10  2  1 48 45.0100000  0  8G 2G28G 7G26G 8G27G11G31
   6773557.08548   5677605.02747  24230435.5964   24230444.0024
     -1811.0004
   8374837.61847   6581195.13747  23648327.2134   23648333.9984
     -2611.2504
  -3365738.38146  -2556091.93146  25057593.4944   25057604.6314
       451.1094
   -781037.43846   -564158.90946  25952961.5024   25952971.3504
      -359.7504
  15390625.06748  12007730.03547  23221881.6664   23221889.8964
     -3153.9374
  33118615.92846  25826262.46046  24651489.3774   24651498.8734
     -4331.5314
   1280416.93843    966848.77945  26951245.5804   26951254.3854
     -1083.1414
  37272038.87341                  27782769.8224
     -5969.3914
 01 10  2  1 49  0.0100000  0  8G 2G28G 7G26G 8G27G11G31
   6800740.84048   5698787.18147  24235608.6504   24235617.1274
     -1813.5474
   8414034.60547   6611738.24947  23655786.4474   23655793.2324
     -2615.0624
  -3372469.77846  -2561337.08046  25056312.2444   25056323.4164
       446.3594
   -775586.29346   -559911.22646  25953997.8774   25954008.1464
      -367.1254
  15437980.48948  12044630.37347  23230893.3074   23230901.4674
     -3160.1564
  33183628.94947  25876921.94146  24663861.1824   24663870.3384
     -4336.9224
   1296709.09643    979544.07245  26954344.2524   26954352.0724
     -1089.1724
                                  27799810.5024
     -5971.4224
 01 10  2  1 49 15.0100000  0  7G 2G28G 7G26G 8G27G11
   6827964.43048   5720000.38347  24240789.4944   24240797.9474
     -1816.3594
   8453290.54747   6642327.30447  23663256.3384   23663263.0294
     -2619.1724
  -3379127.80246  -2566525.05546  25055045.2754   25055056.2604
       441.2814
   -770022.70446   -555575.90846  25955057.5024   25955068.0644
      -374.7974
  15485431.38248  12081605.10047  23239922.9324   23239930.9284
     -3166.7194
  33248724.73047  25927645.91446  24676248.8384   24676258.0184
     -4342.6094
   1313093.79143    992311.42645  26957463.2754   26957476.0764
     -1095.5314
 01 10  2  1 49 30.0100000  0  7G 2G28G 7G26G 8G27G11
   6855229.20748   5741245.67747  24245977.3144   24245985.7684
     -1819.0944
   8492606.80247   6672963.35447  23670737.9324   23670744.5414
     -2623.1564
  -3385710.74546  -2571654.52946  25053792.3694   25053803.4474
       436.2814
   -764344.95846   -551151.64946  25956137.6354   25956146.6154
      -382.3914
  15532979.10248  12118655.27747  23248971.0184   23248978.8144
     -3173.1564
  33313904.61746  25978435.42146  24688651.5574   24688660.9244
     -4348.2034
   1329572.62843   1005152.13445  26960599.1974   26960608.5884
     -1101.8124
 01 10  2  1 49 45.0100000  0  7G 2G28G 7G26G 8G27G11
   6882533.18248   5762521.51447  24251173.3614   24251181.9784
     -1821.5944
   8531981.20447   6703644.71747  23678230.5184   23678237.3034
     -2626.9224
  -3392220.33246  -2576726.83846  25052552.6974   25052563.4004
       431.5004
   -758554.94645   -546639.94646  25957238.8614   25957249.1074
      -389.7814
  15580621.75448  12155779.42947  23258037.2364   23258045.1974
     -3179.3754
  33379166.61347  26029288.90946  24701071.1664   24701080.6154
     -4353.5624
   1346143.68743   1018064.73245  26963752.6824   26963761.7794
     -1107.8444
 01 10  2  1 50  0.0100000  0  7G 2G28G 7G26G 8G27G11
   6909875.22248   5783827.01347  24256376.3854   24256384.9554
     -1824.0784
   8571412.59747   6734370.48347  23685734.2444   23685740.8424
     -2630.6564
  -3398657.49347  -2581742.72346  25051328.8464   25051339.7134
       426.7194
   -752653.40245   -542041.28546  25958362.2054   25958372.6624
      -397.1564
  15628358.23548  12192976.68947  23267120.8854   23267128.7644
     -3185.5624
  33444509.58646  26080205.49346  24713504.9944   24713514.5604
     -4358.8914
   1362806.39943   1031048.72145  26966924.0884   26966934.7564
     -1113.9224
 01 10  2  1 50 15.0100000  0  7G 2G28G 7G26G 8G27G11
   6937256.46048   5805163.04947  24261586.5334   24261595.1154
     -1826.7194
   8610902.06147   6765141.51247  23693248.8614   23693255.5534
     -2634.5784
  -3405020.72546  -2586700.98546  25050117.6584   25050128.3144
       421.7504
   -746638.97645   -537354.66746  25959506.3224   25959516.1584
      -404.7344
  15676189.88348  12230248.11247  23276222.9004   23276230.7094
     -3191.9534
  33509934.66347  26131186.06746  24725955.3854   24725965.0104
     -4364.4224
   1379562.15843   1044105.17245  26970113.3534   26970122.6974
     -1120.1724
 01 10  2  1 50 30.0100000  0  7G 2G28G 7G26G 8G27G11
   6964675.55948   5826528.58647  24266804.5574   24266813.1154
     -1829.3754
   8650448.26847   6795956.74747  23700774.2604   23700781.0334
     -2638.4694
  -3411311.03247  -2591602.43546  25048920.8774   25048931.3814
       416.7344
   -740512.46746   -532580.72846  25960672.8304   25960683.2404
      -412.3284
  15724115.55048  12267592.79847  23285342.8774   23285350.6394
     -3198.3594
  33575440.63246  26182229.65346  24738419.8614   24738429.4634
     -4369.9374
   1396409.94243   1057233.44945  26973318.3144   26973328.5024
     -1126.4374
